[[{"header":{"parameterUnit":"m.s-1","parameterCategory":1,"la1":30.6,"la2":28.766,"lo1":-90.7593,"lo2":-88.6598,"dy":0.0162,"dx":0.0183,"nx":116,"ny":114,"refTime":"2023-05-17T12:00:00:Z","depth":0,"parameterNumber":2,"parameterNumberName":"U-component_of_WINDS"},"data":[0.0,0.0,0.0,0.0,0.0,0.0,0.0,0.0,0.0,0.0,0.0,0.0,0.0,0.0,0.0,0.0,0.0,0.0,0.0,0.0,0.0,0.0,0.0,0.0,0.0,0.0,0.0,0.0,0.0,0.0,0.0,0.0,0.0,0.0,0.0,0.0,0.0,0.0,0.0,0.0,0.0,0.0,0.0,0.0,0.0,0.0,0.0,0.0,0.0,0.0,0.0,0.0,0.0,0.0,0.0,0.0,0.0,0.0,0.0,0.0,0.0,0.0,0.0,0.0,0.0,0.0,0.0,0.0,0.0,0.0,0.0,0.0,0.0,0.0,0.0,0.0,0.0,0.0,0.0,0.0,0.0,0.0,0.0,0.0,0.0,0.0,0.0,0.0,0.0,0.0,0.0,0.0,0.0,0.0,0.0,0.0,0.0,0.0,0.0,0.0,0.0,0.0,0.0,0.0,0.0,0.0,0.0,0.0,0.0,0.0,0.0,0.0,0.0,0.0,0.0,0.0,0.0,0.0,0.0,0.0,0.0,0.0,0.0,0.0,0.0,0.0,0.0,0.0,0.0,0.0,0.0,0.0,0.0,0.0,0.0,0.0,0.0,0.0,0.0,0.0,0.0,0.0,0.0,0.0,0.0,0.0,0.0,0.0,0.0,0.0,0.0,0.0,0.0,0.0,0.0,0.0,0.0,0.0,0.0,0.0,0.0,0.0,0.0,0.0,0.0,0.0,0.0,0.0,0.0,0.0,0.0,0.0,0.0,0.0,0.0,0.0,0.0,0.0,0.0,0.0,0.0,0.0,0.0,0.0,0.0,0.0,0.0,0.0,0.0,0.0,0.0,0.0,0.0,0.0,0.0,0.0,0.0,0.0,0.0,0.0,0.0,0.0,0.0,0.0,0.0,0.0,0.0,0.0,0.0,0.0,0.0,0.0,0.0,0.0,0.0,0.0,0.0,0.0,0.0,0.0,0.0,0.0,0.0,0.0,0.0,0.0,0.0,0.0,0.0,0.0,0.0,0.0,0.0,0.0,0.0,0.0,0.0,0.0,0.0,0.0,0.0,0.0,0.0,0.0,0.0,0.0,0.0,0.0,0.0,0.0,0.0,0.0,0.0,0.0,0.0,0.0,0.0,0.0,0.0,0.0,0.0,0.0,0.0,0.0,0.0,0.0,0.0,0.0,0.0,0.0,0.0,0.0,0.0,0.0,0.0,0.0,0.0,0.0,0.0,0.0,0.0,0.0,0.0,0.0,0.0,0.0,0.0,0.0,0.0,0.0,0.0,0.0,0.0,0.0,0.0,0.0,0.0,0.0,0.0,0.0,0.0,0.0,0.0,0.0,0.0,0.0,0.0,0.0,0.0,0.0,0.0,0.0,0.0,0.0,0.0,0.0,0.0,0.0,0.0,0.0,0.0,0.0,0.0,0.0,0.0,0.0,0.0,0.0,0.0,0.0,0.0,0.0,0.0,0.0,0.0,0.0,0.0,0.0,0.0,0.0,0.0,0.0,0.0,0.0,0.0,0.0,0.0,0.0,0.0,0.0,0.0,0.0,0.0,0.0,0.0,0.0,0.0,0.0,0.0,0.0,0.0,0.0,0.0,0.0,0.0,0.0,0.0,0.0,0.0,0.0,0.0,0.0,0.0,0.0,0.0,0.0,0.0,0.0,0.0,0.0,0.0,0.0,0.0,0.0,0.0,0.0,0.0,0.0,0.0,0.0,0.0,0.0,0.0,0.0,0.0,0.0,0.0,0.0,0.0,0.0,0.0,0.0,0.0,0.0,0.0,0.0,0.0,0.0,0.0,0.0,0.0,0.0,0.0,0.0,0.0,0.0,0.0,0.0,0.0,0.0,0.0,0.0,0.0,0.0,0.0,0.0,0.0,0.0,0.0,0.0,0.0,0.0,0.0,0.0,0.0,0.0,0.0,0.0,0.0,0.0,0.0,0.0,0.0,0.0,0.0,0.0,0.0,0.0,0.0,0.0,0.0,0.0,0.0,0.0,0.0,0.0,0.0,0.0,0.0,0.0,0.0,0.0,0.0,0.0,0.0,0.0,0.0,0.0,0.0,0.0,0.0,0.0,0.0,0.0,0.0,0.0,0.0,0.0,0.0,0.0,0.0,0.0,0.0,0.0,0.0,0.0,0.0,0.0,0.0,0.0,0.0,0.0,0.0,0.0,0.0,0.0,0.0,0.0,0.0,0.0,0.0,0.0,0.0,0.0,0.0,0.0,0.0,0.0,0.0,0.0,0.0,0.0,0.0,0.0,0.0,0.0,0.0,0.0,0.0,0.0,0.0,0.0,0.0,0.0,0.0,0.0,0.0,0.0,0.0,0.0,0.0,0.0,0.0,0.0,0.0,0.0,0.0,0.0,0.0,0.0,0.0,0.0,0.0,0.0,0.0,0.0,0.0,0.0,0.0,0.0,0.0,0.0,0.0,0.0,0.0,0.0,0.0,0.0,0.0,0.0,0.0,0.0,0.0,0.0,0.0,0.0,0.0,0.0,0.0,0.0,0.0,0.0,0.0,0.0,0.0,0.0,0.0,0.0,0.0,0.0,0.0,0.0,0.0,0.0,0.0,0.0,0.0,0.0,0.0,0.0,0.0,0.0,0.0,0.0,0.0,0.0,0.0,0.0,0.0,0.0,0.0,0.0,0.0,0.0,0.0,0.0,0.0,0.0,0.0,0.0,0.0,0.0,0.0,0.0,0.0,0.0,0.0,0.0,0.0,0.0,0.0,0.0,0.0,0.0,0.0,0.0,0.0,0.0,0.0,0.0,0.0,0.0,0.0,0.0,0.0,0.0,0.0,0.0,0.0,0.0,0.0,0.0,0.0,0.0,0.0,0.0,0.0,0.0,0.0,0.0,0.0,0.0,0.0,0.0,0.0,0.0,0.0,0.0,0.0,0.0,0.0,0.0,0.0,0.0,0.0,0.0,0.0,0.0,0.0,0.0,0.0,0.0,0.0,0.0,0.0,0.0,0.0,0.0,0.0,0.0,0.0,0.0,0.0,0.0,0.0,0.0,0.0,0.0,0.0,0.0,0.0,0.0,0.0,0.0,0.0,0.0,0.0,0.0,0.0,0.0,0.0,0.0,0.0,0.0,0.0,0.0,0.0,0.0,0.0,0.0,0.0,0.0,0.0,0.0,0.0,0.0,0.0,0.0,0.0,0.0,0.0,0.0,0.0,0.0,0.0,0.0,0.0,0.0,0.0,0.0,0.0,0.0,0.0,0.0,0.0,0.0,0.0,0.0,0.0,0.0,0.0,0.0,0.0,0.0,0.0,0.0,0.0,0.0,0.0,0.0,0.0,0.0,0.0,0.0,0.0,0.0,0.0,0.0,0.0,0.0,0.0,0.0,0.0,0.0,0.0,0.0,0.0,0.0,0.0,0.0,0.0,0.0,0.0,0.0,0.0,0.0,0.0,0.0,0.0,0.0,0.0,0.0,0.0,0.0,0.0,0.0,0.0,0.0,0.0,0.0,0.0,0.0,0.0,0.0,0.0,0.0,0.0,0.0,0.0,0.0,0.0,0.0,0.0,0.0,0.0,0.0,0.0,0.0,0.0,0.0,0.0,0.0,0.0,0.0,0.0,0.0,0.0,0.0,0.0,0.0,0.0,0.0,0.0,0.0,0.0,0.0,0.0,0.0,0.0,0.0,0.0,0.0,0.0,0.0,0.0,0.0,0.0,0.0,0.0,0.0,0.0,0.0,0.0,0.0,0.0,0.0,0.0,0.0,0.0,0.0,0.0,0.0,0.0,0.0,0.0,0.0,0.0,0.0,0.0,0.0,0.0,0.0,0.0,0.0,0.0,0.0,0.0,0.0,0.0,0.0,0.0,0.0,0.0,0.0,0.0,0.0,0.0,0.0,0.0,0.0,0.0,0.0,0.0,0.0,0.0,0.0,0.0,0.0,0.0,0.0,0.0,0.0,0.0,0.0,0.0,0.0,0.0,0.0,0.0,0.0,0.0,0.0,0.0,0.0,0.0,0.0,0.0,0.0,0.0,0.0,0.0,0.0,0.0,0.0,0.0,0.0,0.0,0.0,0.0,0.0,0.0,0.0,0.0,0.0,0.0,0.0,0.0,0.0,0.0,0.0,0.0,0.0,0.0,0.0,0.0,0.0,0.0,0.0,0.0,0.0,0.0,0.0,0.0,0.0,0.0,0.0,0.0,0.0,0.0,0.0,0.0,0.0,0.0,0.0,0.0,0.0,0.0,0.0,0.0,0.0,0.0,0.0,0.0,0.0,0.0,0.0,0.0,0.0,0.0,0.0,0.0,0.0,0.0,0.0,0.0,0.0,0.0,0.0,0.0,0.0,0.0,0.0,0.0,0.0,0.0,0.0,0.0,0.0,0.0,0.0,0.0,0.0,0.0,0.0,0.0,0.0,0.0,0.0,0.0,0.0,0.0,0.0,0.0,0.0,0.0,0.0,0.0,0.0,0.0,0.0,0.0,0.0,0.0,0.0,0.0,0.0,0.0,0.0,0.0,0.0,0.0,0.0,0.0,0.0,0.0,0.0,0.0,0.0,0.0,0.0,0.0,0.0,0.0,0.0,0.0,0.0,0.0,0.0,0.0,0.0,0.0,0.0,0.0,0.0,0.0,0.0,0.0,0.0,0.0,0.0,0.0,0.0,0.0,0.0,0.0,0.0,0.0,0.0,0.0,0.0,0.0,0.0,0.0,0.0,0.0,0.0,0.0,0.0,0.0,0.0,0.0,0.0,0.0,0.0,0.0,0.0,0.0,0.0,0.0,0.0,0.0,0.0,0.0,0.0,0.0,0.0,0.0,0.0,0.0,0.0,0.0,0.0,0.0,0.0,0.0,0.0,0.0,0.0,0.0,0.0,0.0,0.0,0.0,0.0,0.0,0.0,0.0,0.0,0.0,0.0,0.0,0.0,0.0,0.0,0.0,0.0,0.0,0.0,0.0,0.0,0.0,0.0,0.0,0.0,0.0,0.0,0.0,0.0,0.0,0.0,0.0,0.0,0.0,0.0,0.0,0.0,0.0,0.0,0.0,0.0,0.0,0.0,0.0,0.0,0.0,0.0,0.0,0.0,0.0,0.0,0.0,0.0,0.0,0.0,0.0,0.0,0.0,0.0,0.0,0.0,0.0,0.0,0.0,0.0,0.0,0.0,0.0,0.0,0.0,0.0,0.0,0.0,0.0,0.0,0.0,0.0,0.0,0.0,0.0,0.0,0.0,0.0,0.0,0.0,0.0,0.0,0.0,0.0,0.0,0.0,0.0,0.0,0.0,0.0,0.0,0.0,0.0,0.0,0.0,0.0,0.0,0.0,0.0,0.0,0.0,0.0,0.0,0.0,0.0,0.0,0.0,0.0,0.0,0.0,0.0,0.0,0.0,0.0,0.0,0.0,0.0,0.0,0.0,0.0,0.0,0.0,0.0,0.0,0.0,0.0,0.0,0.0,0.0,0.0,0.0,0.0,0.0,0.0,0.0,0.0,0.0,0.0,0.0,0.0,0.0,0.0,0.0,0.0,0.0,0.0,0.0,0.0,0.0,0.0,0.0,0.0,0.0,0.0,0.0,0.0,0.0,0.0,0.0,0.0,0.0,0.0,0.0,0.0,0.0,0.0,0.0,0.0,0.0,0.0,0.0,0.0,0.0,0.0,0.0,0.0,0.0,0.0,0.0,0.0,0.0,0.0,0.0,0.0,0.0,0.0,0.0,0.0,0.0,0.0,0.0,0.0,0.0,0.0,0.0,0.0,0.0,0.0,0.0,0.0,0.0,0.0,0.0,0.0,0.0,0.0,0.0,0.0,0.0,0.0,0.0,0.0,0.0,0.0,0.0,0.0,0.0,0.0,0.0,0.0,0.0,0.0,0.0,0.0,0.0,0.0,0.0,0.0,0.0,0.0,0.0,0.0,0.0,0.0,0.0,0.0,0.0,0.0,0.0,0.0,0.0,0.0,0.0,0.0,0.0,0.0,0.0,0.0,0.0,0.0,0.0,0.0,0.0,0.0,0.0,0.0,0.0,0.0,0.0,0.0,0.0,0.0,0.0,0.0,0.0,0.0,0.0,0.0,0.0,0.0,0.0,0.0,0.0,0.0,0.0,0.0,-1.3741,-1.3509,0.0,0.0,0.0,0.0,0.0,0.0,0.0,0.0,0.0,0.0,0.0,0.0,0.0,0.0,0.0,0.0,0.0,0.0,0.0,0.0,0.0,0.0,0.0,0.0,0.0,0.0,0.0,0.0,0.0,0.0,0.0,0.0,0.0,0.0,0.0,0.0,0.0,0.0,0.0,0.0,0.0,0.0,0.0,0.0,0.0,0.0,0.0,0.0,0.0,0.0,0.0,0.0,0.0,0.0,0.0,0.0,0.0,0.0,0.0,0.0,0.0,0.0,0.0,0.0,0.0,0.0,0.0,0.0,0.0,0.0,0.0,0.0,0.0,0.0,0.0,0.0,0.0,0.0,0.0,0.0,0.0,0.0,0.0,0.0,0.0,0.0,0.0,0.0,0.0,0.0,0.0,0.0,0.0,0.0,0.0,0.0,0.0,0.0,0.0,0.0,0.0,0.0,0.0,0.0,0.0,0.0,0.0,0.0,0.0,0.0,0.0,0.0,0.0,0.0,-1.4074,-1.383,0.0,0.0,0.0,0.0,0.0,0.0,0.0,0.0,0.0,0.0,0.0,0.0,0.0,0.0,0.0,0.0,0.0,0.0,0.0,0.0,0.0,0.0,0.0,0.0,0.0,0.0,0.0,0.0,0.0,0.0,0.0,0.0,0.0,0.0,0.0,0.0,0.0,0.0,0.0,0.0,0.0,0.0,0.0,0.0,0.0,0.0,0.0,0.0,0.0,0.0,0.0,0.0,0.0,0.0,0.0,0.0,0.0,0.0,0.0,0.0,0.0,0.0,0.0,0.0,0.0,0.0,0.0,0.0,0.0,0.0,0.0,0.0,0.0,0.0,0.0,0.0,0.0,0.0,0.0,0.0,0.0,0.0,0.0,0.0,0.0,0.0,0.0,0.0,0.0,0.0,0.0,0.0,0.0,0.0,0.0,0.0,0.0,0.0,0.0,0.0,0.0,0.0,0.0,0.0,0.0,0.0,0.0,0.0,-2.0176,-1.9239,-1.7547,-1.7472,-1.6493,-1.4839,-1.4427,-1.4147,-1.3959,-1.3768,0.0,0.0,0.0,0.0,0.0,0.0,0.0,0.0,0.0,0.0,0.0,0.0,0.0,0.0,0.0,0.0,0.0,0.0,0.0,0.0,0.0,0.0,0.0,0.0,0.0,0.0,0.0,0.0,0.0,0.0,0.0,0.0,0.0,0.0,0.0,0.0,0.0,0.0,-0.3467,-0.3932,-0.4459,-0.5052,-0.5626,0.0,0.0,0.0,0.0,0.0,0.0,0.0,0.0,0.0,0.0,0.0,0.0,0.0,0.0,0.0,0.0,0.0,0.0,0.0,0.0,0.0,0.0,0.0,0.0,0.0,0.0,0.0,0.0,0.0,0.0,0.0,0.0,0.0,0.0,0.0,0.0,0.0,0.0,0.0,0.0,0.0,0.0,0.0,-1.7224,-1.771,0.0,0.0,0.0,0.0,0.0,0.0,0.0,0.0,0.0,0.0,0.0,0.0,0.0,-2.0428,-2.0467,-2.042,-2.0384,-2.0373,-2.0352,-1.9448,-1.7767,-1.7692,-1.6707,-1.5057,-1.4939,0.0,-1.4325,-1.4123,0.0,0.0,0.0,0.0,0.0,0.0,0.0,0.0,0.0,0.0,0.0,0.0,0.0,0.0,0.0,0.0,0.0,0.0,0.0,0.0,0.0,0.0,0.0,0.0,0.0,0.0,0.0,0.0,0.0,0.0,0.0,0.0,0.0,0.0,0.0,0.0,-0.297,-0.3294,-0.3581,-0.3993,-0.4446,-0.4966,-0.5541,-0.6339,-0.7323,-0.797,0.0,0.0,0.0,0.0,0.0,0.0,0.0,0.0,0.0,0.0,0.0,0.0,0.0,0.0,0.0,0.0,0.0,0.0,0.0,0.0,0.0,0.0,0.0,0.0,0.0,0.0,0.0,0.0,0.0,0.0,0.0,0.0,0.0,0.0,0.0,0.0,0.0,0.0,0.0,-1.647,-1.7052,-1.7479,-1.7866,-1.8229,0.0,0.0,0.0,0.0,0.0,0.0,0.0,0.0,0.0,-2.0225,-2.0269,-2.0324,-2.038,-2.0367,-2.0363,-2.039,-1.9901,-1.9034,-1.7847,-1.7321,-1.6392,-1.5209,-1.5134,-1.496,-1.4727,-1.4486,-1.4208,-1.3959,0.0,0.0,0.0,0.0,-1.2276,-1.1861,0.0,0.0,0.0,0.0,0.0,0.0,0.0,0.0,0.0,0.0,0.0,0.0,0.0,0.0,0.0,-0.188,0.0,0.0,0.0,0.0,0.0,0.0,0.0,0.0,0.0,0.0,0.0,0.0,-0.3247,-0.3455,-0.3649,-0.4,-0.4426,-0.4832,-0.54,-0.6129,-0.6973,-0.7607,-0.8309,0.0,0.0,0.0,0.0,0.0,0.0,0.0,0.0,0.0,0.0,0.0,0.0,0.0,0.0,0.0,0.0,0.0,0.0,0.0,0.0,0.0,0.0,0.0,0.0,0.0,0.0,0.0,0.0,0.0,0.0,0.0,0.0,0.0,0.0,0.0,0.0,0.0,0.0,-1.6448,-1.6799,-1.7224,-1.7572,-1.7932,0.0,0.0,0.0,0.0,0.0,0.0,-1.9556,-1.968,-1.9815,-1.9974,-2.0037,-2.01,-2.0173,-2.0197,-2.025,-2.0313,-1.9467,-1.8631,-1.7825,-1.6952,-1.611,-1.5291,-1.5243,-1.5168,-1.5064,-1.4791,-1.4526,-1.4283,-1.402,-1.3721,-1.3377,-1.3002,-1.2597,-1.2195,0.0,0.0,0.0,0.0,0.0,0.0,0.0,0.0,0.0,0.0,0.0,0.0,0.0,0.0,-0.2294,-0.2366,-0.2265,-0.2153,0.0,0.0,0.0,0.0,0.0,0.0,0.0,0.0,0.0,-0.282,-0.3127,-0.3435,-0.3704,-0.4033,-0.4424,-0.4831,-0.5303,-0.5899,-0.6586,-0.7175,-0.7765,-0.83,0.0,0.0,0.0,0.0,0.0,0.0,0.0,0.0,0.0,0.0,0.0,0.0,0.0,0.0,0.0,0.0,0.0,0.0,0.0,0.0,0.0,0.0,0.0,0.0,0.0,0.0,0.0,0.0,0.0,0.0,0.0,0.0,0.0,0.0,0.0,0.0,0.0,0.0,0.0,-1.6885,-1.7272,0.0,0.0,0.0,0.0,-1.8604,-1.8825,-1.9014,-1.9206,-1.9291,-1.943,-1.9613,-1.9693,-1.9768,-1.9829,-1.9888,-1.999,-2.0119,-1.9297,-1.8496,-1.768,-1.6866,-1.6068,-1.5307,-1.5293,-1.5281,-1.5268,-1.4993,-1.4764,-1.4563,-1.4349,-1.4056,-1.3731,-1.3393,-1.3019,-1.2597,0.0,0.0,0.0,0.0,0.0,0.0,0.0,0.0,0.0,0.0,0.0,0.0,0.0,-0.2766,-0.276,-0.2731,-0.2582,-0.2532,-0.252,0.0,0.0,0.0,0.0,0.0,0.0,0.0,-0.2986,-0.3074,-0.3331,-0.3531,-0.3626,-0.3972,-0.4219,-0.4368,-0.467,-0.5014,-0.5491,-0.6435,-0.707,-0.7474,-0.7807,-0.8177,0.0,0.0,0.0,0.0,0.0,0.0,0.0,0.0,0.0,0.0,0.0,0.0,0.0,0.0,0.0,0.0,0.0,0.0,0.0,0.0,0.0,0.0,0.0,0.0,0.0,0.0,0.0,0.0,0.0,0.0,0.0,0.0,0.0,0.0,0.0,0.0,0.0,-1.6686,-1.6952,0.0,-1.7549,-1.7732,-1.7936,-1.8211,-1.8353,-1.8529,-1.8681,-1.8735,-1.8855,-1.9022,-1.9118,-1.9206,-1.9271,-1.9378,-1.9245,-1.8787,-1.8039,-1.73,-1.6574,-1.5818,-1.5352,-1.5171,-1.5221,-1.5257,-1.5293,-1.52,-1.5033,-1.4841,-1.4642,-1.4389,-1.4085,-1.3792,-1.3426,-1.3037,0.0,0.0,0.0,0.0,0.0,0.0,0.0,0.0,0.0,0.0,0.0,-0.3227,-0.3234,-0.3141,-0.3098,-0.3119,-0.2958,-0.2864,-0.2857,0.0,0.0,0.0,0.0,0.0,0.0,-0.299,-0.3034,-0.3126,-0.335,-0.3442,-0.3486,-0.3751,-0.3888,-0.3888,-0.4056,-0.4276,-0.4491,-0.5399,-0.6087,-0.6641,-0.6972,-0.7266,-0.7599,0.0,0.0,0.0,0.0,0.0,0.0,0.0,0.0,0.0,0.0,0.0,0.0,0.0,0.0,0.0,0.0,0.0,0.0,0.0,0.0,0.0,0.0,0.0,0.0,0.0,0.0,0.0,0.0,0.0,0.0,0.0,0.0,0.0,0.0,-1.5769,-1.608,-1.6382,-1.6607,-1.685,-1.7142,-1.7264,-1.7439,-1.7676,-1.7788,-1.7919,-1.8017,-1.8087,-1.8208,-1.8362,-1.846,-1.843,-1.8288,-1.8405,-1.8099,-1.7412,-1.6691,-1.6151,-1.5737,-1.501,-1.4766,-1.4901,-1.5028,-1.5123,-1.5193,-1.5241,-1.5185,-1.5047,-1.4866,-1.4663,-1.4449,-1.4167,-1.3832,-1.3474,0.0,0.0,0.0,0.0,0.0,0.0,0.0,0.0,0.0,0.0,-0.3583,-0.361,-0.389,-0.3562,-0.3415,-0.3565,-0.3353,-0.3214,-0.3214,-0.3078,0.0,0.0,0.0,0.0,-0.2912,-0.2948,-0.299,-0.299,-0.3126,-0.317,-0.3214,-0.3306,-0.3398,-0.3398,-0.3568,-0.3656,-0.3697,-0.4096,-0.4836,-0.5744,-0.6124,-0.6422,-0.6725,0.0,0.0,0.0,0.0,0.0,0.0,0.0,0.0,0.0,0.0,0.0,0.0,0.0,0.0,0.0,0.0,0.0,0.0,0.0,0.0,0.0,0.0,0.0,0.0,0.0,0.0,0.0,0.0,0.0,0.0,0.0,0.0,0.0,-1.4977,-1.5448,-1.5722,-1.6006,-1.62,-1.6401,-1.6606,-1.6674,-1.6786,-1.6995,-1.7061,-1.7142,-1.7202,-1.7266,-1.7399,-1.7603,-1.7603,-1.7356,-1.6826,-1.6889,-1.6621,-1.6024,-1.5376,-1.5121,-1.5216,-1.4563,-1.4331,-1.4491,-1.4689,-1.484,-1.4989,-1.5128,-1.5187,-1.5173,-1.5055,-1.4934,-1.4773,-1.4505,-1.4235,-1.3902,0.0,0.0,0.0,0.0,0.0,0.0,0.0,0.0,0.0,0.0,-0.3875,-0.3902,-0.3947,-0.3999,-0.3916,-0.3697,-0.3575,-0.3442,-0.335,0.0,0.0,0.0,0.0,0.0,-0.2912,-0.2909,-0.2909,-0.2909,-0.2954,-0.2998,-0.2998,-0.2998,-0.3043,-0.3043,-0.3087,-0.3129,-0.3211,-0.33,-0.3693,-0.4264,-0.5043,-0.548,-0.5733,0.0,0.0,0.0,0.0,0.0,0.0,0.0,0.0,0.0,0.0,0.0,0.0,0.0,0.0,0.0,0.0,0.0,0.0,0.0,0.0,0.0,0.0,0.0,0.0,0.0,0.0,0.0,0.0,0.0,0.0,0.0,-1.1533,-1.217,-1.35,-1.3849,-1.4065,-1.4333,-1.4438,-1.4592,-1.4804,-1.4829,-1.4903,-1.5058,-1.5082,-1.5114,-1.5114,-1.5184,-1.5247,-1.5317,-1.535,-1.5304,-1.5158,-1.527,-1.5023,-1.4366,-1.4266,-1.4023,-1.3631,-1.36,-1.3704,-1.3922,-1.4132,-1.4352,-1.4578,-1.4753,-1.4914,-1.5059,-1.511,-1.5082,-1.501,-1.4829,-1.4491,-1.4098,0.0,0.0,0.0,0.0,0.0,0.0,0.0,0.0,0.0,0.0,-0.4271,-0.428,-0.427,-0.4297,-0.4188,-0.388,-0.3751,-0.3619,-0.3527,0.0,0.0,0.0,0.0,-0.2948,-0.2912,-0.2868,-0.2821,-0.2821,-0.2776,-0.2687,-0.264,-0.264,-0.2598,-0.2556,-0.2556,-0.2598,-0.2637,-0.2679,-0.2857,-0.312,-0.3781,-0.4351,-0.4831,-0.5178,-0.5351,-0.548,-0.5787,-0.6007,-0.6136,-0.6349,0.0,0.0,0.0,0.0,0.0,0.0,0.0,0.0,0.0,0.0,0.0,0.0,0.0,0.0,0.0,0.0,0.0,0.0,0.0,0.0,0.0,0.0,0.0,0.0,-1.0689,-1.1057,-1.1813,-1.2602,-1.3168,-1.3394,-1.3432,-1.3535,-1.3755,-1.3755,-1.378,-1.3865,-1.3865,-1.385,-1.3835,-1.3845,-1.3869,-1.3869,-1.3883,-1.3763,-1.3458,-1.3552,-1.3297,-1.2663,-1.278,-1.2724,-1.2463,-1.2687,-1.2955,-1.3259,-1.3474,-1.376,-1.4047,-1.433,-1.4578,-1.4773,0.0,0.0,0.0,0.0,-1.4725,-1.4421,0.0,0.0,0.0,0.0,0.0,0.0,0.0,0.0,0.0,0.0,0.0,-0.4702,-0.4639,-0.4447,-0.4276,-0.4152,-0.388,-0.3744,0.0,0.0,0.0,-0.3034,-0.3034,-0.2993,-0.2912,-0.2776,-0.2687,-0.2687,-0.2551,-0.2415,-0.2281,-0.2235,-0.2148,-0.2064,-0.202,-0.202,-0.202,-0.2148,-0.219,-0.2235,-0.2462,-0.3126,-0.4001,-0.4312,-0.4443,-0.4526,-0.4836,-0.514,-0.5404,-0.5545,0.0,0.0,0.0,0.0,0.0,0.0,0.0,0.0,0.0,0.0,0.0,0.0,0.0,0.0,0.0,0.0,0.0,0.0,0.0,0.0,0.0,0.0,0.0,0.0,-0.9919,-1.0085,-1.0199,-1.1508,-1.2526,-1.2688,-1.2713,-1.2793,-1.2953,-1.2927,-1.2901,-1.2953,-1.2901,-1.2874,-1.2848,-1.2779,0.0,0.0,0.0,-1.2404,-1.1752,-1.1802,-1.1545,-1.1033,-1.1164,-1.1344,-1.1534,-1.1812,-1.2106,-1.246,-1.2727,-1.3042,-1.3413,-1.3813,-1.412,-1.4426,-1.4961,-1.5188,-1.5176,-1.5054,-1.4937,-1.4804,0.0,0.0,0.0,0.0,0.0,0.0,0.0,0.0,0.0,-0.4813,-0.4813,-0.4832,-0.4913,-0.4709,-0.4447,-0.4276,-0.4104,-0.3928,0.0,0.0,-0.3442,-0.317,-0.317,-0.3084,-0.2912,-0.2776,-0.2687,-0.2687,-0.242,-0.2243,-0.2199,-0.1882,-0.1703,-0.1703,-0.1569,-0.1524,-0.1524,-0.1567,-0.1657,-0.1746,-0.1792,-0.2324,-0.3164,-0.3388,-0.3609,-0.3825,-0.4041,-0.4308,-0.4578,-0.4888,-0.5101,-0.5313,-0.5712,0.0,0.0,0.0,0.0,0.0,0.0,0.0,0.0,0.0,0.0,0.0,0.0,0.0,0.0,0.0,0.0,0.0,0.0,0.0,0.0,-0.9393,-0.9579,-0.971,-0.9749,-1.0067,-1.0456,-1.0932,-1.0957,-1.0944,-1.1019,-1.098,-1.0917,-1.0892,-1.0867,-1.0791,-1.0625,-1.0612,-1.0547,-1.0431,-1.0431,-1.0315,-1.0071,-1.0071,-1.0046,-0.9982,-1.0119,0.0,-1.0514,-1.0763,-1.1096,-1.149,-1.1803,-1.2199,-1.2637,-1.3059,-1.3581,-1.4226,-1.4808,-1.5073,-1.5112,-1.5156,-1.5108,-1.5027,0.0,0.0,0.0,0.0,0.0,0.0,0.0,0.0,0.0,0.0,-0.5029,-0.5117,-0.5019,-0.4893,-0.467,-0.4408,-0.4196,0.0,0.0,-0.366,-0.3527,-0.3306,-0.3214,-0.3129,-0.2951,-0.2729,-0.2551,-0.2504,-0.2241,-0.202,-0.1794,-0.1614,-0.1478,-0.1389,-0.1344,-0.13,-0.1257,-0.1257,-0.1302,-0.1346,-0.1346,-0.1612,-0.2055,-0.2499,-0.2721,-0.2896,-0.3249,-0.3561,-0.3788,-0.4092,-0.4399,-0.4705,-0.4975,-0.5236,-0.5508,0.0,0.0,0.0,0.0,0.0,0.0,0.0,0.0,0.0,0.0,0.0,0.0,0.0,0.0,-0.8365,-0.8578,0.0,-0.8933,-0.9003,-0.9128,-0.9262,-0.9262,-0.9301,-0.954,-1.0085,-1.0072,-1.0021,-1.0085,-0.997,-0.988,-0.9855,-0.9727,-0.9597,-0.9451,-0.9372,-0.9277,-0.9104,-0.9093,-0.9012,-0.8799,-0.8799,-0.8815,-0.8896,-0.9008,-0.9195,-0.9456,-0.9728,-1.0058,-1.0427,-1.0819,-1.1262,-1.1746,-1.2409,-1.3042,-1.3602,-1.4077,-1.4546,-1.4966,-1.5061,-1.5073,-1.5057,0.0,0.0,0.0,0.0,0.0,0.0,0.0,0.0,0.0,0.0,-0.5291,-0.541,-0.5072,-0.5029,-0.4854,0.0,0.0,0.0,0.0,-0.37,-0.3612,-0.3398,-0.3262,-0.3126,-0.299,-0.2682,-0.2415,-0.2279,-0.2061,-0.1749,-0.1389,-0.1389,-0.1299,-0.1165,-0.1031,-0.0942,-0.09,-0.09,-0.09,-0.09,-0.09,-0.0898,-0.094,-0.152,-0.1832,-0.201,-0.2499,-0.2812,-0.3034,-0.3344,-0.3697,-0.4052,-0.4232,-0.4578,-0.4971,-0.5127,-0.5292,0.0,0.0,0.0,0.0,0.0,0.0,0.0,0.0,-0.7214,-0.748,-0.7676,-0.7879,-0.807,-0.8241,-0.8421,-0.8544,-0.8589,-0.8706,-0.8805,-0.8778,-0.8828,-0.9019,-0.9434,-0.9461,-0.9473,-0.9514,-0.9343,-0.9209,-0.9182,-0.8942,-0.8767,-0.8657,-0.8529,-0.8344,-0.8145,-0.8145,-0.7993,-0.7724,-0.7724,-0.7743,-0.7819,-0.7876,-0.8076,-0.8385,-0.8662,-0.8977,-0.9351,-0.9919,-1.0441,-1.095,-1.1809,-1.2377,-1.2802,-1.3142,-1.3752,-1.4476,-1.4763,-1.4882,-1.4907,0.0,0.0,0.0,0.0,0.0,0.0,0.0,0.0,0.0,0.0,0.0,0.0,0.0,0.0,0.0,0.0,0.0,0.0,-0.388,-0.3744,-0.3612,-0.3398,-0.3262,-0.3126,-0.299,-0.2682,-0.2415,-0.2279,-0.1971,-0.1658,-0.1389,-0.1299,-0.1166,-0.0989,-0.0404,-0.0135,-0.0135,-0.0135,-0.0135,-0.0135,-0.0135,-0.0135,-0.0135,-0.0359,-0.0852,-0.1523,-0.1837,-0.2059,-0.2277,-0.2682,-0.2948,-0.3211,-0.3653,-0.4052,-0.4452,-0.4684,-0.4867,-0.4979,-0.4957,-0.514,-0.5404,-0.578,-0.6098,-0.6399,0.0,-0.6867,-0.7136,-0.7373,-0.7559,-0.7705,-0.785,-0.8062,-0.8244,-0.8244,-0.8365,-0.8439,-0.8365,-0.8365,-0.8375,-0.8375,-0.8662,-0.8899,-0.8899,-0.8734,-0.854,-0.8421,-0.8231,-0.8021,-0.7849,-0.7666,-0.7453,-0.7266,-0.7187,-0.7029,-0.6764,-0.6764,-0.6764,-0.6764,-0.6832,-0.702,-0.7286,-0.755,-0.7895,-0.8329,-0.9271,-0.997,-1.0514,-1.1019,-1.1505,-1.1974,-1.2374,-1.2765,-1.3223,-1.4059,-1.4437,-1.4575,0.0,0.0,0.0,0.0,0.0,0.0,0.0,0.0,0.0,0.0,0.0,0.0,0.0,0.0,0.0,0.0,0.0,0.0,-0.402,-0.388,-0.3744,-0.3568,-0.3347,-0.317,-0.3126,-0.2726,-0.2417,-0.2196,-0.1837,-0.1524,-0.1208,-0.1121,-0.0853,-0.0405,-0.0135,0.0225,0.0629,0.0629,0.0629,0.0629,0.0629,0.0629,0.0629,0.0315,-0.0,-0.0359,-0.103,-0.1387,0.0,0.0,-0.237,-0.2679,-0.3084,-0.3524,-0.3908,-0.4092,-0.4341,-0.458,-0.4632,-0.482,-0.5093,-0.5435,-0.5749,-0.606,-0.626,-0.6504,-0.6786,-0.7005,-0.7145,-0.7285,-0.7432,-0.7618,-0.7734,-0.7773,-0.7831,-0.785,-0.7831,-0.7753,-0.7715,-0.7695,-0.7715,-0.7907,-0.8231,-0.807,-0.7869,-0.7715,-0.7481,-0.7246,-0.702,-0.6781,-0.654,-0.6344,-0.6206,-0.6045,-0.586,-0.5767,-0.5736,-0.5736,-0.5836,-0.6021,-0.6236,-0.6532,-0.7061,-0.7743,-0.843,-0.9031,-0.9572,-1.0083,-1.0559,-1.1036,-1.1483,-1.1851,-1.2277,-1.3363,-1.3873,-1.4004,0.0,0.0,0.0,0.0,0.0,0.0,0.0,0.0,0.0,0.0,0.0,0.0,0.0,0.0,0.0,0.0,0.0,0.0,0.0,-0.4056,-0.3921,-0.37,-0.3435,-0.3262,-0.3214,-0.2773,-0.2417,-0.2152,-0.1837,-0.1478,-0.1164,-0.1078,-0.0674,-0.0,0.0225,0.0584,0.1079,0.1078,0.1123,0.1168,0.1168,0.1168,0.1123,0.0853,0.0674,0.0494,-0.0448,-0.0896,0.0,0.0,-0.1791,-0.2146,-0.2551,-0.297,-0.3367,-0.3471,-0.3784,-0.4115,-0.4301,-0.4505,-0.4704,-0.5087,-0.5404,-0.5672,-0.5882,-0.6145,-0.6368,-0.6551,-0.6725,-0.6837,-0.6987,-0.7107,-0.7196,-0.7235,-0.7264,-0.7264,-0.7244,-0.7136,-0.7068,-0.7059,-0.6859,-0.6889,-0.7334,-0.7294,-0.7175,-0.7038,-0.6747,-0.6474,-0.6213,-0.5937,-0.5665,-0.546,-0.5251,-0.5086,-0.4935,-0.4814,-0.4782,-0.4782,-0.4871,-0.5061,-0.5282,-0.572,-0.6328,-0.7091,-0.7598,-0.8086,-0.8629,-0.9177,-0.9664,-1.0108,-1.0572,-1.095,-1.1351,-1.2342,-1.294,-1.3305,0.0,0.0,0.0,0.0,0.0,0.0,0.0,0.0,0.0,0.0,0.0,0.0,0.0,0.0,0.0,0.0,0.0,0.0,0.0,-0.4272,-0.4096,-0.37,-0.3619,-0.3486,-0.3214,-0.2862,-0.2551,-0.2279,-0.1971,-0.1614,-0.1299,-0.1168,-0.0719,0.0045,0.0764,0.1034,0.099,0.1076,0.1164,0.1299,0.1299,0.1299,0.1299,0.1299,0.1164,0.0851,-0.0135,0.0,0.0,0.0,-0.1208,-0.1523,-0.1966,-0.2389,-0.2747,-0.2968,-0.3273,-0.3611,-0.3928,-0.4118,-0.4307,-0.471,-0.4953,-0.5201,-0.546,-0.5686,-0.5866,-0.6068,-0.6237,-0.6376,-0.649,-0.6573,-0.6626,-0.6626,-0.6669,-0.67,-0.6626,-0.6573,-0.6482,-0.6443,-0.6199,-0.6052,-0.6052,-0.6337,-0.646,-0.6345,-0.6029,-0.571,-0.5446,-0.5106,-0.4858,-0.4634,-0.4371,-0.4178,-0.4053,-0.3956,-0.3923,-0.3923,-0.3988,-0.4178,-0.4456,-0.5124,-0.572,-0.6259,-0.679,-0.7325,-0.7868,-0.8406,-0.8865,-0.9271,-0.9689,-1.0045,-1.0368,-1.0739,-1.1548,-1.2476,0.0,0.0,0.0,0.0,0.0,0.0,0.0,0.0,0.0,0.0,0.0,0.0,0.0,0.0,0.0,0.0,0.0,0.0,0.0,-0.436,-0.4228,-0.4096,-0.3796,-0.3578,-0.3486,-0.3046,-0.2687,-0.2415,-0.2016,-0.1614,-0.1299,-0.0988,-0.0539,0.0045,0.0764,0.1078,0.1076,0.1254,0.1389,0.1523,0.1614,0.1614,0.1614,0.1524,0.1389,0.1208,0.0,0.0,0.0,0.0,-0.0807,-0.103,-0.1477,-0.1913,-0.2316,-0.2778,-0.3003,-0.32,-0.356,-0.3761,-0.3961,-0.4312,-0.4596,-0.482,-0.5119,-0.5309,-0.5498,-0.5602,-0.5797,-0.5967,-0.6029,-0.6114,-0.6206,-0.6206,-0.6191,-0.6152,-0.6129,-0.6006,-0.589,-0.5797,-0.5648,-0.5498,-0.5334,-0.5648,-0.5773,-0.5655,-0.5327,-0.4973,-0.4622,-0.4296,-0.4043,-0.3886,-0.3523,-0.3327,-0.3266,-0.3171,-0.3138,-0.3163,-0.3495,-0.3826,-0.4145,-0.459,-0.5099,-0.5641,-0.6068,-0.6548,-0.7059,-0.7637,-0.8096,-0.8452,-0.8903,-0.9242,-0.9534,-0.9894,-1.0319,-1.0856,0.0,0.0,0.0,0.0,0.0,0.0,0.0,0.0,0.0,0.0,0.0,0.0,0.0,0.0,0.0,0.0,0.0,-0.4932,0.0,0.0,-0.4495,-0.4364,-0.406,-0.3796,-0.3619,-0.3265,-0.2954,-0.264,-0.2194,-0.1792,-0.1389,-0.1032,-0.0539,0.0045,0.0674,0.0988,0.1119,0.1299,0.1523,0.1703,0.1839,0.1884,0.1884,0.1794,0.1614,0.0,0.0,0.0,0.0,-0.0,-0.0359,-0.067,-0.1057,-0.1472,-0.2008,-0.246,-0.2679,-0.2838,-0.32,-0.3405,-0.3639,-0.3956,-0.4215,-0.4473,-0.4762,-0.4922,-0.5049,-0.5201,-0.5365,-0.5491,-0.5498,-0.5585,-0.5648,-0.5648,-0.5609,-0.5578,-0.5578,-0.5421,-0.5295,-0.5246,-0.5049,-0.4858,-0.4698,-0.4794,-0.489,-0.489,-0.459,-0.4264,-0.3881,-0.3551,-0.329,-0.3134,-0.2805,-0.2606,-0.2573,-0.2477,-0.2477,-0.2636,-0.3035,-0.3401,-0.3733,-0.4053,-0.45,-0.5049,-0.5446,-0.5882,-0.6405,-0.6969,-0.7384,-0.7715,-0.8184,-0.854,-0.881,-0.9131,-0.9357,-0.9661,0.0,0.0,0.0,0.0,0.0,0.0,0.0,0.0,0.0,0.0,0.0,0.0,0.0,0.0,0.0,0.0,0.0,0.0,0.0,0.0,0.0,-0.4548,-0.4408,-0.414,-0.3741,-0.3527,-0.3265,-0.2912,-0.2504,-0.2057,-0.1614,-0.1254,-0.0717,-0.0,0.0494,0.0853,0.1119,0.1299,0.1569,0.1794,0.1928,0.202,0.202,0.202,0.0,0.0,0.0,0.0,0.0,0.0584,-0.0,-0.0534,-0.0681,-0.1142,-0.1727,-0.2013,-0.2278,-0.2543,-0.2801,-0.3072,-0.3344,-0.3607,-0.3831,-0.4053,-0.4403,-0.4462,-0.4558,-0.482,-0.489,-0.489,-0.496,-0.496,-0.496,-0.496,-0.496,-0.496,-0.496,-0.4838,-0.4748,-0.4742,-0.4409,-0.414,-0.4075,-0.3826,-0.3798,-0.4081,-0.3849,-0.3551,-0.3261,-0.2929,-0.2669,-0.2474,-0.2181,-0.2017,-0.1947,-0.1914,-0.2011,-0.2272,-0.2547,-0.2845,-0.3175,-0.3536,-0.3956,-0.4494,-0.4909,-0.5383,-0.5913,-0.6449,-0.6829,-0.7125,-0.7588,-0.7927,-0.8202,-0.8477,-0.8634,-0.8899,0.0,0.0,0.0,0.0,0.0,0.0,0.0,0.0,0.0,0.0,0.0,0.0,0.0,0.0,0.0,0.0,0.0,0.0,0.0,0.0,0.0,0.0,0.0,0.0,0.0,0.0,0.0,0.0,0.0,-0.2192,-0.1748,-0.1254,-0.0807,-0.036,0.027,0.0718,0.103,0.1299,0.1569,0.1794,0.0,0.2064,0.2154,0.0,0.0,0.0,0.0,0.0,0.1075,0.0718,0.0088,-0.0595,-0.0732,-0.111,-0.151,-0.1739,-0.1978,-0.2247,-0.254,-0.2775,-0.3014,-0.3311,-0.3504,-0.3728,-0.4053,-0.4118,-0.4183,-0.4409,-0.4505,-0.4543,-0.4543,-0.4602,-0.4628,-0.4628,-0.457,-0.4511,-0.4403,-0.4318,-0.4194,-0.3999,-0.3896,-0.3733,-0.3467,-0.3233,-0.3068,-0.2937,-0.3032,-0.2966,-0.2636,-0.2374,-0.2078,-0.184,-0.1613,-0.1481,-0.1412,-0.1445,-0.1577,-0.1773,-0.2111,-0.2483,-0.2915,-0.3233,-0.3691,-0.4221,-0.4672,-0.5112,-0.5571,-0.606,-0.6435,-0.6777,-0.7196,-0.75,-0.7705,-0.7984,-0.8156,-0.8354,0.0,0.0,0.0,0.0,0.0,0.0,0.0,0.0,0.0,0.0,0.0,0.0,0.0,0.0,0.0,0.0,0.0,0.0,0.0,0.0,0.0,0.0,0.0,0.0,0.0,0.0,0.0,0.0,0.0,0.0,0.0,-0.1523,-0.1031,-0.0583,-0.009,0.0359,0.0807,0.1165,0.0,0.0,0.0,0.0,0.0,0.0,0.0,0.0,0.0,0.0,0.1077,0.0809,0.0216,-0.0448,-0.0713,-0.0971,-0.1223,-0.1526,-0.1747,-0.1978,-0.2245,-0.248,-0.2746,-0.3014,-0.3208,-0.3401,-0.3695,-0.3793,-0.3826,-0.3993,-0.4058,-0.4096,-0.4096,-0.4123,-0.4145,-0.4145,-0.4118,-0.4058,-0.3956,-0.3891,-0.3733,-0.3508,-0.3405,-0.3237,-0.2907,-0.2739,-0.2537,-0.2245,-0.2408,-0.2374,-0.2109,-0.1847,-0.1613,-0.1477,-0.1311,-0.1145,-0.0976,-0.1076,-0.1244,-0.1477,-0.1847,-0.2247,-0.2679,-0.3035,-0.3495,-0.4026,-0.4479,-0.4884,-0.532,-0.582,-0.6199,-0.6513,-0.6876,-0.7154,-0.7362,-0.7598,-0.7792,-0.7937,0.0,0.0,0.0,0.0,0.0,0.0,0.0,0.0,0.0,0.0,0.0,0.0,0.0,0.0,0.0,0.0,0.0,0.0,0.0,0.0,0.0,0.0,0.0,0.0,0.0,0.0,0.0,0.0,0.0,0.0,0.0,0.0,0.0,0.0,0.0,0.0,0.0,0.0,0.0,0.0,0.0,0.0,0.0,0.0,0.0,0.0,0.0,0.0,0.1034,0.0764,0.0297,-0.0196,-0.0628,-0.0807,-0.0976,-0.1348,-0.1579,-0.1742,-0.2014,-0.2247,-0.251,-0.2712,-0.2911,-0.3105,-0.3368,-0.3429,-0.3467,-0.3602,-0.3639,-0.3639,-0.3639,-0.3639,-0.3639,-0.3639,-0.3639,-0.3602,-0.3532,-0.3467,-0.3335,-0.3142,-0.2937,-0.2739,-0.2444,-0.2308,-0.2109,-0.1847,-0.188,-0.1845,-0.1678,-0.1412,-0.1246,-0.1212,-0.1076,-0.0875,-0.0672,-0.0808,-0.1009,-0.1279,-0.168,-0.2078,-0.251,-0.2907,-0.3368,-0.3918,-0.4333,-0.4718,-0.5131,-0.5665,-0.6052,-0.6345,-0.6659,-0.6924,-0.7125,-0.7322,-0.7529,-0.7695,0.0,0.0,0.0,0.0,0.0,0.0,0.0,0.0,0.0,0.0,-0.6344,-0.6623,0.0,0.0,0.0,0.0,0.0,0.0,0.0,0.0,0.0,0.0,0.0,0.0,0.0,-0.5014,-0.4661,-0.4184,-0.3741,0.0,0.0,0.0,0.0,0.0,0.0,0.0,0.0,0.0,0.0,0.0,0.0,0.0,0.0,0.0,0.0,0.0,0.0,0.1121,0.0,0.0,0.0127,-0.0314,-0.0511,-0.0697,-0.0942,-0.1179,-0.141,-0.1676,-0.1947,-0.2081,-0.2214,-0.2477,-0.2679,-0.2812,-0.297,-0.3101,-0.3204,-0.3274,-0.3274,-0.3274,-0.3274,-0.3274,-0.3274,-0.3274,-0.3274,-0.3241,-0.3035,-0.2999,-0.2904,-0.2639,-0.254,-0.2374,-0.2114,-0.1909,-0.1678,-0.1414,-0.1414,-0.1414,-0.1447,-0.1246,-0.0976,-0.0639,-0.0504,-0.0437,-0.0437,-0.0639,-0.0875,-0.1145,-0.1477,-0.1907,-0.2441,-0.2772,-0.3298,-0.3918,-0.4333,-0.4718,-0.5131,-0.5617,-0.5998,-0.6345,-0.6659,-0.6893,-0.7047,-0.7312,-0.747,-0.7549,0.0,0.0,0.0,0.0,0.0,0.0,0.0,-0.5591,-0.586,-0.6156,-0.654,-0.6791,-0.6816,-0.6793,-0.6787,0.0,0.0,0.0,0.0,0.0,0.0,0.0,0.0,0.0,0.0,-0.5404,-0.5053,-0.4661,0.0,-0.3744,-0.3262,-0.2771,-0.2237,-0.1744,-0.1253,-0.0806,-0.0359,0.0,0.0,0.0,0.1075,0.1254,0.0,0.0,0.0,0.0,0.0,0.0,0.0,0.0,-0.0042,-0.0354,-0.0589,-0.0734,-0.0908,-0.1179,-0.1345,-0.151,-0.1778,-0.1947,-0.2081,-0.2247,-0.2414,-0.2577,-0.2742,-0.2841,-0.2907,-0.3039,-0.3039,-0.3039,-0.3039,-0.3039,-0.3039,-0.3039,-0.301,-0.2944,-0.2808,-0.2739,-0.2606,-0.2311,-0.2278,-0.2111,-0.1811,-0.1611,-0.1412,-0.1212,-0.1076,-0.1043,-0.1145,-0.0739,-0.0437,-0.0235,-0.0168,-0.0202,-0.0303,-0.0605,-0.0875,-0.1111,-0.1477,-0.1907,-0.2408,-0.2871,-0.3401,-0.3988,-0.4441,-0.4884,-0.5289,-0.5742,-0.6091,-0.6437,-0.669,-0.6924,-0.7136,-0.7235,-0.7392,-0.7569,0.0,0.0,0.0,0.0,0.0,0.0,0.0,-0.5732,-0.6061,-0.6477,-0.6694,-0.6911,-0.7085,-0.7041,-0.7041,0.0,0.0,0.0,0.0,0.0,0.0,0.0,0.0,0.0,0.0,0.0,0.0,-0.514,-0.4666,0.0,0.0,0.0,0.0,0.0,-0.1744,-0.1298,-0.0805,-0.0359,0.0,0.0,0.0,0.0941,0.0,0.0,0.0,0.0,0.0,0.0945,0.0764,0.018,-0.0171,-0.0478,-0.0749,-0.0807,-0.0875,-0.1179,-0.1279,-0.1346,-0.1611,-0.1845,-0.1981,-0.2047,-0.2247,-0.2411,-0.2613,-0.2646,-0.2679,-0.2838,-0.2871,-0.2871,-0.2871,-0.2871,-0.2838,-0.2801,-0.2779,-0.2716,-0.2616,-0.2513,-0.2344,-0.2114,-0.2014,-0.188,-0.1611,-0.1378,-0.1212,-0.1076,-0.0739,-0.0605,-0.0706,-0.0202,0.0101,0.0101,0.0101,-0.0,-0.0202,-0.0605,-0.0908,-0.1111,-0.1544,-0.2009,-0.2477,-0.3006,-0.3569,-0.4123,-0.4614,-0.5087,-0.5515,-0.5897,-0.6276,-0.659,-0.6781,-0.7005,-0.7235,-0.7285,-0.7432,-0.7618,0.0,0.0,0.0,0.0,0.0,0.0,0.0,-0.5519,-0.5807,-0.6507,-0.6607,-0.6933,-0.7721,-0.7545,-0.7377,0.0,0.0,0.0,0.0,0.0,0.0,0.0,0.0,0.0,0.0,0.0,0.0,-0.5636,-0.5188,0.0,0.0,0.0,0.0,0.0,0.0,-0.1787,-0.1299,-0.0851,0.0,0.0,0.0,0.0,0.0,0.0,0.0,0.0,0.0,0.0674,0.009,0.0045,-0.0392,-0.0873,-0.0957,-0.088,-0.0841,-0.1145,-0.1246,-0.1346,-0.1611,-0.1811,-0.1914,-0.1981,-0.215,-0.2317,-0.2408,-0.2474,-0.2543,-0.2679,-0.2712,-0.2712,-0.2712,-0.2712,-0.2679,-0.2543,-0.2543,-0.248,-0.2353,-0.2217,-0.2114,-0.2014,-0.1811,-0.1611,-0.1514,-0.1279,-0.1076,-0.0942,-0.0403,-0.0067,-0.0067,0.0269,0.0471,0.0471,0.0471,0.0235,-0.0202,-0.0605,-0.0942,-0.1212,-0.1644,-0.2145,-0.2679,-0.3237,-0.3793,-0.4382,-0.48,-0.5277,-0.578,-0.6122,-0.6468,-0.6781,-0.6984,-0.7193,-0.7381,-0.75,-0.7627,-0.7695,0.0,0.0,0.0,0.0,0.0,0.0,-0.5725,-0.5756,-0.6014,-0.673,-0.6848,-0.7138,-0.787,-0.7821,-0.778,-0.778,0.0,0.0,0.0,0.0,0.0,0.0,0.0,0.0,0.0,0.0,-0.6349,-0.6013,-0.5626,0.0,0.0,0.0,0.0,0.0,0.0,-0.2281,-0.1789,-0.1343,0.0,0.0,0.0,0.0,0.0,0.0,0.0,0.0,0.0,0.0,-0.018,-0.0494,-0.0787,-0.1046,-0.1117,-0.1087,-0.1054,-0.1224,-0.1346,-0.1449,-0.1644,-0.1811,-0.1911,-0.1981,-0.215,-0.2317,-0.2377,-0.2441,-0.2543,-0.2679,-0.2712,-0.2712,-0.2712,-0.2712,-0.2646,-0.251,-0.2474,-0.2411,-0.232,-0.215,-0.2014,-0.1947,-0.1742,-0.1544,-0.138,-0.1145,-0.0841,-0.0571,-0.0202,0.0101,0.0303,0.0437,0.0504,0.0504,0.0504,0.0303,-0.0067,-0.0672,-0.1075,-0.1274,-0.1778,-0.2311,-0.2841,-0.3462,-0.4081,-0.466,-0.5112,-0.5592,-0.6122,-0.6468,-0.6772,-0.7065,-0.7273,-0.7451,-0.7656,-0.7715,-0.7763,-0.7821,0.0,0.0,0.0,0.0,0.0,-0.5874,-0.5912,-0.5943,-0.6178,-0.6815,-0.7047,-0.7362,-0.7927,-0.8123,-0.8226,-0.8226,-0.8062,0.0,0.0,0.0,0.0,0.0,0.0,0.0,0.0,0.0,-0.6641,-0.6349,-0.6019,-0.5626,0.0,0.0,-0.4268,-0.3785,0.0,0.0,0.0,0.0,0.0,0.0,0.0,0.0,0.0,0.0,0.0,0.0,0.0,0.0,0.0,0.0,0.0,-0.1192,-0.1262,0.0,0.0,-0.1375,-0.1447,-0.1546,-0.1678,-0.1811,-0.1947,-0.2014,-0.215,-0.2317,-0.2411,-0.2474,-0.2543,-0.2679,-0.2712,-0.2712,-0.2712,-0.2712,-0.2646,-0.251,-0.2441,-0.2377,-0.232,-0.2117,-0.1947,-0.1911,-0.1678,-0.1444,-0.1313,-0.1043,-0.0706,-0.0336,-0.0101,0.0134,0.0471,0.0504,0.0504,0.0504,0.0403,0.0235,-0.0067,-0.0808,-0.1244,-0.144,-0.2011,-0.2577,-0.3134,-0.3788,-0.4398,-0.5004,-0.5484,-0.599,-0.649,-0.6833,-0.7125,-0.7403,-0.7559,-0.7744,-0.7918,-0.7947,-0.7966,-0.8052,0.0,0.0,0.0,0.0,0.0,0.0,-0.599,-0.599,-0.6175,-0.6653,-0.7102,-0.7561,-0.7946,-0.8421,-0.8675,-0.8675,-0.8267,0.0,0.0,0.0,0.0,0.0,0.0,0.0,0.0,0.0,-0.6894,-0.6683,-0.6349,-0.5964,-0.5491,-0.514,-0.4748,-0.4272,0.0,0.0,0.0,0.0,0.0,0.0,0.0,0.0,0.0,0.0,0.0,0.0,0.0,0.0,0.0,0.0,0.0,0.0,0.0,0.0,0.0,0.0,-0.1546,-0.1609,-0.1676,-0.1845,-0.2014,-0.2083,-0.2183,-0.235,-0.2477,-0.251,-0.2543,-0.2679,-0.2712,-0.2712,-0.2712,-0.2712,-0.2646,-0.251,-0.2441,-0.2377,-0.232,-0.2081,-0.1911,-0.1911,-0.1546,-0.1313,-0.1313,-0.1009,-0.0672,-0.0336,-0.0101,0.0134,0.0471,0.0504,0.0504,0.0504,0.0168,-0.0067,-0.0202,-0.0942,-0.1445,-0.1709,-0.2377,-0.301,-0.3597,-0.4205,-0.4814,-0.5414,-0.5882,-0.6413,-0.6915,-0.7264,-0.7549,-0.7792,-0.7869,-0.8023,-0.8215,-0.8262,-0.829,-0.8308,0.0,0.0,0.0,0.0,0.0,0.0,0.0,-0.6137,-0.6316,-0.6778,-0.7206,-0.7605,-0.803,-0.8461,-0.8716,-0.8716,-0.8553,0.0,0.0,0.0,0.0,0.0,0.0,0.0,0.0,0.0,-0.728,-0.6894,-0.6641,-0.6307,-0.5841,-0.541,-0.4971,-0.4487,-0.4008,-0.3615,0.0,0.0,0.0,0.0,0.0,0.0,-0.1121,0.0,0.0,0.0,0.0,0.0,0.0,0.0,0.0,0.0,0.0,0.0,0.0,-0.2095,-0.1955,-0.1845,-0.1947,-0.2014,-0.2114,-0.2278,-0.2377,-0.2447,-0.2477,-0.2613,-0.2716,-0.2749,-0.2808,-0.2808,-0.2782,-0.2782,-0.2716,-0.2543,-0.2477,-0.2444,-0.232,-0.215,-0.2014,-0.1911,-0.1546,-0.1212,-0.1043,-0.0841,-0.0605,-0.0336,-0.0101,0.0137,0.0497,0.0514,0.0504,0.0504,0.0168,-0.0269,-0.0808,-0.1179,-0.1579,-0.1971,-0.257,-0.3233,-0.3946,-0.4552,-0.5188,-0.5758,-0.6275,-0.676,-0.7216,-0.7569,-0.7908,-0.8148,-0.8262,-0.8375,-0.8488,-0.8488,-0.8505,-0.8505,0.0,0.0,0.0,0.0,0.0,0.0,0.0,-0.6284,-0.6434,-0.6909,-0.7345,-0.7751,-0.8144,-0.8548,-0.8805,-0.8805,-0.8805,0.0,0.0,0.0,0.0,0.0,0.0,0.0,0.0,-0.7753,-0.7538,-0.7154,-0.6937,-0.6605,-0.6153,-0.5761,-0.5323,-0.484,-0.436,-0.3968,0.0,0.0,0.0,0.0,0.0,0.0,-0.1478,0.0,0.0,0.0,0.0,0.0,0.0,0.0,0.0,0.0,0.0,0.0,0.0,0.0,-0.2471,-0.2305,-0.2261,-0.2248,-0.2245,-0.2477,-0.2543,-0.2577,-0.2639,-0.2742,-0.2845,-0.2845,-0.2871,-0.2904,-0.2841,-0.2845,-0.2779,-0.2646,-0.2577,-0.2543,-0.2383,-0.2217,-0.2014,-0.1811,-0.1512,-0.1189,-0.0971,-0.0833,-0.063,-0.0393,-0.0143,0.0109,0.03,0.0437,0.0429,0.0286,0.0034,-0.0403,-0.1076,-0.1345,-0.1744,-0.2272,-0.2867,-0.3588,-0.4392,-0.4966,-0.5564,-0.6191,-0.67,-0.7168,0.0,-0.7984,-0.8269,-0.8495,-0.8639,-0.8723,-0.8795,-0.8795,-0.8795,-0.8795,0.0,0.0,0.0,0.0,0.0,0.0,0.0,-0.6413,-0.6574,-0.7041,-0.7509,-0.7915,-0.8257,-0.8714,-0.9016,-0.9016,0.0,0.0,0.0,0.0,0.0,0.0,0.0,0.0,0.0,-0.7878,-0.7628,-0.7412,-0.7154,-0.6823,-0.641,-0.6147,-0.5761,-0.5285,-0.484,-0.4355,0.0,0.0,0.0,0.0,0.0,0.0,0.0,0.0,0.0,0.0,0.0,0.0,0.0,0.0,0.0,0.0,0.0,0.0,0.0,0.0,0.0,0.0,0.0,-0.2533,-0.2486,-0.2683,-0.2712,-0.2746,-0.2871,-0.29,0.0,-0.2937,-0.2937,-0.2933,-0.2937,-0.2933,-0.2904,-0.2849,-0.2749,-0.2646,-0.2543,-0.2281,-0.1981,-0.1676,-0.1449,-0.1244,-0.1053,-0.0878,-0.0711,-0.0509,-0.0196,-0.0,-0.0,0.0275,0.0236,-0.0118,-0.0216,-0.0543,-0.1117,-0.1453,-0.195,-0.2543,-0.327,-0.4048,-0.4845,-0.5408,-0.6006,-0.6656,-0.7148,-0.7618,-0.805,-0.8404,-0.8656,-0.8844,-0.8971,-0.9065,-0.912,-0.912,-0.912,-0.912,0.0,0.0,0.0,0.0,0.0,0.0,0.0,0.0,0.0,0.0,-0.7551,-0.7959,-0.8408,-0.8793,-0.9016,0.0,0.0,0.0,0.0,0.0,0.0,0.0,0.0,0.0,0.0,-0.807,-0.7821,-0.7628,-0.7293,-0.6992,-0.6605,-0.6184,-0.5761,-0.5285,-0.4932,0.0,0.0,0.0,0.0,0.0,0.0,0.0,0.0,0.0,0.0,0.0,-0.2192,-0.237,0.0,0.0,0.0,0.0,0.0,0.0,0.0,0.0,-0.3419,-0.3371,-0.341,0.0,-0.2923,-0.2867,-0.2838,-0.2904,0.0,0.0,0.0,0.0,0.0,0.0,-0.3241,-0.3175,-0.3109,-0.3043,-0.2882,-0.2749,-0.2679,-0.2347,-0.2047,-0.1845,-0.1635,-0.1437,-0.1239,-0.102,-0.0776,-0.0589,-0.0354,-0.016,-0.0,-0.028,-0.048,-0.0538,-0.0862,-0.1156,-0.1399,-0.1753,-0.2269,-0.2973,-0.3588,-0.436,-0.5207,-0.5835,-0.6452,-0.6996,-0.7549,-0.8003,-0.8428,-0.8795,-0.9042,-0.9193,-0.9324,-0.939,-0.9417,-0.9417,-0.9417,-0.9417,0.0,0.0,0.0,0.0,0.0,0.0,0.0,0.0,0.0,0.0,0.0,0.0,0.0,0.0,0.0,0.0,0.0,0.0,0.0,0.0,0.0,0.0,0.0,0.0,-0.8447,-0.8152,-0.7946,-0.7795,-0.7461,-0.7118,-0.6774,-0.6398,-0.597,-0.5496,-0.4971,0.0,0.0,0.0,0.0,0.0,-0.286,0.0,0.0,0.0,0.0,0.0,-0.2591,-0.2724,0.0,-0.2996,-0.3084,-0.3214,0.0,0.0,0.0,0.0,-0.3868,-0.386,-0.3904,-0.3645,-0.333,-0.3193,-0.3219,-0.3272,-0.329,0.0,0.0,0.0,0.0,0.0,-0.3405,-0.3372,-0.3303,-0.3175,-0.3043,-0.2911,-0.2716,-0.2469,-0.2194,-0.2021,-0.1788,-0.1596,-0.1401,-0.112,-0.0861,-0.0669,-0.0503,-0.0338,-0.0173,-0.0424,-0.0678,-0.091,-0.1356,-0.1582,-0.1625,-0.2144,-0.2739,-0.3386,-0.4125,-0.4832,-0.5561,-0.6199,-0.6807,-0.7403,-0.7917,-0.8382,-0.8811,-0.9139,-0.9366,-0.9499,-0.9632,-0.9684,-0.9684,-0.9684,-0.9684,-0.9684,0.0,0.0,0.0,0.0,0.0,0.0,0.0,0.0,0.0,0.0,0.0,0.0,0.0,0.0,0.0,0.0,0.0,0.0,0.0,0.0,0.0,0.0,0.0,-0.8643,-0.8513,-0.8185,-0.7987,-0.7912,-0.7579,-0.7251,-0.6956,-0.6653,-0.6221,-0.5701,-0.5009,-0.4535,0.0,0.0,-0.3667,-0.3578,-0.3214,0.0,0.0,0.0,0.0,0.0,0.0,0.0,0.0,-0.335,-0.3439,-0.3527,-0.37,0.0,0.0,0.0,0.0,0.0,-0.4295,-0.4101,-0.385,-0.3634,-0.3671,-0.3682,-0.3613,0.0,0.0,0.0,0.0,0.0,-0.3565,-0.3565,-0.3467,-0.3307,-0.3241,-0.3088,-0.278,-0.2612,-0.2438,-0.2169,-0.1922,-0.1691,-0.1548,-0.1227,-0.095,-0.0762,-0.0629,-0.0494,-0.045,-0.0494,-0.0718,-0.1208,-0.1658,-0.1949,-0.2001,-0.2651,-0.3297,-0.3854,-0.4746,-0.5469,-0.6054,-0.6684,-0.736,-0.8029,-0.8508,-0.8978,-0.941,-0.959,-0.9768,-0.99,-0.9943,-0.9957,-0.9957,-0.9957,-0.9957,-0.9957,0.0,0.0,0.0,0.0,0.0,0.0,0.0,0.0,0.0,0.0,0.0,0.0,0.0,0.0,0.0,0.0,0.0,0.0,0.0,0.0,0.0,0.0,-0.8773,-0.8675,-0.8683,-0.8226,-0.7979,-0.7979,-0.7579,-0.7335,-0.7132,-0.6696,-0.6179,-0.5534,-0.5111,-0.4767,-0.4456,-0.4276,-0.4008,-0.3656,-0.3575,0.0,0.0,0.0,0.0,0.0,0.0,0.0,0.0,-0.3656,-0.3748,-0.3836,-0.3972,0.0,0.0,0.0,0.0,0.0,-0.4539,-0.4647,-0.467,-0.4129,-0.388,-0.3827,-0.3892,0.0,0.0,0.0,0.0,-0.3928,-0.3928,-0.3798,-0.3672,-0.3639,-0.3372,-0.3131,-0.2891,-0.2746,-0.2582,-0.2386,-0.2183,-0.1959,-0.1678,-0.1433,-0.1157,-0.0985,-0.0763,-0.0674,-0.0674,-0.081,-0.1034,-0.1344,-0.1749,-0.2271,-0.2802,-0.3284,-0.3862,-0.4553,-0.548,-0.6377,-0.7193,-0.7894,-0.8603,-0.9347,-0.9861,-1.0363,-1.0774,-1.0542,-1.0581,-1.0775,-1.0315,-1.0186,-1.0224,-1.0224,-1.0199,-1.0148,0.0,0.0,0.0,0.0,0.0,0.0,0.0,0.0,0.0,0.0,0.0,0.0,0.0,0.0,0.0,0.0,0.0,0.0,0.0,0.0,0.0,0.0,-0.8683,-0.8594,-0.8594,-0.8185,-0.8021,-0.8021,-0.7614,-0.7335,-0.7167,-0.6611,-0.6093,-0.5663,-0.5285,-0.498,-0.4767,-0.4451,-0.4184,-0.4008,0.0,0.0,0.0,0.0,0.0,0.0,0.0,0.0,0.0,0.0,-0.41,-0.4236,-0.432,0.0,0.0,0.0,0.0,0.0,-0.4932,-0.5067,-0.5081,-0.4673,-0.4442,-0.4255,-0.417,0.0,0.0,0.0,-0.3993,-0.3993,-0.3993,-0.3928,-0.3836,-0.3705,-0.341,-0.3172,-0.3136,-0.3008,-0.2848,-0.2625,-0.2455,-0.2219,-0.1872,-0.155,-0.1299,-0.1164,-0.1031,-0.0897,-0.0897,-0.1077,-0.13,-0.1614,-0.2061,-0.2637,-0.3388,-0.4054,-0.4674,-0.5131,-0.6213,-0.7033,-0.7692,-0.8461,-0.9211,-0.9907,-1.0434,-1.0908,-1.1314,-1.1332,-1.1433,-1.159,-1.1399,-1.1348,-1.1348,-1.1005,-1.0663,-1.0349,0.0,0.0,0.0,0.0,0.0,0.0,0.0,0.0,0.0,0.0,0.0,0.0,0.0,0.0,0.0,0.0,0.0,0.0,0.0,0.0,-0.8781,-0.8643,-0.8521,-0.848,-0.848,-0.8144,-0.7979,-0.7946,-0.7579,-0.7293,-0.709,-0.6483,-0.605,-0.5793,-0.541,-0.5154,-0.4985,-0.4583,-0.4403,-0.436,0.0,0.0,0.0,0.0,0.0,0.0,0.0,0.0,0.0,0.0,0.0,0.0,0.0,0.0,0.0,-0.5029,-0.5072,-0.5116,-0.5241,-0.5293,-0.5254,-0.5117,-0.4867,-0.4643,0.0,0.0,0.0,-0.4123,-0.4123,-0.4123,-0.4091,-0.4058,-0.3961,-0.3737,-0.351,-0.3372,-0.3404,-0.3273,-0.3112,-0.2923,-0.2675,-0.2417,-0.2062,-0.1703,-0.1433,-0.1344,-0.1164,-0.1119,-0.1164,-0.1299,-0.1523,-0.1882,-0.237,-0.3034,-0.3832,-0.4792,-0.5439,-0.5786,-0.6906,-0.7755,-0.8343,-0.9137,-0.9901,-1.0565,-1.1102,-1.1594,-1.1989,-1.2135,-1.2292,-1.2396,-1.2365,-1.2369,-1.2357,-1.1844,-1.1268,-1.0748,0.0,0.0,0.0,0.0,0.0,0.0,0.0,0.0,0.0,0.0,0.0,0.0,0.0,0.0,0.0,0.0,0.0,0.0,0.0,0.0,-0.861,-0.8414,-0.8414,-0.8414,-0.8414,-0.8152,-0.7904,-0.7712,-0.7503,-0.7167,-0.6715,-0.6355,-0.605,-0.5793,-0.5453,-0.5203,-0.4985,-0.4849,-0.4709,-0.4574,-0.4495,0.0,0.0,0.0,0.0,0.0,0.0,0.0,0.0,0.0,0.0,0.0,0.0,0.0,-0.5193,-0.5241,-0.529,-0.529,-0.5285,-0.5308,-0.5311,-0.5294,-0.499,0.0,-0.4596,-0.4425,-0.4318,-0.4426,-0.4458,-0.4458,-0.4388,-0.4226,-0.3999,-0.3737,-0.38,-0.3814,-0.3695,-0.3559,-0.3392,-0.3187,-0.2901,-0.2553,-0.2199,-0.1839,-0.1524,-0.1389,-0.1208,-0.1164,-0.1299,-0.1478,-0.1746,-0.2055,-0.2768,-0.3524,-0.4228,-0.527,-0.6033,-0.6609,-0.7646,-0.8609,-0.9497,-1.0396,-1.1148,-1.1796,-1.2389,-1.2923,-1.3326,-1.2979,-1.3019,-1.3253,-1.2699,-1.2608,-1.2733,-1.2498,-1.2034,-1.1506,0.0,0.0,0.0,0.0,0.0,0.0,0.0,0.0,0.0,0.0,0.0,0.0,0.0,0.0,0.0,0.0,0.0,0.0,0.0,0.0,-0.8455,-0.8299,-0.8201,-0.8077,-0.7961,-0.787,-0.7787,-0.7712,-0.7328,-0.6992,-0.6715,-0.6361,-0.6099,-0.5927,-0.5583,-0.5328,-0.5159,-0.4985,-0.4849,-0.4709,-0.4622,-0.4578,0.0,0.0,0.0,0.0,0.0,0.0,0.0,0.0,-0.5019,-0.5111,-0.5159,-0.5198,-0.5285,-0.5507,-0.5445,-0.5334,-0.5459,-0.5362,-0.5214,-0.507,-0.4923,0.0,0.0,-0.4599,-0.4452,-0.449,-0.449,-0.449,-0.442,-0.4318,-0.4156,-0.3928,-0.3837,-0.3765,-0.3775,-0.3609,-0.347,-0.346,-0.3129,-0.2771,-0.2417,-0.2152,-0.1884,-0.1658,-0.1569,-0.1614,-0.1748,-0.1925,-0.2192,-0.2595,-0.3258,-0.4008,-0.4748,-0.5653,-0.6543,-0.7377,-0.8211,-0.9102,-1.0069,-1.0791,-1.1579,-1.2318,-1.2814,-1.3276,-1.3695,-1.3754,-1.3866,-1.3934,-1.3799,-1.3574,-1.3342,-1.3271,-1.2843,-1.2279,0.0,0.0,0.0,0.0,0.0,0.0,0.0,0.0,0.0,0.0,0.0,0.0,0.0,0.0,0.0,0.0,0.0,0.0,0.0,-0.8324,-0.8209,-0.8051,-0.7953,-0.7829,-0.7628,-0.7545,-0.7545,-0.7545,-0.7118,-0.6823,-0.6623,-0.6276,-0.6105,-0.5976,-0.5669,-0.5453,-0.5371,-0.5159,-0.5029,-0.4932,-0.484,-0.484,0.0,0.0,0.0,0.0,0.0,0.0,0.0,0.0,-0.5285,-0.5371,-0.5415,-0.5368,-0.5392,-0.5609,-0.5482,-0.5291,-0.5449,-0.5301,-0.5105,-0.4975,0.0,0.0,-0.4876,-0.4709,-0.4549,-0.4587,-0.4549,-0.4517,-0.4479,-0.4382,-0.4285,-0.4123,-0.3955,-0.3851,-0.3889,-0.3754,-0.3659,-0.3632,-0.335,-0.2993,-0.264,-0.242,-0.2196,-0.1971,-0.1928,-0.1973,-0.2152,-0.2373,-0.2682,-0.3129,-0.3792,-0.4487,-0.5221,-0.6076,-0.7043,-0.8039,-0.8772,-0.9588,-1.0428,-1.1132,-1.1836,-1.2567,-1.3057,-1.348,-1.3854,-1.417,-1.4365,-1.4461,-1.456,-1.4373,-1.4056,-1.4026,-1.3637,-1.3067,0.0,0.0,0.0,0.0,0.0,0.0,0.0,0.0,0.0,0.0,0.0,0.0,0.0,0.0,0.0,0.0,0.0,0.0,0.0,-0.807,-0.7904,-0.7712,-0.7712,-0.7579,-0.7412,-0.7251,-0.7209,-0.7216,-0.6878,-0.6623,-0.6477,-0.6147,-0.5976,-0.5976,-0.5669,-0.5491,-0.5491,-0.5371,-0.5285,-0.5285,-0.5285,-0.5285,-0.5285,0.0,0.0,0.0,0.0,0.0,0.0,0.0,-0.541,-0.5534,-0.5669,-0.5544,-0.5435,-0.5567,-0.542,-0.5216,-0.5216,-0.5113,-0.5004,-0.5004,-0.4912,-0.4812,-0.4812,-0.4704,-0.4634,-0.4774,-0.4704,-0.4602,-0.4602,-0.4473,-0.4382,-0.4312,-0.4175,-0.4111,-0.4087,-0.4058,-0.3909,-0.3723,-0.3524,-0.3265,-0.2957,-0.264,-0.246,-0.2324,-0.2194,-0.2241,-0.2504,-0.2776,-0.3132,-0.3605,-0.4264,-0.4961,-0.5696,-0.6592,-0.7523,-0.8521,-0.9381,-1.0099,-1.0621,-1.1442,-1.2102,-1.2638,-1.3242,-1.3661,-1.3921,-1.4203,-1.4461,-1.4714,-1.4777,-1.4808,-1.4808,-1.4746,-1.4323,-1.3807,0.0,0.0,0.0,0.0,0.0,0.0,0.0,0.0,0.0,0.0,0.0,0.0,0.0,0.0,0.0,0.0,0.0,0.0,0.0,-0.787,-0.7753,-0.7712,-0.733,-0.7048,-0.6841,-0.664,-0.6704,-0.6999,-0.6702,-0.6532,-0.641,-0.6147,-0.5933,-0.5836,-0.5717,-0.5583,-0.5491,-0.5453,-0.5371,-0.5285,-0.5285,-0.5285,-0.5285,0.0,0.0,0.0,0.0,0.0,0.0,0.0,0.0,0.0,-0.5381,-0.5314,-0.5291,-0.5418,-0.5276,-0.5079,-0.5216,-0.5088,-0.4954,-0.4987,-0.4958,-0.4934,-0.4934,-0.4838,-0.4742,-0.478,-0.4774,-0.4704,-0.4602,-0.4543,-0.442,-0.4312,-0.4143,-0.403,-0.403,-0.3935,-0.389,-0.3902,-0.3687,-0.3445,-0.3265,-0.2993,-0.2815,-0.2732,-0.269,-0.2776,-0.2993,-0.3258,-0.3612,-0.414,-0.4787,-0.548,-0.6258,-0.7098,-0.7964,-0.8861,-0.9628,-1.038,-1.1029,-1.17,-1.2365,-1.2978,-1.3378,-1.3715,-1.4,-1.4324,-1.456,-1.4777,-1.4808,-1.4808,-1.4808,-1.4777,-1.4665,-1.4441,0.0,0.0,0.0,0.0,0.0,0.0,0.0,0.0,0.0,0.0,0.0,0.0,0.0,0.0,0.0,0.0,0.0,0.0,0.0,0.0,-0.7382,-0.714,-0.6793,-0.6535,-0.6336,-0.6149,-0.6211,-0.653,-0.6512,-0.6441,-0.6319,-0.6105,-0.5927,-0.5787,-0.5717,-0.5674,-0.5583,-0.5583,-0.5545,-0.5463,-0.5463,-0.5401,-0.5318,0.0,0.0,0.0,0.0,0.0,0.0,0.0,0.0,0.0,-0.5311,0.0,-0.5178,-0.5335,-0.5192,-0.5015,-0.515,-0.5059,-0.4953,-0.4992,-0.4992,-0.4992,-0.4992,-0.4934,-0.487,-0.4838,-0.4832,-0.48,-0.4704,-0.4608,-0.4517,-0.4382,-0.4221,-0.4102,-0.4042,-0.4002,-0.4009,-0.3996,-0.3913,-0.3796,-0.3527,-0.3391,-0.3258,-0.3179,-0.322,-0.3306,-0.348,-0.3744,-0.414,-0.4666,-0.5265,-0.5947,-0.6768,-0.7551,-0.8366,-0.9191,-0.9981,-1.0687,-1.1394,-1.192,-1.2473,-1.3141,-1.3581,-1.3934,-1.4214,-1.4406,-1.461,-1.4808,-1.4808,-1.4808,-1.4808,-1.4808,-1.4808,-1.4752,0.0,0.0,0.0,0.0,0.0,0.0,0.0,0.0,0.0,0.0,0.0,0.0,0.0,0.0,0.0,0.0,0.0,0.0,0.0,0.0,-0.6817,-0.6327,-0.6169,-0.6039,-0.5861,-0.5714,-0.5737,-0.5954,-0.6269,-0.6325,-0.6179,-0.6056,-0.5927,-0.5793,-0.5717,-0.568,-0.5674,-0.5658,-0.569,-0.569,-0.5663,-0.5517,-0.5311,-0.5356,0.0,0.0,0.0,0.0,0.0,0.0,0.0,0.0,-0.5319,-0.5252,-0.5124,-0.524,-0.5134,-0.4992,-0.5023,-0.5023,-0.5023,-0.5023,-0.5023,-0.5023,-0.5023,-0.5023,-0.4992,-0.4922,-0.4922,-0.489,-0.4806,-0.4704,-0.457,-0.4523,-0.4382,-0.4257,-0.4127,-0.4196,-0.4215,-0.4053,-0.4189,-0.4168,-0.3785,-0.3744,-0.3748,-0.3667,-0.3704,-0.3832,-0.3968,-0.432,-0.4709,-0.5188,-0.5782,-0.6459,-0.7266,-0.7998,-0.8731,-0.9558,-1.0331,-1.1057,-1.1641,-1.2054,-1.2579,-1.321,-1.3749,-1.4181,-1.4501,-1.4501,-1.461,-1.4808,-1.4808,-1.4808,-1.4808,-1.4808,-1.4808,-1.4808,0.0,0.0,0.0,0.0,0.0,0.0,0.0,0.0,0.0,0.0,0.0,0.0,0.0,0.0,0.0,0.0,0.0,0.0,0.0,0.0,-0.6412,-0.624,-0.5747,-0.5456,-0.5439,-0.5245,-0.5269,-0.5541,-0.5795,-0.5943,-0.5879,-0.5879,-0.5798,-0.5717,-0.5723,-0.568,-0.5669,-0.547,-0.543,-0.5454,-0.5274,-0.5237,-0.5219,-0.5219,-0.5229,0.0,0.0,0.0,0.0,0.0,0.0,0.0,-0.5144,-0.5065,-0.5015,-0.5054,-0.5042,-0.5023,-0.5112,-0.5144,-0.5176,-0.5214,-0.5246,-0.5246,-0.5246,-0.5246,-0.5182,-0.5023,-0.4922,-0.4884,-0.489,-0.473,-0.457,-0.4523,-0.4382,-0.4269,-0.4125,-0.4083,-0.4113,-0.4211,-0.4198,-0.4202,-0.4308,-0.4232,-0.4184,-0.4144,-0.4232,-0.4364,-0.4583,-0.4923,-0.5351,-0.5964,-0.6441,-0.707,-0.7814,-0.8415,-0.9102,-0.9961,-1.0572,-1.1207,-1.1836,-1.2246,-1.2896,-1.3641,-1.3914,-1.4181,-1.4501,-1.4501,-1.461,-1.4808,-1.4808,-1.4808,-1.4808,-1.4808,-1.4808,-1.4808,0.0,0.0,0.0,0.0,0.0,0.0,0.0,0.0,0.0,0.0,0.0,0.0,0.0,0.0,0.0,0.0,0.0,0.0,0.0,0.0,0.0,0.0,-0.5276,-0.5067,-0.4979,-0.4867,-0.4888,-0.5082,-0.5214,-0.533,-0.5457,-0.5614,-0.5567,-0.5381,-0.5454,-0.5437,-0.537,-0.524,-0.5225,-0.5259,-0.5164,-0.5117,-0.5046,-0.5082,-0.5079,-0.5004,-0.5033,0.0,0.0,0.0,0.0,0.0,0.0,0.0,-0.5081,-0.5081,-0.5151,-0.5221,-0.5284,-0.5309,-0.5365,-0.5404,-0.5379,-0.5347,-0.5347,-0.5316,-0.5277,-0.5151,-0.5055,-0.4922,-0.4922,-0.4794,-0.4672,-0.4581,-0.4447,-0.435,-0.4221,-0.4181,-0.4185,-0.4196,-0.4362,-0.4459,-0.4524,-0.4617,-0.4626,-0.4666,-0.4757,-0.4932,-0.5198,-0.5534,-0.5959,-0.6526,-0.7027,-0.7607,-0.8349,-0.8901,-0.9579,-1.0351,-1.0916,-1.1616,-1.2389,-1.2685,-1.3185,-1.3821,-1.3947,-1.4181,-1.4501,-1.4501,-1.461,-1.4808,-1.4808,-1.4808,-1.4808,-1.4808,-1.4808,-1.4808,0.0,0.0,0.0,0.0,0.0,0.0,0.0,0.0,0.0,0.0,0.0,0.0,0.0,0.0,0.0,0.0,0.0,0.0,0.0,0.0,0.0,0.0,-0.489,-0.4794,-0.4602,-0.4602,-0.4608,-0.4642,-0.4642,0.0,0.0,0.0,0.0,-0.5012,0.0,-0.518,-0.5001,-0.5038,-0.5059,-0.5091,-0.5108,-0.5008,-0.4894,-0.4969,-0.49,-0.4838,-0.489,-0.4953,-0.4992,-0.5023,0.0,0.0,0.0,0.0,-0.5239,-0.5239,-0.534,-0.5417,-0.5417,-0.5467,-0.5491,-0.5491,-0.5467,-0.5417,-0.5417,-0.5379,-0.5316,-0.5316,-0.5151,-0.5023,-0.4922,-0.4864,-0.4774,-0.4634,-0.4543,-0.4485,-0.435,-0.4386,-0.4346,-0.4211,-0.4542,-0.4748,-0.4736,-0.4951,-0.5115,-0.5226,-0.5361,-0.5583,-0.5847,-0.6227,-0.6605,-0.7076,-0.7607,-0.8177,-0.8837,-0.939,-1.0021,-1.0687,-1.133,-1.2102,-1.2896,-1.3116,-1.3438,-1.3808,-1.3947,-1.4181,-1.4501,-1.4501,-1.461,-1.4808,-1.4808,-1.4808,-1.4808,-1.4808,-1.4808,-1.4808,0.0,0.0,0.0,0.0,0.0,0.0,0.0,0.0,0.0,0.0,0.0,0.0,0.0,0.0,0.0,0.0,0.0,0.0,0.0,0.0,0.0,0.0,-0.4838,-0.4736,-0.4602,-0.4549,-0.4502,-0.4432,-0.4394,0.0,0.0,0.0,0.0,-0.5001,0.0,-0.5072,-0.5071,-0.4846,-0.4863,-0.5004,-0.4767,-0.4722,-0.4828,-0.4887,-0.4889,-0.489,-0.496,-0.4992,-0.5023,-0.5144,-0.5176,0.0,0.0,0.0,-0.5379,-0.5435,-0.546,-0.5491,-0.5491,-0.5498,-0.5491,-0.5491,-0.5498,-0.5491,-0.5491,-0.5442,-0.5386,-0.5386,-0.5277,-0.5144,-0.5023,-0.4928,-0.4826,-0.4634,-0.4602,-0.457,-0.4485,-0.4416,-0.4443,-0.4605,-0.4632,-0.4793,-0.5185,-0.53,-0.5443,-0.5685,-0.5996,-0.6295,-0.6556,-0.6985,-0.7412,-0.7855,-0.8308,-0.8837,-0.9399,-0.9804,-1.0341,-1.0943,-1.1847,-1.2508,-1.2896,-1.322,-1.3573,-1.3888,-1.398,-1.4181,-1.4501,-1.4501,-1.461,-1.4808,-1.4808,-1.4808,-1.4808,-1.4808,-1.4808,-1.4808,0.0,0.0,0.0,0.0,0.0,0.0,0.0,0.0,0.0,0.0,0.0,0.0,0.0,0.0,0.0,0.0,0.0,0.0,0.0,0.0,0.0,-0.4864,-0.4806,-0.471,-0.4549,-0.4517,-0.4452,-0.435,0.0,0.0,0.0,-0.4497,-0.46,0.0,0.0,0.0,0.0,-0.4649,-0.4704,-0.4765,-0.4778,-0.4794,-0.4864,-0.4922,-0.5017,-0.5074,-0.5112,-0.5151,-0.5182,-0.5284,-0.5316,-0.534,-0.5442,0.0,0.0,0.0,-0.5561,-0.5631,-0.5655,-0.5679,-0.5679,-0.5679,-0.5624,-0.5599,-0.5599,-0.5536,-0.5442,-0.5417,-0.5347,-0.5277,-0.5151,-0.5017,-0.4922,-0.4794,-0.4736,-0.4672,-0.4576,-0.4485,-0.4492,-0.4621,-0.4762,-0.4933,-0.5148,-0.5549,-0.5884,-0.612,-0.6469,-0.6852,-0.7245,-0.7572,-0.7938,-0.839,-0.8878,-0.9359,-0.9834,-1.0302,-1.0943,-1.1689,-1.2318,-1.2838,-1.3185,-1.3378,-1.3628,-1.3908,-1.398,-1.4163,-1.4433,-1.447,-1.461,-1.4746,-1.4808,-1.4808,-1.4808,-1.4808,-1.4808,-1.4808,0.0,0.0,0.0,0.0,0.0,0.0,0.0,0.0,0.0,0.0,0.0,0.0,0.0,0.0,0.0,0.0,0.0,0.0,0.0,0.0,0.0,-0.4812,-0.4812,-0.4716,-0.449,-0.449,-0.442,0.0,0.0,0.0,-0.4312,-0.4312,-0.4312,0.0,-0.4532,-0.4549,0.0,-0.457,-0.4634,-0.4666,-0.4826,-0.4884,-0.4922,-0.5017,-0.5112,-0.5207,-0.5239,-0.5277,-0.5347,-0.541,-0.541,-0.5442,-0.5536,-0.5561,0.0,0.0,0.0,-0.5795,-0.5842,-0.5842,-0.5842,-0.5842,-0.5787,-0.5732,-0.5732,-0.5631,-0.5529,-0.548,-0.5449,-0.5379,-0.5277,-0.5151,-0.5023,-0.4953,-0.4896,-0.4806,-0.473,-0.4678,-0.464,-0.473,-0.4898,-0.5076,-0.5223,-0.5744,-0.6201,-0.654,-0.6949,-0.7403,-0.7912,-0.8193,-0.8513,-0.8967,-0.9439,-0.9913,-1.0312,-1.0916,-1.159,-1.2282,-1.2685,-1.3047,-1.3391,-1.3527,-1.3695,-1.3927,-1.3967,-1.4144,-1.4383,-1.4452,-1.4547,-1.4655,-1.47,-1.4732,-1.4777,-1.4777,-1.4777,-1.4777,0.0,0.0,0.0,0.0,0.0,0.0,0.0,0.0,0.0,0.0,0.0,0.0,0.0,0.0,-0.5817,-0.555,0.0,0.0,0.0,0.0,0.0,-0.4812,-0.4812,0.0,-0.449,-0.449,0.0,0.0,0.0,0.0,-0.4312,-0.435,-0.4382,-0.4382,-0.4399,-0.449,-0.4596,-0.4602,-0.4672,-0.4806,-0.4858,-0.4884,-0.4915,-0.5112,-0.5207,-0.5207,-0.5347,-0.5386,-0.5417,-0.5467,-0.5498,-0.5529,-0.5638,-0.5676,-0.5708,0.0,0.0,0.0,-0.5998,-0.5998,-0.5998,-0.5998,-0.5943,-0.5888,-0.5888,-0.5795,-0.5676,-0.5676,-0.5568,-0.5467,-0.5417,-0.5277,-0.5144,-0.5023,-0.4992,-0.4992,-0.4992,-0.496,-0.4992,-0.5068,-0.5081,-0.5229,-0.5617,-0.5882,-0.6278,-0.6923,-0.7385,-0.7937,-0.8618,-0.8967,-0.9337,-0.9734,-1.0088,-1.0467,-1.084,-1.1627,-1.2186,-1.2508,-1.2885,-1.3198,-1.3425,-1.3674,-1.3861,-1.4,-1.4,-1.4144,-1.4397,-1.4383,-1.4433,-1.4501,-1.4501,-1.4578,-1.4714,-1.4714,-1.4714,-1.4714,0.0,0.0,0.0,0.0,0.0,0.0,0.0,0.0,0.0,0.0,0.0,0.0,0.0,-0.6018,-0.5787,-0.5522,-0.5435,0.0,0.0,0.0,0.0,-0.4812,-0.4812,-0.471,-0.4576,-0.4576,0.0,0.0,0.0,-0.442,-0.442,-0.4452,-0.4485,-0.4538,-0.4538,-0.457,-0.4602,-0.4704,-0.4768,-0.4858,-0.4928,-0.5017,-0.5112,-0.5214,-0.5277,-0.5347,-0.5386,-0.541,-0.5467,-0.5599,-0.5638,-0.5669,-0.5795,-0.5833,-0.5857,-0.5943,-0.5967,-0.599,-0.599,-0.599,-0.599,-0.599,-0.5998,-0.5967,-0.5967,-0.5881,-0.5826,-0.5756,-0.5693,-0.5599,-0.5467,-0.5379,-0.5284,-0.5144,-0.5112,-0.5112,-0.5074,-0.5074,-0.5137,-0.5289,-0.5327,-0.5438,-0.5697,-0.6079,-0.6461,-0.6833,-0.7624,-0.832,-0.8793,-0.94,-0.9892,-1.0312,-1.0687,-1.1132,-1.1726,-1.2222,-1.2627,-1.2885,-1.322,-1.3459,-1.3674,-1.3821,-1.3974,-1.4124,-1.4124,-1.4222,-1.4332,-1.4397,-1.4415,-1.4433,-1.447,-1.4547,-1.4578,-1.4578,-1.4578,-1.4578,0.0,0.0,0.0,0.0,0.0,0.0,0.0,0.0,0.0,0.0,0.0,0.0,0.0,0.0,-0.5756,-0.5522,-0.5372,-0.5214,-0.5023,-0.4992,-0.4934,-0.4812,-0.4812,-0.4742,-0.4602,0.0,0.0,0.0,0.0,0.0,0.0,-0.4517,-0.4543,-0.4602,-0.4634,-0.4672,-0.4672,-0.4774,-0.4864,-0.4922,-0.5023,-0.5112,-0.5207,-0.5309,-0.5354,-0.5417,-0.548,-0.5543,-0.5599,-0.5693,-0.5732,-0.5771,-0.5857,-0.5951,-0.6013,-0.6091,-0.6114,-0.6145,-0.6145,-0.6176,-0.6176,-0.6176,-0.6122,-0.6091,-0.6091,-0.5998,-0.5912,-0.5874,-0.5819,-0.5756,-0.5624,-0.5561,-0.5474,-0.5334,-0.5302,-0.5302,-0.5232,-0.5271,-0.5365,-0.5515,-0.5617,-0.5718,-0.585,-0.6267,-0.664,-0.6958,-0.7832,-0.8601,-0.9115,-0.982,-1.0467,-1.0992,-1.1356,-1.1799,-1.2389,-1.2697,-1.2955,-1.3232,-1.3493,-1.3674,-1.3854,-1.3941,-1.4072,-1.4203,-1.4235,-1.4268,-1.43,-1.4365,-1.4365,-1.4351,-1.4433,-1.4452,-1.4452,-1.4452,-1.4452,-1.4452,0.0,0.0,0.0,0.0,0.0,0.0,0.0,0.0,0.0,0.0,0.0,0.0,0.0,0.0,0.0,-0.5522,-0.5372,-0.5214,-0.5023,-0.4992,-0.4934,-0.4812,0.0,0.0,0.0,0.0,0.0,0.0,0.0,0.0,0.0,0.0,-0.4602,-0.4602,-0.4742,-0.4812,-0.4806,-0.4858,-0.4922,-0.4915,-0.5112,-0.5207,-0.5207,-0.5347,-0.5417,-0.5417,-0.5645,-0.5708,-0.5708,-0.5787,-0.585,-0.5888,-0.592,-0.6052,-0.6207,-0.6284,-0.636,-0.6421,0.0,0.0,0.0,-0.649,-0.6407,-0.6315,-0.6315,-0.6153,-0.6021,-0.599,-0.599,-0.5967,-0.5842,-0.5811,-0.5749,-0.5554,-0.5522,-0.5491,-0.5491,-0.5631,-0.5732,-0.5811,-0.5928,-0.6052,-0.6206,-0.639,-0.6723,-0.7269,-0.8045,-0.8828,-0.9554,-1.0321,-1.1057,-1.1811,-1.2066,-1.2389,-1.2838,-1.3025,-1.3267,-1.3514,-1.3708,-1.3854,-1.3921,-1.4105,-1.4203,-1.4203,-1.4268,-1.43,-1.43,-1.43,-1.43,-1.43,-1.43,-1.4332,-1.4397,-1.4397,-1.4397,-1.4397,0.0,0.0,0.0,0.0,0.0,0.0,0.0,0.0,0.0,0.0,0.0,0.0,0.0,0.0,-0.5529,-0.5442,-0.5347,-0.5214,-0.5023,-0.4992,-0.4934,-0.4812,-0.4812,-0.4774,0.0,0.0,0.0,0.0,0.0,0.0,0.0,0.0,0.0,0.0,-0.4832,-0.4858,-0.4864,-0.489,-0.4979,-0.5112,-0.5176,-0.5246,-0.5347,-0.5386,-0.548,-0.5614,-0.5676,-0.5732,-0.5787,-0.5857,-0.5888,-0.592,-0.6083,-0.6222,-0.636,-0.636,-0.6421,-0.649,-0.649,0.0,0.0,0.0,0.0,0.0,-0.6437,-0.636,-0.6268,-0.6214,-0.6183,-0.6114,-0.5967,-0.5936,-0.5928,-0.5866,-0.5756,-0.5662,-0.5718,-0.5787,-0.5912,-0.6083,-0.6206,-0.6329,-0.6399,-0.6695,-0.6971,-0.7199,-0.7976,-0.8754,-0.9552,-1.0949,-1.1957,-1.2449,-1.2615,-1.2896,-1.331,-1.3412,-1.3615,-1.3868,-1.4059,-1.4203,-1.4268,-1.4369,-1.4401,-1.4365,-1.4365,-1.4332,-1.43,-1.43,-1.43,-1.43,-1.43,-1.43,-1.4332,-1.4332,-1.43,-1.4268,0.0,0.0,0.0,0.0,0.0,0.0,-0.6626,-0.6543,0.0,0.0,0.0,0.0,0.0,0.0,-0.5467,-0.5417,-0.5347,-0.5246,-0.5087,-0.5023,-0.496,-0.4838,-0.4812,-0.4812,-0.4812,0.0,0.0,0.0,0.0,0.0,0.0,0.0,0.0,0.0,0.0,0.0,-0.5017,-0.5017,-0.5081,-0.5207,-0.5277,-0.5316,-0.5417,-0.548,-0.5606,-0.5708,-0.5732,-0.5787,-0.585,-0.5888,-0.5951,-0.6044,-0.623,-0.6337,-0.6413,-0.6474,-0.6513,-0.6543,-0.6643,-0.6673,-0.6673,-0.6695,0.0,0.0,-0.6621,-0.6521,-0.6421,-0.6399,-0.6337,-0.6299,-0.6176,-0.6176,-0.6145,-0.6122,-0.606,-0.5998,-0.5967,-0.6036,-0.6129,-0.6299,-0.646,-0.6612,-0.6695,-0.6996,-0.7235,-0.7393,-0.8146,-0.9117,-1.0243,-1.1606,-1.2508,-1.2896,-1.3069,-1.3344,-1.3702,-1.3735,-1.3901,-1.4176,-1.4287,-1.4383,-1.4433,-1.4483,-1.4483,-1.4433,-1.4415,-1.4397,-1.4332,-1.43,-1.43,-1.43,-1.4268,-1.4268,-1.4268,-1.4189,-1.4144,-1.4124,0.0,0.0,0.0,-0.7017,-0.6936,-0.6824,-0.6626,-0.6543,-0.646,0.0,0.0,0.0,0.0,0.0,0.0,0.0,-0.5347,-0.5277,-0.5207,-0.5081,-0.496,-0.4922,-0.4832,-0.4812,-0.4812,-0.4812,0.0,0.0,0.0,0.0,0.0,0.0,0.0,0.0,0.0,0.0,-0.5207,-0.5207,-0.5207,-0.5239,-0.5347,-0.5417,-0.5449,-0.5645,-0.5708,-0.5732,-0.5787,-0.585,-0.5888,-0.592,-0.6044,-0.623,-0.636,-0.6413,-0.6443,-0.6565,-0.6626,-0.6686,-0.6855,-0.6915,-0.6936,-0.6987,-0.6915,0.0,-0.6811,-0.6681,-0.6551,-0.6551,-0.6551,-0.6521,-0.6443,-0.6413,-0.639,-0.6337,-0.639,-0.6382,-0.6237,-0.6268,-0.6376,-0.6529,-0.6712,-0.6893,-0.7017,-0.7273,-0.7519,-0.7744,-0.8582,-0.9733,-1.1193,-1.2199,-1.2896,-1.3263,-1.3446,-1.3702,-1.4052,-1.4052,-1.4195,-1.4461,-1.4461,-1.4497,-1.4564,-1.4533,-1.4533,-1.4547,-1.4433,-1.4429,-1.4397,-1.4332,-1.43,-1.4268,-1.4235,-1.4189,-1.4157,-1.4032,-1.4,-1.4,0.0,0.0,-0.7095,-0.7017,-0.6936,-0.6824,-0.6551,-0.6521,0.0,0.0,0.0,0.0,0.0,0.0,0.0,0.0,-0.5316,-0.5277,-0.5207,-0.5081,-0.496,-0.4922,-0.4832,-0.4812,-0.4812,-0.4812,0.0,0.0,0.0,0.0,0.0,0.0,0.0,0.0,0.0,0.0,-0.5207,-0.5316,-0.5354,-0.5354,-0.5386,-0.5487,-0.5645,-0.5676,-0.5732,-0.5787,-0.585,-0.5888,-0.592,-0.6083,-0.6222,-0.636,-0.6382,-0.6474,-0.6595,-0.6712,-0.6794,-0.6876,-0.6957,-0.6987,-0.6987,-0.6987,-0.6987,0.0,-0.6966,-0.6927,-0.6897,-0.6824,-0.6772,-0.6712,-0.6565,-0.6513,-0.649,-0.646,-0.6513,-0.6504,-0.6382,-0.6474,-0.6604,-0.672,-0.6924,-0.7104,-0.7292,-0.7578,-0.7831,-0.8091,-0.9456,-1.0524,-1.1101,-1.239,-1.3276,-1.3674,-1.3815,-1.4052,-1.4406,-1.4406,-1.4547,-1.4808,-1.4808,-1.4856,-1.4907,-1.4842,-1.4794,-1.4732,-1.4547,-1.4465,-1.4397,-1.4268,-1.4235,-1.4235,-1.4203,-1.4111,-1.4032,-1.4,-1.398,-1.3908,0.0,-0.7107,-0.7056,-0.7017,-0.6906,-0.6772,-0.6521,-0.649,0.0,0.0,0.0,0.0,0.0,0.0,-0.5435,0.0,0.0,0.0,-0.5246,-0.5144,-0.5055,-0.4953,-0.4896,-0.4864,-0.4864,-0.4864,-0.4864,0.0,0.0,0.0,0.0,0.0,0.0,0.0,0.0,0.0,-0.5316,-0.5404,-0.5474,-0.555,-0.555,-0.5614,-0.5708,-0.5732,-0.5787,-0.585,-0.5888,-0.5951,-0.6083,-0.6199,-0.6307,-0.6413,-0.6452,-0.6504,-0.6626,-0.6794,-0.6863,-0.6915,-0.7026,-0.7056,-0.7056,-0.7077,-0.7086,0.0,0.0,-0.7017,-0.6987,-0.6966,-0.6915,-0.6876,-0.6807,-0.6777,-0.6755,-0.6755,-0.6777,-0.6777,-0.6717,-0.6717,-0.6816,-0.6975,-0.7164,-0.7312,-0.7529,-0.7802,-0.8138,-0.8561,-0.9958,-1.0958,-1.1326,-1.2735,-1.3661,-1.3974,-1.4163,-1.4388,-1.4655,-1.4686,-1.478,-1.4935,-1.4935,-1.4966,-1.5013,-1.4918,-1.4871,-1.4839,-1.461,-1.4483,-1.4433,-1.4254,-1.4157,-1.4092,-1.4059,-1.4007,-1.396,-1.3835,-1.3782,-1.3762,-0.7166,-0.7077,-0.6987,-0.6987,-0.6855,-0.6712,-0.6521,-0.649,0.0,0.0,0.0,0.0,-0.5522,-0.5491,-0.5435,-0.5316,-0.5309,-0.5309,-0.5309,-0.5239,-0.5144,-0.5055,-0.4953,-0.4922,-0.4922,-0.4922,-0.4953,-0.4992,0.0,0.0,0.0,0.0,0.0,0.0,0.0,0.0,-0.5417,-0.5498,-0.5599,-0.5708,-0.5739,-0.5739,-0.5732,-0.5787,-0.585,-0.592,-0.5951,-0.6083,-0.6238,-0.6315,-0.636,-0.6421,-0.6482,-0.6573,-0.6686,-0.6876,-0.6945,-0.6975,-0.7095,-0.7125,-0.7154,-0.7235,-0.7205,-0.7184,0.0,0.0,0.0,-0.7107,-0.7077,-0.7086,-0.7086,-0.7047,-0.7047,-0.7047,-0.7047,-0.7086,-0.7086,-0.7056,-0.7086,-0.7196,-0.7342,-0.7529,-0.7715,-0.8052,-0.8467,-0.9031,-1.0315,-1.1247,-1.164,-1.3039,-1.3974,-1.4254,-1.4452,-1.4686,-1.4902,-1.4963,-1.5011,-1.5104,-1.5104,-1.5104,-1.5074,-1.5011,-1.4963,-1.4918,-1.4641,-1.4501,-1.447,-1.4241,-1.4111,-1.4,-1.3941,-1.3888,-1.3808,-1.3648,-1.3581,-1.3581,-0.7125,-0.7047,-0.6987,-0.6915,-0.6755,-0.6604,-0.6521,-0.6452,0.0,0.0,0.0,-0.5669,-0.5529,-0.5442,-0.5379,-0.5316,-0.5309,-0.5309,-0.5309,-0.5239,-0.5207,-0.5176,-0.5055,-0.4992,-0.4992,-0.4992,-0.4992,-0.4992,0.0,0.0,0.0,0.0,0.0,0.0,-0.5467,-0.5498,-0.5498,-0.5638,-0.5676,-0.5708,-0.5833,-0.585,-0.578,-0.585,-0.5888,-0.592,-0.6114,-0.623,-0.6315,-0.636,-0.6421,-0.649,-0.6573,-0.6725,-0.6885,-0.6957,-0.7026,-0.7095,-0.7166,-0.7273,-0.7351,-0.7381,-0.7401,-0.7451,-0.7451,0.0,-0.7451,-0.7451,0.0,-0.7351,-0.7351,0.0,0.0,-0.7166,-0.7273,-0.7351,-0.7351,-0.7451,-0.7432,-0.7225,-0.748,-0.7725,-0.7869,-0.84,-0.8871,-0.9247,-1.0549,-1.149,-1.186,-1.3216,-1.413,-1.4452,-1.4655,-1.4932,-1.5253,-1.5253,-1.5328,-1.5448,-1.5448,-1.5418,-1.5359,-1.5298,-1.5163,-1.4982,-1.4763,-1.4624,-1.447,-1.4149,-1.4032,-1.4,-1.3941,-1.3795,-1.3615,-1.3615,-1.3547,-1.348,-0.7095,-0.7026,-0.6936,-0.6915,-0.6725,-0.6565,-0.6521,-0.6307,0.0,0.0,0.0,-0.5638,-0.5529,-0.5442,-0.5386,-0.5316,-0.5309,-0.5309,-0.5309,-0.5277,-0.5239,-0.5207,-0.5144,-0.5112,-0.5112,-0.5112,-0.5151,-0.5182,-0.5246,0.0,0.0,0.0,0.0,0.0,-0.5568,-0.5599,-0.5638,-0.5763,-0.5826,-0.5826,-0.5912,-0.5936,-0.5936,-0.5936,-0.6005,-0.6075,-0.6199,-0.6284,-0.6307,-0.639,-0.6452,-0.6521,-0.6565,-0.6755,-0.6915,-0.6987,-0.7056,-0.7125,-0.7166,-0.7303,-0.739,-0.739,-0.744,-0.749,-0.749,-0.749,-0.749,-0.749,0.0,0.0,0.0,0.0,0.0,0.0,-0.7451,-0.751,-0.751,-0.7627,-0.7647,-0.751,-0.7744,-0.8052,-0.8326,-0.8728,-0.9124,-0.9446,-1.0821,-1.1772,-1.2111,-1.3502,-1.442,-1.4655,-1.4949,-1.5147,-1.5313,-1.5388,-1.5433,-1.5507,-1.5507,-1.5448,-1.5389,-1.5328,-1.5193,-1.4982,-1.4794,-1.4624,-1.447,-1.4149,-1.398,-1.3927,-1.3795,-1.3648,-1.3581,-1.3514,-1.3425,-1.3323,-0.7035,0.0,-0.6885,-0.6816,-0.6695,-0.6543,-0.6437,-0.6183,-0.5967,-0.5881,-0.5732,-0.5606,-0.5467,-0.541,-0.5347,-0.5316,-0.5309,-0.5309,-0.5309,-0.5309,-0.5277,-0.5239,-0.5239,-0.5239,-0.5239,-0.5239,-0.5246,-0.5309,0.0,0.0,0.0,0.0,0.0,0.0,-0.5701,-0.5771,-0.5771,-0.5888,-0.5912,-0.5943,-0.6036,-0.606,-0.6083,-0.606,-0.6129,-0.6238,-0.6284,-0.6315,-0.6315,-0.639,-0.6452,-0.6521,-0.6634,-0.6755,-0.6915,-0.6987,-0.7056,-0.7125,-0.7166,-0.7303,-0.744,-0.744,-0.749,-0.7549,-0.7549,-0.7549,-0.7549,-0.7549,-0.7549,0.0,0.0,0.0,-0.7598,-0.7598,0.0,-0.7705,-0.7744,-0.7831,-0.786,-0.7773,-0.8033,-0.8336,-0.869,-0.8976,-0.9298,-0.9617,-1.1004,-1.1978,-1.2283,-1.37,-1.461,-1.4856,-1.5147,-1.5343,-1.5388,-1.5463,-1.5551,-1.558,-1.558,-1.5551,-1.5418,-1.5388,-1.5224,-1.4982,-1.4825,-1.4624,-1.4452,-1.413,-1.3947,-1.3841,-1.3661,-1.3547,-1.3493,-1.3391,-1.3267,-1.3163,-0.6915,-0.6915,-0.6846,-0.6656,-0.6543,-0.6437,-0.6238,-0.6098,-0.5959,-0.5811,-0.5624,-0.5467,-0.5417,-0.5347,-0.5309,-0.5309,-0.5309,-0.5309,-0.5309,-0.5309,-0.5309,-0.5309,-0.5309,-0.5309,-0.5309,-0.5309,-0.5309,-0.5309,-0.5354,0.0,0.0,0.0,0.0,0.0,-0.5826,-0.5888,-0.5888,-0.5967,-0.599,-0.599,-0.6137,-0.623,-0.6284,-0.6207,-0.623,-0.6315,-0.6315,-0.6315,-0.6315,-0.646,-0.649,-0.6529,-0.672,-0.6833,-0.6915,-0.6987,-0.7056,-0.7125,-0.7166,-0.7353,-0.749,-0.749,-0.7608,-0.7695,-0.7695,-0.7695,-0.7695,-0.7695,-0.7695,-0.7725,-0.7773,-0.7802,-0.7821,-0.7869,-0.7898,0.0,0.0,-0.814,-0.8119,-0.7927,-0.8251,-0.8572,-0.8789,-0.9101,-0.942,-0.9684,-1.1048,-1.2007,-1.2283,-1.37,-1.4658,-1.4968,-1.5193,-1.5388,-1.558,-1.558,-1.5668,-1.5799,-1.5799,-1.5697,-1.5507,-1.5477,-1.5329,-1.4982,-1.4856,-1.4651,-1.4383,-1.4098,-1.3914,-1.3788,-1.3594,-1.3391,-1.3198,-1.3198,-1.3163,-1.3072,-0.6725,-0.6695,-0.6686,-0.6626,-0.6513,-0.636,-0.6091,-0.6005,-0.5881,-0.5763,-0.5599,-0.5467,-0.5417,-0.5347,-0.5277,-0.5239,-0.5239,-0.5214,-0.5119,-0.5176,-0.5239,-0.5239,-0.5277,-0.5309,-0.5309,-0.5309,-0.5316,-0.5354,-0.5386,0.0,0.0,0.0,0.0,0.0,-0.5888,-0.592,-0.5967,-0.6067,-0.6137,-0.6137,-0.623,-0.6284,-0.6315,-0.6292,-0.6284,-0.6315,-0.6315,-0.6315,-0.6315,-0.639,-0.6452,-0.6521,-0.6634,-0.6786,-0.6915,-0.6987,-0.7056,-0.7125,-0.7166,-0.7353,-0.749,-0.749,-0.7608,-0.7695,-0.7695,-0.7695,-0.7725,-0.7744,-0.7773,-0.7802,-0.785,-0.7869,-0.7908,-0.8015,-0.8062,-0.8119,0.0,-0.8375,-0.8477,-0.8484,-0.8684,-0.8916,-0.9112,-0.9381,-0.9672,-0.9944,-1.1315,-1.2297,-1.2622,-1.4,-1.4918,-1.5208,-1.5344,-1.5522,-1.5741,-1.577,-1.5827,-1.5871,-1.5871,-1.5741,-1.5507,-1.5507,-1.5329,-1.4982,-1.4856,-1.4651,-1.4397,-1.4098,-1.3868,-1.3661,-1.3493,-1.3288,-1.3141,-1.3141,-1.299,-1.278,-0.6573,-0.6535,-0.6535,-0.6535,-0.6421,-0.6245,-0.6021,-0.5912,-0.5819,-0.5638,-0.5536,-0.5442,-0.5386,-0.5316,-0.5246,-0.5207,-0.5144,-0.5081,-0.4992,-0.5087,-0.519,-0.5333,-0.5299,-0.5324,-0.5431,-0.5337,-0.5347,-0.5386,-0.5417,-0.5543,0.0,0.0,0.0,0.0,-0.5989,-0.6044,-0.6067,-0.6199,-0.623,-0.623,-0.6284,-0.6315,-0.6315,-0.6315,-0.6315,-0.6315,-0.6315,-0.6315,-0.6307,-0.639,-0.6452,-0.6521,-0.6565,-0.6725,-0.6885,-0.6936,-0.7026,-0.7086,-0.7145,-0.7303,-0.746,-0.749,-0.7578,-0.7666,-0.7695,-0.7725,-0.7744,-0.7802,-0.7821,-0.7879,-0.7994,-0.8023,-0.8052,-0.8187,-0.8272,-0.8329,0.0,-0.8628,-0.8822,-0.8937,-0.9015,-0.9135,-0.9328,-0.9567,-0.9828,-1.0097,-1.148,-1.2439,-1.2775,-1.4164,-1.5072,-1.5328,-1.5522,-1.5668,-1.5827,-1.5871,-1.59,-1.59,-1.5871,-1.5741,-1.5507,-1.5477,-1.5285,-1.4982,-1.4825,-1.462,-1.4351,-1.4092,-1.3815,-1.3547,-1.3391,-1.3185,-1.299,-1.2967,-1.2745,-1.2425,-0.649,-0.6421,-0.6382,-0.6382,-0.6284,-0.6137,-0.6021,-0.5874,-0.5718,-0.5529,-0.5442,-0.5386,-0.5309,-0.5239,-0.5207,-0.5169,-0.5093,-0.5011,-0.5011,-0.5023,-0.5222,-0.5607,-0.5372,-0.5379,-0.5697,-0.5464,-0.5388,-0.5438,-0.5487,-0.5582,0.0,0.0,0.0,0.0,-0.6114,-0.6207,-0.6207,-0.6292,-0.6315,-0.6315,-0.6315,-0.6315,-0.6315,-0.6315,-0.6315,-0.6315,-0.6315,-0.6315,-0.6307,-0.636,-0.6452,-0.6521,-0.6573,-0.6673,-0.6811,-0.6885,-0.6936,-0.7017,-0.7095,-0.7253,-0.7411,-0.749,-0.7539,-0.7618,-0.7695,-0.7744,-0.7792,-0.7802,-0.7869,-0.7984,-0.8158,-0.8215,-0.8272,-0.8393,-0.8488,-0.8572,-0.8701,-0.8933,-0.9135,-0.9217,-0.9232,-0.9286,-0.9408,-0.9672,-0.9905,-1.0161,-1.1493,-1.2481,-1.2844,-1.4238,-1.5134,-1.5389,-1.5668,-1.5827,-1.5885,-1.59,-1.59,-1.5885,-1.5827,-1.5697,-1.5507,-1.5418,-1.5269,-1.4968,-1.4794,-1.4556,-1.4268,-1.4007,-1.3741,-1.3459,-1.3267,-1.3012,-1.2768,-1.2709,-1.2449,-1.2044,-0.6421,-0.6337,-0.6261,-0.6261,-0.6129,-0.5998,-0.5874,-0.5787,-0.5638,-0.5449,-0.5417,-0.5347,-0.5239,-0.5207,-0.5144,-0.4985,-0.5115,-0.5212,-0.5138,-0.5398,-0.5577,-0.5688,-0.5763,-0.5829,-0.5937,-0.5936,-0.593,-0.5846,-0.5872,-0.5851,-0.5787,0.0,0.0,0.0,-0.6137,-0.623,-0.6284,-0.6284,-0.6315,-0.6315,-0.6315,-0.6315,-0.6315,-0.6315,-0.6315,-0.6315,-0.6315,-0.6315,-0.6315,-0.6307,-0.636,-0.6452,-0.6513,-0.6573,-0.6695,-0.6855,-0.6915,-0.6936,-0.7065,-0.7184,-0.7273,-0.7411,-0.7519,-0.7618,-0.7618,-0.7705,-0.7821,-0.7869,-0.7994,-0.8148,-0.8262,-0.8308,-0.8393,-0.8533,-0.8723,-0.89,-0.8999,-0.9124,-0.9286,-0.9405,-0.9552,-0.9646,-0.9698,-0.9893,-1.0328,-1.1018,-1.202,-1.2927,-1.3643,-1.4613,-1.5254,-1.5477,-1.558,-1.5755,-1.5983,-1.5913,-1.5913,-1.5983,-1.5856,-1.5697,-1.5492,-1.5388,-1.5163,-1.4918,-1.4641,-1.4433,-1.4203,-1.3941,-1.3674,-1.3391,-1.3069,-1.2685,-1.2294,-1.2258,-1.2186,-1.2008,-0.6315,-0.6191,-0.6106,-0.6044,-0.5967,-0.5874,-0.5811,-0.5693,-0.5536,-0.5379,-0.5316,-0.5246,-0.5112,-0.5081,-0.5068,-0.5063,-0.519,-0.5291,-0.5371,-0.5554,-0.5732,-0.5849,-0.5926,-0.6032,-0.6162,-0.6188,-0.6224,-0.623,-0.6054,-0.6001,-0.6025,0.0,0.0,0.0,-0.616,-0.6261,-0.6315,-0.6315,-0.6315,-0.6315,-0.6315,-0.6315,0.0,-0.6315,-0.6315,-0.6315,-0.6315,-0.6315,-0.6315,-0.6315,-0.6337,-0.6413,-0.6452,-0.6513,-0.6573,-0.6725,-0.6824,-0.6893,-0.6975,-0.7086,-0.7175,-0.7273,-0.7421,-0.7569,-0.7588,-0.7734,-0.785,-0.7898,-0.808,-0.8272,-0.8375,-0.8449,-0.8561,-0.8767,-0.8999,-0.9162,-0.9205,-0.9339,-0.9473,-0.9605,-1.0038,-1.0309,-1.0402,-1.0508,-1.0821,-1.1389,-1.2498,-1.3387,-1.397,-1.4803,-1.5344,-1.5492,-1.5639,-1.5784,-1.5955,-1.5913,-1.5913,-1.5955,-1.5784,-1.561,-1.5448,-1.5328,-1.5117,-1.4839,-1.456,-1.4337,-1.4092,-1.3795,-1.3539,-1.3254,-1.2838,-1.2437,-1.2043,-1.1658,-1.1543,-1.144,-0.6176,-0.6067,-0.5928,-0.5811,-0.578,-0.5749,-0.5749,-0.5592,-0.5428,-0.5309,-0.5214,-0.5132,-0.5042,-0.4978,-0.5057,-0.5307,-0.5327,-0.5402,-0.5632,-0.5681,-0.5847,-0.6126,-0.6021,-0.6124,-0.6413,-0.6329,-0.6365,-0.6516,-0.6243,-0.6179,0.0,0.0,0.0,0.0,-0.6191,-0.6284,-0.6315,-0.6315,-0.6315,-0.6315,-0.6315,-0.6315,-0.6315,-0.6284,-0.6284,-0.6284,-0.6276,-0.6284,-0.6284,-0.6315,-0.6337,-0.639,-0.6382,-0.6452,-0.649,-0.6565,-0.6673,-0.6781,-0.6863,-0.6975,-0.7095,-0.7175,-0.7362,-0.751,-0.7559,-0.7753,-0.7898,-0.7927,-0.8138,-0.8347,-0.8499,-0.86,-0.8767,-0.9081,-0.9232,-0.939,-0.9518,-0.9676,-0.9845,-1.004,-1.0653,0.0,-1.1346,-1.1346,-1.1481,-1.175,-1.298,-1.385,-1.4141,-1.4935,-1.5418,-1.5507,-1.5741,-1.59,-1.59,-1.59,-1.59,-1.5871,-1.5668,-1.5522,-1.5389,-1.5238,-1.5025,-1.4732,-1.4493,-1.4222,-1.3934,-1.3615,-1.3323,-1.306,-1.2544,-1.2222,-1.1911,-1.1096,-1.0723,-1.0558,-0.6029,-0.5936,-0.5811,-0.5811,-0.5655,-0.5529,-0.5404,-0.5372,-0.5309,-0.5239,-0.5119,-0.508,-0.5218,-0.5243,-0.5313,-0.5548,-0.573,-0.5875,-0.5918,-0.6143,-0.6289,-0.6343,-0.6366,-0.6492,-0.6639,-0.6748,-0.6726,-0.6683,-0.6698,-0.6525,0.0,0.0,0.0,0.0,-0.6168,-0.6261,-0.6315,-0.6315,-0.6315,-0.6315,-0.6315,-0.6315,-0.6284,-0.623,-0.6207,-0.6199,-0.6091,-0.6129,-0.623,-0.6284,-0.6261,-0.6261,-0.636,-0.6413,-0.6421,-0.649,-0.6573,-0.6665,-0.6772,-0.6915,-0.7017,-0.7095,-0.7303,-0.7519,-0.7519,-0.7705,-0.7927,-0.8043,-0.8233,-0.8421,-0.8572,-0.8822,-0.9081,-0.9232,-0.9378,-0.9683,-1.03,-1.0526,-1.0812,-1.1455,-1.1741,-1.1966,-1.2151,-1.2179,-1.248,-1.3169,-1.3623,-1.4151,-1.4783,-1.5197,-1.5418,-1.5507,-1.5712,-1.5827,-1.59,-1.5856,-1.5827,-1.5827,-1.561,-1.5433,-1.5298,-1.5056,-1.4825,-1.4547,-1.4319,-1.4072,-1.3808,-1.3527,-1.3069,-1.2508,-1.2258,-1.1943,-1.1531,-1.0954,-1.0313,-0.9751,-0.585,-0.5749,-0.5624,-0.5599,-0.5467,-0.5372,-0.5277,-0.5144,-0.5081,-0.5049,-0.5118,-0.5169,-0.5132,-0.5264,-0.5413,-0.5597,-0.5732,-0.5856,-0.5991,-0.6204,-0.6276,-0.6276,-0.6441,-0.6568,-0.6715,-0.6836,-0.6932,-0.6956,-0.6913,-0.68,-0.6621,-0.6486,-0.6334,-0.6248,-0.6238,-0.6253,-0.6315,-0.6315,-0.6315,-0.6315,-0.6315,-0.6284,-0.623,-0.6207,-0.6168,-0.6098,-0.6029,-0.6036,-0.6044,-0.6122,-0.6122,-0.6098,-0.6176,-0.6237,-0.6315,-0.6368,-0.6452,-0.6535,-0.6673,-0.6794,-0.6915,-0.7026,-0.7205,-0.7383,-0.749,-0.7676,-0.7879,-0.8054,-0.8301,-0.8544,-0.8806,-0.9069,-0.9368,-0.9765,-1.0019,-1.0393,-1.104,-1.1289,-1.1564,-1.1968,-1.2433,-1.2767,-1.2914,-1.3318,-1.3629,-1.3734,-1.419,-1.4607,-1.5074,-1.5329,-1.5477,-1.5507,-1.5712,-1.5827,-1.5856,-1.5741,-1.5712,-1.5697,-1.5492,-1.5358,-1.5253,-1.4963,-1.47,-1.4433,-1.4208,-1.3914,-1.3594,-1.3185,-1.2733,-1.2222,-1.2029,-1.1592,-1.1003,-1.0342,-0.964,-0.8989,-0.5669,-0.5568,-0.5435,-0.5386,-0.5331,-0.5306,-0.5242,-0.5124,-0.5006,-0.495,-0.5107,-0.5221,-0.512,-0.5311,-0.5492,-0.567,-0.5692,-0.5772,-0.5964,-0.6099,-0.6184,-0.6184,-0.6349,-0.6526,-0.6666,-0.6793,-0.6963,-0.7132,-0.7011,-0.6978,-0.7033,-0.6709,-0.6525,-0.6484,-0.634,-0.6284,-0.6315,-0.6315,-0.6284,-0.6284,-0.6284,-0.623,-0.6168,-0.6145,-0.6075,-0.5967,-0.5936,-0.5912,-0.5857,-0.5874,-0.5928,-0.5967,-0.599,-0.6067,-0.6168,-0.6222,-0.6299,-0.639,-0.6513,-0.6673,-0.6842,-0.6936,-0.7077,-0.7255,-0.7451,-0.7656,-0.786,-0.8082,-0.8368,-0.8723,-0.9081,-0.9395,-0.9788,-1.0323,-1.0721,-1.121,-1.1797,-1.2084,-1.2331,-1.2539,-1.3132,-1.3568,-1.369,-1.4315,-1.4567,-1.4165,-1.4619,-1.498,-1.5192,-1.5374,-1.5477,-1.5477,-1.5639,-1.5741,-1.5741,-1.5639,-1.5551,-1.5522,-1.5373,-1.5253,-1.5117,-1.4856,-1.4574,-1.4319,-1.4046,-1.3735,-1.3344,-1.2838,-1.2413,-1.1982,-1.1698,-1.1168,-1.0449,-0.9594,-0.8913,-0.8413,-0.5529,-0.5404,-0.5309,-0.5316,-0.5366,-0.5371,-0.5308,-0.5365,-0.5353,-0.512,-0.505,-0.5149,-0.5494,-0.5562,-0.5675,-0.5925,-0.5942,-0.5953,-0.5976,-0.6019,-0.6062,-0.6179,-0.6221,-0.6307,-0.6526,-0.666,-0.6793,-0.6914,-0.7098,-0.7066,-0.6908,-0.6983,-0.6834,-0.6484,-0.6292,-0.623,-0.6315,-0.6315,-0.6261,-0.6207,-0.6207,-0.6129,-0.5998,-0.5951,-0.592,-0.5888,-0.5763,-0.5739,-0.5701,-0.5592,-0.5718,-0.5912,-0.5967,-0.599,-0.6029,-0.6021,-0.6153,-0.6307,-0.6337,-0.656,-0.6811,-0.6885,-0.7056,-0.7255,-0.7451,-0.7656,-0.7889,-0.813,-0.8594,-0.901,-0.9232,-0.9789,-1.0323,-1.0691,-1.1235,-1.1904,-1.2667,-1.2883,-1.328,-1.4006,-1.4178,-1.4301,-1.4554,-1.4704,-1.4828,-1.4897,-1.4954,-1.5058,-1.5178,-1.5344,-1.5418,-1.5418,-1.5477,-1.5551,-1.5551,-1.5522,-1.5433,-1.5343,-1.5313,-1.5147,-1.4839,-1.461,-1.4342,-1.4032,-1.3894,-1.3493,-1.2931,-1.2579,-1.2186,-1.1766,-1.1069,-1.0556,-1.0031,-0.8983,-0.843,-0.8121,-0.5372,-0.5385,-0.5371,-0.5371,-0.5431,-0.5468,-0.5438,-0.5376,-0.5308,-0.529,-0.5345,-0.5386,-0.5458,-0.5608,-0.5736,-0.5798,-0.5809,-0.5809,-0.5809,-0.5841,-0.5922,-0.5964,-0.6093,-0.627,-0.6447,-0.6532,-0.6702,-0.6914,-0.7034,-0.7099,-0.7066,-0.7093,-0.6855,-0.6443,-0.6181,-0.6098,-0.6122,-0.6122,-0.6091,-0.6067,-0.6067,-0.6036,-0.5943,-0.5881,-0.5819,-0.5763,-0.5631,-0.5568,-0.5568,-0.5529,-0.5561,-0.5655,-0.5679,-0.5749,-0.5819,-0.5874,-0.5967,-0.6098,-0.6253,-0.6407,-0.656,-0.6772,-0.6915,-0.7086,-0.7372,-0.7608,-0.7841,-0.813,-0.8622,-0.9184,-0.9741,-1.0181,-1.0776,-1.1613,-1.2117,-1.2649,-1.3343,-1.3648,-1.3933,-1.4273,-1.4461,-1.462,-1.4746,-1.4839,-1.4932,-1.5102,-1.5133,-1.5163,-1.5253,-1.5344,-1.5389,-1.5389,-1.5477,-1.5477,-1.5448,-1.5403,-1.5328,-1.5253,-1.5086,-1.4902,-1.4746,-1.4497,-1.4144,-1.3682,-1.3391,-1.3012,-1.2579,-1.2246,-1.1872,-1.1424,-1.0741,-1.0085,-0.9456,-0.8532,-0.7935,-0.7464,-0.5339,-0.5367,-0.5416,-0.5416,-0.5498,-0.5521,-0.5521,-0.5431,-0.5386,-0.5482,-0.5509,-0.5509,-0.5416,-0.5567,-0.5626,-0.5593,-0.5631,-0.5631,-0.5631,-0.5712,-0.5793,-0.5787,-0.5964,-0.6184,-0.6325,-0.6447,-0.6575,-0.6787,-0.6901,-0.7034,-0.716,-0.7117,-0.6868,-0.6483,-0.6221,-0.6081,-0.599,-0.599,-0.5998,-0.5967,-0.5967,-0.5912,-0.5826,-0.5749,-0.5655,-0.5599,-0.5498,-0.5428,-0.539,-0.5365,-0.5365,-0.5365,-0.546,-0.5561,-0.5638,-0.5686,-0.5787,-0.5912,-0.6091,-0.6222,-0.6376,-0.6659,-0.6803,-0.6975,-0.7322,-0.7558,-0.7812,-0.8244,-0.8695,-0.9269,-1.0087,-1.0575,-1.1215,-1.2342,-1.2903,-1.3355,-1.3888,-1.417,-1.4365,-1.4461,-1.462,-1.4763,-1.4856,-1.4932,-1.5056,-1.5192,-1.5222,-1.5253,-1.5313,-1.5344,-1.5374,-1.5344,-1.5403,-1.5359,-1.5285,-1.5238,-1.5147,-1.5086,-1.4825,-1.4669,-1.4588,-1.4222,-1.3828,-1.3357,-1.2965,-1.2615,-1.2294,-1.192,-1.1502,-1.0925,-1.0266,-0.95,-0.875,-0.8026,-0.7412,-0.6906,-0.5396,-0.5438,-0.5509,-0.5509,-0.5549,-0.5607,-0.5607,-0.5644,-0.5712,-0.5717,-0.5458,-0.5366,-0.5486,-0.5366,-0.5285,-0.5285,-0.541,-0.5491,-0.5491,-0.5631,-0.5717,-0.5787,-0.5787,-0.5922,-0.6179,-0.6325,-0.6453,-0.652,-0.6781,-0.695,-0.7014,-0.7069,-0.6953,-0.6688,-0.6491,-0.6261,-0.599,-0.599,-0.5967,-0.5888,-0.5819,-0.5756,-0.5676,-0.5561,-0.546,-0.539,-0.534,-0.5207,-0.5099,-0.5023,-0.4992,-0.5055,-0.5397,-0.5491,-0.5491,-0.5491,-0.5655,-0.5811,-0.5811,-0.606,-0.6337,-0.6468,-0.6703,-0.6975,-0.7322,-0.7558,-0.787,-0.846,-0.885,-0.9341,-1.0144,-1.0956,-1.1787,-1.2639,-1.3415,-1.3974,-1.4268,-1.4365,-1.4493,-1.4777,-1.4808,-1.4856,-1.4968,-1.5133,-1.5192,-1.5192,-1.5253,-1.5313,-1.5313,-1.5313,-1.5283,-1.5208,-1.5192,-1.5133,-1.5013,-1.4949,-1.4871,-1.4808,-1.461,-1.442,-1.43,-1.3749,-1.3357,-1.3072,-1.2685,-1.2365,-1.2077,-1.1664,-1.1024,-1.0255,-0.949,-0.874,-0.7935,-0.733,-0.6906,-0.6565,-0.5468,-0.5605,-0.5673,-0.5601,-0.5646,-0.5725,-0.5694,-0.5626,-0.5545,-0.5458,-0.5328,-0.5236,-0.528,-0.5285,-0.5285,-0.5285,-0.5328,-0.5371,-0.5371,-0.5496,-0.5583,-0.5577,-0.5744,-0.5879,-0.6062,-0.6184,-0.6355,-0.6477,-0.6568,-0.6774,-0.7014,-0.6895,-0.6827,-0.6817,-0.6321,-0.6063,-0.5996,-0.5741,-0.5655,-0.5624,-0.5592,-0.5592,-0.5561,-0.5404,-0.534,-0.5309,-0.5151,-0.5049,-0.4947,-0.4953,-0.4896,-0.487,-0.4998,-0.5087,-0.5182,-0.5201,-0.5334,-0.5467,-0.5561,-0.578,-0.5998,-0.6168,-0.6421,-0.6703,-0.7056,-0.7559,-0.808,-0.846,-0.8834,-0.9445,-1.0642,-1.1233,-1.1974,-1.3155,-1.3776,-1.4138,-1.4268,-1.4525,-1.4714,-1.4808,-1.4873,-1.4996,-1.5133,-1.5178,-1.5222,-1.5253,-1.5253,-1.5222,-1.5222,-1.5222,-1.5178,-1.5058,-1.5058,-1.4996,-1.4842,-1.4825,-1.4746,-1.4525,-1.4383,-1.4124,-1.3749,-1.3391,-1.3094,-1.2815,-1.2401,-1.2029,-1.1664,-1.1319,-1.0683,-0.9888,-0.9205,-0.8508,-0.7762,-0.7046,-0.6604,-0.6368,-0.5527,-0.5688,-0.5779,-0.5666,-0.5657,-0.5663,-0.555,-0.5458,-0.5366,-0.5285,-0.5198,-0.5111,-0.5111,-0.5159,-0.5203,-0.5203,-0.5241,-0.5241,-0.5241,-0.5366,-0.5453,-0.5491,-0.562,-0.575,-0.5927,-0.6056,-0.6227,-0.6398,-0.6477,-0.6647,-0.6943,-0.6847,-0.682,-0.6809,-0.639,-0.6131,-0.597,-0.5655,-0.5491,-0.5491,-0.5435,-0.5435,-0.5397,-0.5246,-0.5151,-0.5093,-0.4966,-0.4864,-0.4736,-0.4736,-0.4672,-0.4646,-0.4614,-0.4672,-0.4762,-0.4979,-0.5112,-0.5214,-0.5372,-0.5561,-0.5742,-0.5975,-0.6237,-0.6551,-0.7047,-0.7608,-0.8109,-0.8432,-0.8817,-0.9475,-1.0858,-1.1387,-1.2056,-1.3434,-1.396,-1.4222,-1.4351,-1.4637,-1.4825,-1.4887,-1.4996,-1.5133,-1.5222,-1.5253,-1.5253,-1.5313,-1.5253,-1.5178,-1.5133,-1.5133,-1.5058,-1.4935,-1.4921,-1.4842,-1.4651,-1.462,-1.4479,-1.4254,-1.4026,-1.3728,-1.3323,-1.306,-1.278,-1.2449,-1.2029,-1.1664,-1.1255,-1.0878,-1.0173,-0.9259,-0.8781,-0.8072,-0.7247,-0.6688,-0.6329,-0.606,-0.563,-0.5728,-0.575,-0.5717,-0.5583,-0.5453,-0.5328,-0.5241,-0.5193,-0.5193,-0.5067,-0.4985,-0.4985,-0.4985,-0.4985,-0.4985,-0.5111,-0.5193,-0.5193,-0.5241,-0.5371,-0.5491,-0.5491,-0.5577,-0.5793,-0.5927,-0.6062,-0.6184,-0.6398,-0.6611,-0.6872,-0.6943,-0.688,-0.6699,-0.6553,-0.6313,-0.5964,-0.5626,-0.548,-0.546,-0.534,-0.5277,-0.5246,-0.5055,-0.4902,-0.4774,-0.478,-0.4652,-0.4458,-0.4388,-0.4355,-0.435,-0.428,-0.4248,-0.4344,-0.4756,-0.4922,-0.5023,-0.5214,-0.5372,-0.5522,-0.5797,-0.6083,-0.649,-0.7196,-0.7637,-0.7984,-0.8404,-0.8762,-0.9419,-1.0828,-1.1357,-1.2068,-1.3559,-1.404,-1.4287,-1.447,-1.4686,-1.4856,-1.4982,-1.5133,-1.5222,-1.5283,-1.5313,-1.5313,-1.5283,-1.5222,-1.5133,-1.4982,-1.4982,-1.4921,-1.4808,-1.4777,-1.4651,-1.4397,-1.4332,-1.4176,-1.3967,-1.3615,-1.3323,-1.306,-1.278,-1.2449,-1.2041,-1.1627,-1.1217,-1.084,-1.0399,-0.9552,-0.8461,-0.8235,-0.7464,-0.646,-0.6307,-0.6029,-0.5718,-0.5756,-0.5717,-0.5674,-0.5583,-0.5453,-0.5328,-0.5241,-0.5193,-0.5106,-0.4932,-0.4845,-0.4801,-0.4709,-0.4709,-0.4753,-0.4849,-0.4985,-0.5029,-0.5029,-0.5154,-0.5236,-0.528,-0.541,-0.5583,-0.5717,-0.5798,-0.5964,-0.6184,-0.6361,-0.6489,-0.6611,-0.6702,-0.6755,-0.6684,-0.6467,-0.6174,-0.5887,-0.5559,-0.5313,-0.5119,-0.5087,-0.5055,-0.4985,-0.4902,-0.4736,-0.457,-0.4511,-0.4355,-0.4194,-0.4123,-0.4058,-0.3988,-0.3863,-0.3831,-0.3928,-0.4382,-0.457,-0.466,-0.487,-0.5055,-0.5264,-0.5515,-0.6021,-0.6551,-0.6987,-0.7423,-0.784,-0.8205,-0.8561,-0.93,-1.0737,-1.1308,-1.2007,-1.3559,-1.4072,-1.4319,-1.447,-1.4752,-1.4951,-1.5013,-1.5163,-1.5283,-1.5313,-1.5313,-1.5283,-1.5222,-1.5102,-1.4996,-1.4856,-1.4794,-1.4763,-1.4732,-1.4588,-1.4461,-1.4332,-1.4144,-1.3901,-1.3547,-1.3207,-1.2896,-1.2615,-1.2365,-1.2029,-1.1627,-1.1217,-1.0802,-1.0408,-0.9781,-0.9013,-0.814,-0.7645,-0.6941,-0.616,-0.5882,-0.5617,-0.5372,-0.5679,-0.5626,-0.5539,-0.541,-0.528,-0.5198,-0.5062,-0.5019,-0.4932,-0.4753,-0.4709,-0.4666,-0.4618,-0.4618,-0.4618,-0.4709,-0.4845,-0.4941,-0.4985,-0.5072,-0.5154,-0.5193,-0.5323,-0.5453,-0.5588,-0.5712,-0.5884,-0.6105,-0.6196,-0.6282,-0.6447,-0.6538,-0.663,-0.6702,-0.6403,-0.6226,-0.606,-0.5544,-0.5258,-0.5109,-0.4913,-0.4762,-0.4724,-0.464,-0.4479,-0.4312,-0.4253,-0.4123,-0.3993,-0.3863,-0.3798,-0.3761,-0.3635,-0.3602,-0.3667,-0.3961,-0.4151,-0.4344,-0.4602,-0.4762,-0.4979,-0.5397,-0.5921,-0.6421,-0.6816,-0.7255,-0.7666,-0.8091,-0.8449,-0.9091,-1.032,-1.1046,-1.1857,-1.3129,-1.3807,-1.4241,-1.447,-1.4766,-1.4966,-1.5013,-1.5163,-1.5313,-1.5313,-1.5313,-1.5283,-1.5222,-1.5088,-1.4921,-1.4808,-1.4651,-1.4556,-1.4525,-1.4397,-1.4235,-1.4072,-1.3749,-1.3446,-1.3185,-1.2826,-1.2544,-1.233,-1.1957,-1.1627,-1.1217,-1.0812,-1.0281,-0.9706,-0.9179,-0.8379,-0.7509,-0.704,-0.6416,-0.5758,-0.5453,-0.5169,-0.4928,-0.5534,-0.5491,-0.5404,-0.5236,-0.5149,-0.5062,-0.4845,-0.4801,-0.4709,-0.4618,-0.4578,-0.4574,-0.4574,-0.4574,-0.4574,-0.4578,-0.467,-0.4806,-0.4941,-0.4941,-0.5024,-0.5149,-0.5193,-0.528,-0.5448,-0.5588,-0.5766,-0.5938,-0.5938,-0.6067,-0.6331,-0.6331,-0.641,-0.6575,-0.6366,-0.6234,-0.6165,-0.5597,-0.5286,-0.5189,-0.4781,-0.4534,-0.4436,-0.4382,-0.4226,-0.4031,-0.3961,-0.3891,-0.3793,-0.3602,-0.3536,-0.3504,-0.3434,-0.3401,-0.3434,-0.3504,-0.3695,-0.3956,-0.4339,-0.4532,-0.4762,-0.5334,-0.5765,-0.6168,-0.6621,-0.7065,-0.7462,-0.7927,-0.8308,-0.8855,-0.9823,-1.0744,-1.1677,-1.2639,-1.3453,-1.4117,-1.4438,-1.4732,-1.4918,-1.4982,-1.5163,-1.5283,-1.5313,-1.5283,-1.5238,-1.5178,-1.5058,-1.4904,-1.4746,-1.4493,-1.4332,-1.4235,-1.417,-1.4007,-1.3687,-1.3279,-1.2955,-1.2791,-1.2473,-1.2186,-1.1957,-1.159,-1.118,-1.0764,-1.0321,-0.9715,-0.8967,-0.8471,-0.7682,-0.6776,-0.6438,-0.5917,-0.5295,-0.5017,-0.473,-0.4473,-0.5491,-0.5366,-0.5236,-0.5193,-0.5019,-0.4845,-0.4801,-0.4709,-0.4622,-0.4543,-0.4499,-0.4451,-0.436,-0.436,-0.4403,-0.4499,-0.4543,-0.4583,-0.4661,-0.4757,-0.4849,-0.4845,-0.5062,-0.5193,-0.5236,-0.5328,-0.5501,-0.5766,-0.5766,-0.5852,-0.6062,-0.6062,-0.6067,-0.6105,-0.6064,-0.5925,-0.5682,-0.5607,-0.5244,-0.4772,-0.4733,-0.4464,-0.4161,-0.4091,-0.3933,-0.377,-0.37,-0.3536,-0.3377,-0.3307,-0.3241,-0.3171,-0.3035,-0.2999,-0.3032,-0.3138,-0.3241,-0.3438,-0.3928,-0.4415,-0.487,-0.5246,-0.5592,-0.5959,-0.636,-0.6777,-0.7187,-0.7656,-0.807,-0.8656,-0.9706,-1.0636,-1.1567,-1.2557,-1.3421,-1.4098,-1.4383,-1.4651,-1.4856,-1.4982,-1.5133,-1.5253,-1.5283,-1.5253,-1.5163,-1.5043,-1.4904,-1.4732,-1.4493,-1.4332,-1.4105,-1.3888,-1.3888,-1.3641,-1.3198,-1.292,-1.2627,-1.2318,-1.2029,-1.1737,-1.1431,-1.1132,-1.0764,-1.0331,-0.9592,-0.903,-0.8512,-0.7548,-0.6846,-0.6346,-0.573,-0.5279,-0.4953,-0.4608,-0.435,-0.4129,-0.5366,-0.528,-0.5149,-0.5019,-0.4888,-0.4757,-0.4675,-0.4583,-0.4495,-0.4412,-0.4408,-0.4364,-0.4316,-0.4316,-0.432,-0.4364,-0.4408,-0.4408,-0.4447,-0.4578,-0.4709,-0.4709,-0.4797,-0.4927,-0.5067,-0.5241,-0.5371,-0.5501,-0.5501,-0.5588,-0.5712,-0.5712,-0.5755,-0.5847,-0.5847,-0.5791,-0.5633,-0.5419,-0.515,-0.4845,-0.4562,-0.4266,-0.3962,-0.3808,-0.3635,-0.3475,-0.3372,-0.3237,-0.3072,-0.301,-0.2944,-0.2878,-0.2808,-0.2808,-0.2808,-0.2874,-0.3105,-0.3434,-0.3826,-0.4215,-0.4576,-0.4934,-0.5309,-0.5672,-0.6083,-0.6504,-0.6918,-0.7423,-0.784,-0.8314,-0.9056,-0.9945,-1.0925,-1.1987,-1.2818,-1.3589,-1.4246,-1.4588,-1.4763,-1.4873,-1.5086,-1.5178,-1.5133,-1.5178,-1.5117,-1.4904,-1.4825,-1.4683,-1.4365,-1.4176,-1.3947,-1.3641,-1.3506,-1.3198,-1.2768,-1.2508,-1.2222,-1.1872,-1.1542,-1.1207,-1.0905,-1.0358,-0.9922,-0.9545,-0.8757,-0.8103,-0.7598,-0.6877,-0.6238,-0.5718,-0.5235,-0.4832,-0.4468,-0.4156,-0.3863,-0.3626,-0.5226,-0.5149,-0.5062,-0.4845,-0.4757,-0.4675,-0.4543,-0.446,-0.4368,-0.4276,-0.4232,-0.4184,-0.4184,-0.4184,-0.4184,-0.4184,-0.4184,-0.4184,-0.4184,-0.436,-0.4487,-0.4574,-0.4574,-0.4709,-0.4893,-0.5067,-0.5149,-0.5198,-0.5198,-0.5241,-0.5366,-0.5366,-0.5458,-0.555,-0.555,-0.555,-0.5496,-0.5188,-0.4999,-0.4838,-0.4394,-0.4062,-0.3819,-0.356,-0.334,-0.3175,-0.3076,-0.294,-0.2805,-0.2746,-0.2683,-0.2616,-0.2616,-0.2616,-0.2616,-0.2616,-0.2944,-0.3368,-0.3695,-0.3923,-0.4183,-0.4576,-0.4985,-0.539,-0.5804,-0.6237,-0.6686,-0.7196,-0.7598,-0.8013,-0.8477,-0.934,-1.0315,-1.1427,-1.2288,-1.3127,-1.4109,-1.4447,-1.4683,-1.4808,-1.4994,-1.5117,-1.5013,-1.5072,-1.5025,-1.4839,-1.4746,-1.4543,-1.4254,-1.4013,-1.3702,-1.3276,-1.3082,-1.2768,-1.2401,-1.2022,-1.1642,-1.1304,-1.0819,-1.0436,-1.0149,-0.9446,-0.8986,-0.8638,-0.7876,-0.721,-0.6677,-0.6194,-0.566,-0.5087,-0.4736,-0.4382,-0.4016,-0.37,-0.3401,-0.313,-0.5153,-0.5019,-0.4845,-0.4801,-0.4631,-0.4499,-0.4504,-0.4284,-0.4108,-0.4108,-0.4016,-0.3924,-0.3924,-0.3924,-0.3924,-0.3924,-0.3924,-0.3924,-0.3924,-0.3924,-0.4104,-0.4499,-0.4578,-0.4618,-0.4618,-0.4661,-0.4709,-0.4845,-0.4845,-0.4893,-0.5029,-0.5029,-0.5033,-0.5033,-0.5033,-0.5033,-0.5029,-0.5014,-0.481,-0.4509,-0.4351,-0.4039,-0.3614,-0.3389,-0.3144,-0.2937,-0.2845,-0.2712,-0.254,-0.251,-0.2447,-0.232,-0.232,-0.232,-0.232,-0.232,-0.2517,-0.2845,-0.3245,-0.3541,-0.3831,-0.4145,-0.4596,-0.5042,-0.5428,-0.5936,-0.646,-0.6927,-0.7393,-0.7859,-0.8326,-0.9225,-1.0208,-1.1174,-1.209,-1.3031,-1.3887,-1.4241,-1.4525,-1.4777,-1.4871,-1.4949,-1.4982,-1.4904,-1.4839,-1.4808,-1.4525,-1.4254,-1.4032,-1.3702,-1.3242,-1.2603,-1.2544,-1.2401,-1.215,-1.1372,-1.0788,-1.04,-0.9685,-0.9165,-0.8831,-0.8509,-0.8176,-0.7744,-0.7001,-0.6499,-0.6118,-0.5385,-0.4876,-0.4532,-0.4183,-0.3896,-0.3597,-0.3274,-0.301,-0.2782,-0.4938,-0.4888,-0.4757,-0.4631,-0.4543,-0.4456,-0.4284,-0.4152,-0.4064,-0.3972,-0.3928,-0.388,-0.388,-0.388,-0.388,-0.388,-0.388,-0.388,-0.388,-0.388,-0.3972,-0.4104,-0.4236,-0.4276,-0.4276,-0.436,-0.4447,-0.4491,-0.4491,-0.4495,-0.4583,-0.4583,-0.4583,-0.4583,-0.4583,-0.4583,-0.4583,-0.4583,-0.4457,-0.4217,-0.4011,-0.3765,-0.3484,-0.3194,-0.3008,-0.2871,-0.2672,-0.2504,-0.2355,-0.2239,-0.2114,-0.2047,-0.2047,-0.2047,-0.2081,-0.215,-0.225,-0.2417,-0.2815,-0.3241,-0.3663,-0.3988,-0.4409,-0.482,-0.5169,-0.5672,-0.6168,-0.6656,-0.7098,-0.7579,-0.8166,-0.8724,-0.9533,-1.09,-1.1647,-1.2473,-1.3572,-1.4092,-1.4397,-1.4525,-1.4714,-1.4825,-1.4825,-1.4794,-1.4714,-1.4525,-1.4332,-1.4092,-1.3769,-1.2968,-1.2314,-1.1837,-1.1251,-1.1069,-1.1303,-1.0493,-0.9917,-0.9541,-0.9018,-0.8599,-0.8253,-0.7671,-0.7264,-0.6899,-0.6178,-0.569,-0.5398,-0.4895,-0.45,-0.4151,-0.3826,-0.3462,-0.3134,-0.2841,-0.2543,-0.2281,-0.4711,-0.4717,-0.4631,-0.4456,-0.4416,-0.4284,-0.4064,-0.4016,-0.3928,-0.3836,-0.3792,-0.3748,-0.3748,-0.3704,-0.366,-0.366,-0.366,-0.366,-0.366,-0.366,-0.3748,-0.388,-0.3972,-0.402,-0.402,-0.4144,-0.4188,-0.4188,-0.4188,-0.4188,-0.4188,-0.414,-0.4096,-0.4096,-0.41,-0.41,-0.41,-0.41,-0.4016,-0.3924,-0.3716,-0.3514,-0.3296,-0.2998,-0.2817,-0.2692,-0.2486,-0.2347,-0.2228,-0.204,-0.1943,-0.1866,-0.1834,-0.1803,-0.1845,-0.1981,-0.2081,-0.2183,-0.2483,-0.2911,-0.3368,-0.3761,-0.4151,-0.4538,-0.4915,-0.539,-0.5921,-0.6413,-0.6837,-0.7314,-0.7937,-0.8336,-0.9067,-1.0649,-1.129,-1.2076,-1.338,-1.3947,-1.4254,-1.4365,-1.4574,-1.47,-1.4624,-1.4637,-1.4556,-1.43,-1.4092,-1.3828,-1.3344,-1.2335,-1.1578,-1.1206,-1.0179,-0.9745,-0.9987,-0.9417,-0.8978,-0.8646,-0.8115,-0.7685,-0.7349,-0.6737,-0.6299,-0.5996,-0.5415,-0.4979,-0.4704,-0.4377,-0.4053,-0.37,-0.3368,-0.3035,-0.2669,-0.2408,-0.2111,-0.1811,-0.4473,-0.4503,-0.4456,-0.432,-0.4192,-0.4064,-0.3928,-0.3788,-0.3697,-0.3697,-0.3527,-0.3398,-0.3398,-0.3262,-0.3214,-0.3214,-0.3214,-0.3214,-0.3214,-0.3214,-0.3391,-0.388,-0.388,-0.388,-0.388,-0.388,-0.388,-0.388,-0.388,-0.388,-0.388,-0.3744,-0.3697,-0.3697,-0.3619,-0.3581,-0.3581,-0.3581,-0.3581,-0.3578,-0.3442,-0.3221,-0.2971,-0.2852,-0.2574,-0.2319,-0.228,-0.2199,-0.208,-0.1999,-0.1921,-0.1787,-0.1625,-0.1612,-0.1642,-0.1847,-0.1981,-0.2117,-0.2253,-0.2553,-0.2915,-0.3368,-0.3798,-0.4226,-0.4678,-0.5151,-0.5648,-0.6183,-0.6665,-0.7127,-0.7627,-0.8145,-0.897,-1.0444,-1.1106,-1.1877,-1.328,-1.3769,-1.4065,-1.4254,-1.442,-1.4501,-1.4501,-1.4369,-1.4268,-1.4203,-1.3828,-1.3344,-1.2733,-1.186,-1.116,-1.0688,-0.9445,-0.8591,-0.8194,-0.8194,-0.8004,-0.7693,-0.6882,-0.6337,-0.599,-0.5648,-0.5302,-0.4992,-0.4698,-0.4415,-0.4064,-0.3803,-0.3508,-0.3175,-0.2812,-0.2543,-0.2272,-0.2011,-0.1742,-0.1475,-0.4235,-0.4223,-0.4134,-0.4172,-0.406,-0.3884,-0.3711,-0.3667,-0.3575,-0.3391,-0.3303,-0.3262,-0.3262,-0.3214,-0.3214,-0.3214,-0.3214,-0.3214,-0.3214,-0.3126,-0.3123,-0.3255,-0.3347,-0.3391,-0.3391,-0.3391,-0.3391,-0.3391,-0.3391,-0.3391,-0.3391,-0.3347,-0.33,-0.3211,-0.317,-0.3173,-0.309,-0.309,-0.309,-0.309,-0.2954,-0.2841,-0.2764,-0.2544,-0.2394,-0.2274,-0.204,-0.1935,-0.1884,-0.1703,-0.1605,-0.1602,-0.1539,-0.1483,-0.1496,-0.1707,-0.1763,-0.1811,-0.2083,-0.2347,-0.2643,-0.3171,-0.363,-0.4058,-0.4452,-0.496,-0.5491,-0.5921,-0.6452,-0.7005,-0.752,-0.7994,-0.8653,-0.9739,-1.067,-1.1597,-1.2529,-1.3336,-1.3927,-1.4065,-1.4208,-1.4287,-1.4287,-1.4176,-1.4046,-1.3908,-1.3357,-1.2667,-1.1836,-1.0922,-1.0092,-0.9392,-0.8328,-0.7611,-0.7296,-0.7339,-0.7195,-0.6865,-0.6385,-0.5959,-0.5648,-0.5309,-0.4953,-0.4628,-0.4312,-0.3988,-0.3667,-0.3401,-0.3039,-0.2676,-0.238,-0.2078,-0.1809,-0.1715,-0.1481,-0.1176,-0.3902,-0.3911,-0.3878,-0.3816,-0.38,-0.3707,-0.3486,-0.3442,-0.3353,-0.317,-0.3081,-0.304,-0.2996,-0.2948,-0.2904,-0.2904,-0.2904,-0.2904,-0.2904,-0.286,-0.2812,-0.2812,-0.286,-0.2993,-0.3084,-0.3084,-0.3084,-0.3084,-0.3084,-0.3084,-0.3084,-0.304,-0.2948,-0.286,-0.2812,-0.2771,-0.264,-0.264,-0.2642,-0.2556,-0.2509,-0.2464,-0.242,-0.2239,-0.2148,-0.2097,-0.1872,-0.181,-0.176,-0.1588,-0.1471,-0.1448,-0.149,-0.1444,-0.1425,-0.1539,-0.16,-0.1688,-0.1856,-0.2078,-0.2377,-0.2775,-0.3303,-0.3858,-0.4215,-0.4736,-0.5246,-0.5773,-0.6245,-0.6772,-0.7353,-0.7792,-0.8461,-0.9644,-1.0552,-1.1434,-1.2395,-1.3208,-1.3728,-1.3881,-1.4046,-1.4124,-1.4072,-1.3993,-1.3795,-1.3438,-1.2861,-1.2165,-1.1194,-1.0299,-0.9412,-0.8569,-0.764,-0.6957,-0.6595,-0.6496,-0.6382,-0.6214,-0.5866,-0.5561,-0.5214,-0.4858,-0.4505,-0.4178,-0.3853,-0.3532,-0.3204,-0.294,-0.261,-0.2278,-0.1978,-0.1711,-0.151,-0.1313,-0.1043,-0.0672,-0.3464,-0.354,-0.3559,-0.3344,-0.3423,-0.3473,-0.3214,-0.317,-0.3126,-0.299,-0.2907,-0.2821,-0.2687,-0.2595,-0.2504,-0.2504,-0.2504,-0.246,-0.2462,-0.2462,-0.2462,-0.2462,-0.246,-0.2551,-0.2779,-0.2823,-0.2868,-0.2868,-0.2868,-0.2823,-0.2823,-0.2687,-0.2642,-0.2642,-0.2506,-0.237,-0.2235,-0.2235,-0.2192,-0.2064,-0.2064,-0.202,-0.1928,-0.1928,-0.1884,-0.1748,-0.1748,-0.1748,-0.1703,-0.1614,-0.144,-0.1308,-0.1436,-0.1435,-0.1372,-0.138,-0.1535,-0.1653,-0.1599,-0.1845,-0.2147,-0.2341,-0.2937,-0.356,-0.4048,-0.4479,-0.4966,-0.5624,-0.606,-0.649,-0.7077,-0.7569,-0.8376,-0.9861,-1.0539,-1.1327,-1.2641,-1.3216,-1.356,-1.3741,-1.3881,-1.3934,-1.3874,-1.3788,-1.3472,-1.2803,-1.2354,-1.1696,-1.0749,-0.9843,-0.897,-0.8093,-0.7265,-0.6565,-0.6068,-0.5727,-0.5609,-0.5718,-0.5404,-0.5062,-0.471,-0.4312,-0.3956,-0.3639,-0.3364,-0.3068,-0.2716,-0.2444,-0.2178,-0.1914,-0.1609,-0.141,-0.1279,-0.0808,-0.0437,-0.0067,-0.3267,-0.3173,-0.3114,-0.3269,-0.3207,-0.3092,-0.2984,-0.2954,-0.2865,-0.2637,-0.2593,-0.2595,-0.2551,-0.2504,-0.2504,-0.2504,-0.2415,-0.2281,-0.2196,-0.2152,-0.2107,-0.2107,-0.2018,-0.1971,-0.2018,-0.2417,-0.2551,-0.2415,-0.2415,-0.2373,-0.2288,-0.2243,-0.2199,-0.2152,-0.2107,-0.2018,-0.1927,-0.1927,-0.1837,-0.1703,-0.1703,-0.1658,-0.1523,-0.1478,-0.1433,-0.1389,-0.1299,-0.1254,-0.1254,-0.1208,-0.1246,-0.1325,-0.1326,-0.1329,-0.1312,-0.1369,-0.1428,-0.1478,-0.1565,-0.1811,-0.2081,-0.2341,-0.2706,-0.3167,-0.37,-0.4318,-0.4902,-0.5309,-0.5874,-0.646,-0.6957,-0.7423,-0.8127,-0.9312,-1.0196,-1.1081,-1.2049,-1.2796,-1.3335,-1.3527,-1.3581,-1.3615,-1.3594,-1.3369,-1.299,-1.2389,-1.1722,-1.0876,-0.9843,-0.894,-0.8093,-0.7199,-0.6607,-0.6098,-0.5727,-0.5327,-0.5144,-0.5182,-0.482,-0.4505,-0.4156,-0.3863,-0.3532,-0.3204,-0.294,-0.2613,-0.2217,-0.1978,-0.1678,-0.1447,-0.138,-0.1076,-0.0639,-0.0303,0.0034,0.037,-0.2953,-0.2817,-0.2735,-0.2805,-0.2809,-0.2786,-0.2681,-0.2649,-0.2551,-0.2375,-0.2286,-0.2239,-0.2194,-0.215,-0.215,-0.215,-0.2105,-0.2016,-0.1973,-0.1928,-0.1884,-0.1884,-0.1839,-0.1749,-0.1703,-0.1927,-0.2059,-0.2059,-0.2059,-0.1971,-0.1839,-0.1839,-0.1794,-0.1703,-0.1703,-0.1658,-0.1569,-0.1569,-0.1478,-0.1344,-0.1344,-0.1299,-0.1254,-0.1208,-0.1208,-0.1208,-0.1119,-0.1119,-0.1119,-0.1119,-0.1164,-0.1208,-0.1208,-0.1235,-0.1289,-0.1315,-0.1335,-0.1418,-0.1489,-0.1643,-0.1878,-0.2145,-0.251,-0.294,-0.3536,-0.4091,-0.4634,-0.5112,-0.5648,-0.6245,-0.6794,-0.7294,-0.8,-0.9256,-1.0055,-1.0935,-1.2053,-1.269,-1.3116,-1.3323,-1.3425,-1.3391,-1.3242,-1.2978,-1.2579,-1.2066,-1.1279,-1.0379,-0.9285,-0.8412,-0.7553,-0.6659,-0.6137,-0.5665,-0.5257,-0.489,-0.4608,-0.4382,-0.4312,-0.4086,-0.3761,-0.3434,-0.3101,-0.2808,-0.2513,-0.2181,-0.1845,-0.1644,-0.1412,-0.1179,-0.0942,-0.0605,-0.0235,0.0101,0.0504,0.0908,-0.2646,-0.2502,-0.2371,-0.2291,-0.2376,-0.2429,-0.2342,-0.2249,-0.222,-0.2107,-0.202,-0.1884,-0.1748,-0.1748,-0.1748,-0.1703,-0.1703,-0.1703,-0.1703,-0.1658,-0.1658,-0.1658,-0.1658,-0.1614,-0.1523,-0.1523,-0.1569,-0.1703,-0.1703,-0.1658,-0.1523,-0.1523,-0.1433,-0.1344,-0.1344,-0.1344,-0.1299,-0.1254,-0.121,-0.112,-0.112,-0.1075,-0.1031,-0.1031,-0.1031,-0.1031,-0.1031,-0.1031,-0.1031,-0.1031,-0.1031,-0.1075,-0.1075,-0.1165,-0.1244,-0.1195,-0.1263,-0.1357,-0.1369,-0.1506,-0.1676,-0.1911,-0.2314,-0.2812,-0.3335,-0.3853,-0.4339,-0.4947,-0.5421,-0.5967,-0.6621,-0.7134,-0.7938,-0.9377,-1.0026,-1.083,-1.2224,-1.2662,-1.2943,-1.3129,-1.322,-1.3173,-1.2861,-1.2579,-1.2222,-1.1737,-1.0894,-0.9926,-0.8867,-0.7954,-0.7072,-0.6222,-0.5734,-0.5257,-0.4788,-0.4447,-0.4026,-0.3569,-0.3695,-0.3597,-0.3335,-0.2966,-0.2636,-0.2341,-0.2045,-0.1778,-0.1542,-0.1345,-0.1111,-0.0875,-0.0471,-0.0134,0.0168,0.0537,0.0974,0.1445,-0.2353,-0.2195,-0.2068,-0.2131,-0.2061,-0.1988,-0.1951,-0.1943,-0.1891,-0.1695,-0.1658,-0.1614,-0.1478,-0.1433,-0.1433,-0.1389,-0.1389,-0.1299,-0.1208,-0.1208,-0.1208,-0.1208,-0.1208,-0.1164,-0.1164,-0.1164,-0.1253,-0.1389,-0.1389,-0.1299,-0.1164,-0.1164,-0.1164,-0.1164,-0.1208,-0.1208,-0.1208,-0.1167,-0.1124,-0.1079,-0.1079,-0.0944,-0.0764,-0.0764,-0.0764,-0.0764,-0.0764,-0.0764,-0.0764,-0.0764,-0.0809,-0.0944,-0.0944,-0.1032,-0.1155,-0.1195,-0.1224,-0.1245,-0.1295,-0.1471,-0.1642,-0.1845,-0.2178,-0.254,-0.29,-0.3565,-0.4258,-0.4742,-0.5264,-0.5828,-0.6429,-0.6936,-0.7767,-0.9344,-0.995,-1.0753,-1.2189,-1.2591,-1.2768,-1.2943,-1.2908,-1.2803,-1.2579,-1.233,-1.192,-1.133,-1.0197,-0.9213,-0.8429,-0.7241,-0.6308,-0.5727,-0.5226,-0.4756,-0.4307,-0.3891,-0.3467,-0.3003,-0.2805,-0.2742,-0.2812,-0.2507,-0.2172,-0.1809,-0.1642,-0.1477,-0.1313,-0.0808,-0.0437,-0.0134,0.0034,0.0303,0.0672,0.1173,0.1609,0.1947,-0.2081,-0.1911,-0.1758,-0.1668,-0.1608,-0.1569,-0.1564,-0.1529,-0.1493,-0.1426,-0.1389,-0.1299,-0.1254,-0.1253,-0.1208,-0.1208,-0.1208,-0.1164,-0.1119,-0.1119,-0.1164,-0.1164,-0.1121,-0.1122,-0.1122,-0.1122,-0.1077,-0.0943,-0.1165,-0.121,-0.1122,-0.1122,-0.1033,-0.0898,-0.0898,-0.0853,-0.0763,-0.0719,-0.0719,-0.0719,-0.0719,-0.0629,-0.0539,-0.0539,-0.0584,-0.0719,-0.0719,-0.0719,-0.0719,-0.0719,-0.0719,-0.0809,-0.0809,-0.0899,-0.0979,-0.1024,-0.1102,-0.1168,-0.1222,-0.1333,-0.1479,-0.1744,-0.2075,-0.2441,-0.2775,-0.3335,-0.3961,-0.4505,-0.5049,-0.5617,-0.6276,-0.6949,-0.7834,-0.9121,-0.9919,-1.0772,-1.1902,-1.2258,-1.2473,-1.265,-1.2627,-1.2473,-1.221,-1.192,-1.1516,-1.0916,-0.9758,-0.8746,-0.8018,-0.6804,-0.5851,-0.5295,-0.4858,-0.4377,-0.3858,-0.3499,-0.3072,-0.2606,-0.2308,-0.2211,-0.2314,-0.2042,-0.1809,-0.1615,-0.1378,-0.1108,-0.0808,-0.0403,-0.0034,0.0303,0.0672,0.1008,0.1308,0.1678,0.2011,0.2311]},{"header":{"parameterUnit":"m.s-1","parameterCategory":1,"la1":30.6,"la2":28.766,"lo1":-90.7593,"lo2":-88.6598,"dy":0.0162,"dx":0.0183,"nx":116,"ny":114,"refTime":"2023-05-17T12:00:00:Z","depth":0,"parameterNumber":3,"parameterNumberName":"V-component_of_WINDS"},"data":[0.0,0.0,0.0,0.0,0.0,0.0,0.0,0.0,0.0,0.0,0.0,0.0,0.0,0.0,0.0,0.0,0.0,0.0,0.0,0.0,0.0,0.0,0.0,0.0,0.0,0.0,0.0,0.0,0.0,0.0,0.0,0.0,0.0,0.0,0.0,0.0,0.0,0.0,0.0,0.0,0.0,0.0,0.0,0.0,0.0,0.0,0.0,0.0,0.0,0.0,0.0,0.0,0.0,0.0,0.0,0.0,0.0,0.0,0.0,0.0,0.0,0.0,0.0,0.0,0.0,0.0,0.0,0.0,0.0,0.0,0.0,0.0,0.0,0.0,0.0,0.0,0.0,0.0,0.0,0.0,0.0,0.0,0.0,0.0,0.0,0.0,0.0,0.0,0.0,0.0,0.0,0.0,0.0,0.0,0.0,0.0,0.0,0.0,0.0,0.0,0.0,0.0,0.0,0.0,0.0,0.0,0.0,0.0,0.0,0.0,0.0,0.0,0.0,0.0,0.0,0.0,0.0,0.0,0.0,0.0,0.0,0.0,0.0,0.0,0.0,0.0,0.0,0.0,0.0,0.0,0.0,0.0,0.0,0.0,0.0,0.0,0.0,0.0,0.0,0.0,0.0,0.0,0.0,0.0,0.0,0.0,0.0,0.0,0.0,0.0,0.0,0.0,0.0,0.0,0.0,0.0,0.0,0.0,0.0,0.0,0.0,0.0,0.0,0.0,0.0,0.0,0.0,0.0,0.0,0.0,0.0,0.0,0.0,0.0,0.0,0.0,0.0,0.0,0.0,0.0,0.0,0.0,0.0,0.0,0.0,0.0,0.0,0.0,0.0,0.0,0.0,0.0,0.0,0.0,0.0,0.0,0.0,0.0,0.0,0.0,0.0,0.0,0.0,0.0,0.0,0.0,0.0,0.0,0.0,0.0,0.0,0.0,0.0,0.0,0.0,0.0,0.0,0.0,0.0,0.0,0.0,0.0,0.0,0.0,0.0,0.0,0.0,0.0,0.0,0.0,0.0,0.0,0.0,0.0,0.0,0.0,0.0,0.0,0.0,0.0,0.0,0.0,0.0,0.0,0.0,0.0,0.0,0.0,0.0,0.0,0.0,0.0,0.0,0.0,0.0,0.0,0.0,0.0,0.0,0.0,0.0,0.0,0.0,0.0,0.0,0.0,0.0,0.0,0.0,0.0,0.0,0.0,0.0,0.0,0.0,0.0,0.0,0.0,0.0,0.0,0.0,0.0,0.0,0.0,0.0,0.0,0.0,0.0,0.0,0.0,0.0,0.0,0.0,0.0,0.0,0.0,0.0,0.0,0.0,0.0,0.0,0.0,0.0,0.0,0.0,0.0,0.0,0.0,0.0,0.0,0.0,0.0,0.0,0.0,0.0,0.0,0.0,0.0,0.0,0.0,0.0,0.0,0.0,0.0,0.0,0.0,0.0,0.0,0.0,0.0,0.0,0.0,0.0,0.0,0.0,0.0,0.0,0.0,0.0,0.0,0.0,0.0,0.0,0.0,0.0,0.0,0.0,0.0,0.0,0.0,0.0,0.0,0.0,0.0,0.0,0.0,0.0,0.0,0.0,0.0,0.0,0.0,0.0,0.0,0.0,0.0,0.0,0.0,0.0,0.0,0.0,0.0,0.0,0.0,0.0,0.0,0.0,0.0,0.0,0.0,0.0,0.0,0.0,0.0,0.0,0.0,0.0,0.0,0.0,0.0,0.0,0.0,0.0,0.0,0.0,0.0,0.0,0.0,0.0,0.0,0.0,0.0,0.0,0.0,0.0,0.0,0.0,0.0,0.0,0.0,0.0,0.0,0.0,0.0,0.0,0.0,0.0,0.0,0.0,0.0,0.0,0.0,0.0,0.0,0.0,0.0,0.0,0.0,0.0,0.0,0.0,0.0,0.0,0.0,0.0,0.0,0.0,0.0,0.0,0.0,0.0,0.0,0.0,0.0,0.0,0.0,0.0,0.0,0.0,0.0,0.0,0.0,0.0,0.0,0.0,0.0,0.0,0.0,0.0,0.0,0.0,0.0,0.0,0.0,0.0,0.0,0.0,0.0,0.0,0.0,0.0,0.0,0.0,0.0,0.0,0.0,0.0,0.0,0.0,0.0,0.0,0.0,0.0,0.0,0.0,0.0,0.0,0.0,0.0,0.0,0.0,0.0,0.0,0.0,0.0,0.0,0.0,0.0,0.0,0.0,0.0,0.0,0.0,0.0,0.0,0.0,0.0,0.0,0.0,0.0,0.0,0.0,0.0,0.0,0.0,0.0,0.0,0.0,0.0,0.0,0.0,0.0,0.0,0.0,0.0,0.0,0.0,0.0,0.0,0.0,0.0,0.0,0.0,0.0,0.0,0.0,0.0,0.0,0.0,0.0,0.0,0.0,0.0,0.0,0.0,0.0,0.0,0.0,0.0,0.0,0.0,0.0,0.0,0.0,0.0,0.0,0.0,0.0,0.0,0.0,0.0,0.0,0.0,0.0,0.0,0.0,0.0,0.0,0.0,0.0,0.0,0.0,0.0,0.0,0.0,0.0,0.0,0.0,0.0,0.0,0.0,0.0,0.0,0.0,0.0,0.0,0.0,0.0,0.0,0.0,0.0,0.0,0.0,0.0,0.0,0.0,0.0,0.0,0.0,0.0,0.0,0.0,0.0,0.0,0.0,0.0,0.0,0.0,0.0,0.0,0.0,0.0,0.0,0.0,0.0,0.0,0.0,0.0,0.0,0.0,0.0,0.0,0.0,0.0,0.0,0.0,0.0,0.0,0.0,0.0,0.0,0.0,0.0,0.0,0.0,0.0,0.0,0.0,0.0,0.0,0.0,0.0,0.0,0.0,0.0,0.0,0.0,0.0,0.0,0.0,0.0,0.0,0.0,0.0,0.0,0.0,0.0,0.0,0.0,0.0,0.0,0.0,0.0,0.0,0.0,0.0,0.0,0.0,0.0,0.0,0.0,0.0,0.0,0.0,0.0,0.0,0.0,0.0,0.0,0.0,0.0,0.0,0.0,0.0,0.0,0.0,0.0,0.0,0.0,0.0,0.0,0.0,0.0,0.0,0.0,0.0,0.0,0.0,0.0,0.0,0.0,0.0,0.0,0.0,0.0,0.0,0.0,0.0,0.0,0.0,0.0,0.0,0.0,0.0,0.0,0.0,0.0,0.0,0.0,0.0,0.0,0.0,0.0,0.0,0.0,0.0,0.0,0.0,0.0,0.0,0.0,0.0,0.0,0.0,0.0,0.0,0.0,0.0,0.0,0.0,0.0,0.0,0.0,0.0,0.0,0.0,0.0,0.0,0.0,0.0,0.0,0.0,0.0,0.0,0.0,0.0,0.0,0.0,0.0,0.0,0.0,0.0,0.0,0.0,0.0,0.0,0.0,0.0,0.0,0.0,0.0,0.0,0.0,0.0,0.0,0.0,0.0,0.0,0.0,0.0,0.0,0.0,0.0,0.0,0.0,0.0,0.0,0.0,0.0,0.0,0.0,0.0,0.0,0.0,0.0,0.0,0.0,0.0,0.0,0.0,0.0,0.0,0.0,0.0,0.0,0.0,0.0,0.0,0.0,0.0,0.0,0.0,0.0,0.0,0.0,0.0,0.0,0.0,0.0,0.0,0.0,0.0,0.0,0.0,0.0,0.0,0.0,0.0,0.0,0.0,0.0,0.0,0.0,0.0,0.0,0.0,0.0,0.0,0.0,0.0,0.0,0.0,0.0,0.0,0.0,0.0,0.0,0.0,0.0,0.0,0.0,0.0,0.0,0.0,0.0,0.0,0.0,0.0,0.0,0.0,0.0,0.0,0.0,0.0,0.0,0.0,0.0,0.0,0.0,0.0,0.0,0.0,0.0,0.0,0.0,0.0,0.0,0.0,0.0,0.0,0.0,0.0,0.0,0.0,0.0,0.0,0.0,0.0,0.0,0.0,0.0,0.0,0.0,0.0,0.0,0.0,0.0,0.0,0.0,0.0,0.0,0.0,0.0,0.0,0.0,0.0,0.0,0.0,0.0,0.0,0.0,0.0,0.0,0.0,0.0,0.0,0.0,0.0,0.0,0.0,0.0,0.0,0.0,0.0,0.0,0.0,0.0,0.0,0.0,0.0,0.0,0.0,0.0,0.0,0.0,0.0,0.0,0.0,0.0,0.0,0.0,0.0,0.0,0.0,0.0,0.0,0.0,0.0,0.0,0.0,0.0,0.0,0.0,0.0,0.0,0.0,0.0,0.0,0.0,0.0,0.0,0.0,0.0,0.0,0.0,0.0,0.0,0.0,0.0,0.0,0.0,0.0,0.0,0.0,0.0,0.0,0.0,0.0,0.0,0.0,0.0,0.0,0.0,0.0,0.0,0.0,0.0,0.0,0.0,0.0,0.0,0.0,0.0,0.0,0.0,0.0,0.0,0.0,0.0,0.0,0.0,0.0,0.0,0.0,0.0,0.0,0.0,0.0,0.0,0.0,0.0,0.0,0.0,0.0,0.0,0.0,0.0,0.0,0.0,0.0,0.0,0.0,0.0,0.0,0.0,0.0,0.0,0.0,0.0,0.0,0.0,0.0,0.0,0.0,0.0,0.0,0.0,0.0,0.0,0.0,0.0,0.0,0.0,0.0,0.0,0.0,0.0,0.0,0.0,0.0,0.0,0.0,0.0,0.0,0.0,0.0,0.0,0.0,0.0,0.0,0.0,0.0,0.0,0.0,0.0,0.0,0.0,0.0,0.0,0.0,0.0,0.0,0.0,0.0,0.0,0.0,0.0,0.0,0.0,0.0,0.0,0.0,0.0,0.0,0.0,0.0,0.0,0.0,0.0,0.0,0.0,0.0,0.0,0.0,0.0,0.0,0.0,0.0,0.0,0.0,0.0,0.0,0.0,0.0,0.0,0.0,0.0,0.0,0.0,0.0,0.0,0.0,0.0,0.0,0.0,0.0,0.0,0.0,0.0,0.0,0.0,0.0,0.0,0.0,0.0,0.0,0.0,0.0,0.0,0.0,0.0,0.0,0.0,0.0,0.0,0.0,0.0,0.0,0.0,0.0,0.0,0.0,0.0,0.0,0.0,0.0,0.0,0.0,0.0,0.0,0.0,0.0,0.0,0.0,0.0,0.0,0.0,0.0,0.0,0.0,0.0,0.0,0.0,0.0,0.0,0.0,0.0,0.0,0.0,0.0,0.0,0.0,0.0,0.0,0.0,0.0,0.0,0.0,0.0,0.0,0.0,0.0,0.0,0.0,0.0,0.0,0.0,0.0,0.0,0.0,0.0,0.0,0.0,0.0,0.0,0.0,0.0,0.0,0.0,0.0,0.0,0.0,0.0,0.0,0.0,0.0,0.0,0.0,0.0,0.0,0.0,0.0,0.0,0.0,0.0,0.0,0.0,0.0,0.0,0.0,0.0,0.0,0.0,0.0,0.0,0.0,0.0,0.0,0.0,0.0,0.0,0.0,0.0,0.0,0.0,0.0,0.0,0.0,0.0,0.0,0.0,0.0,0.0,0.0,0.0,0.0,0.0,0.0,0.0,0.0,0.0,0.0,0.0,0.0,0.0,0.0,0.0,0.0,0.0,0.0,0.0,0.0,0.0,0.0,0.0,0.0,0.0,0.0,0.0,0.0,0.0,0.0,0.0,0.0,0.0,0.0,0.0,0.0,0.0,0.0,0.0,0.0,0.0,0.0,0.0,0.0,0.0,0.0,0.0,0.0,0.0,0.0,0.0,0.0,0.0,0.0,0.0,0.0,0.0,0.0,0.0,0.0,0.0,0.0,0.0,0.0,0.0,0.0,0.0,0.0,0.0,0.0,0.0,0.0,0.0,0.0,0.0,0.0,0.0,0.0,0.0,0.0,0.0,0.0,0.0,0.0,0.0,0.0,0.0,0.0,0.0,0.0,0.0,0.0,0.0,0.0,0.0,0.0,0.0,0.0,0.0,0.0,0.0,0.0,0.0,0.0,0.0,0.0,0.0,0.0,0.0,0.0,0.0,0.0,0.0,0.0,0.0,0.0,0.0,0.0,0.0,0.0,0.0,0.0,0.0,0.0,0.0,0.0,0.0,0.0,0.0,0.0,0.0,0.0,0.0,0.0,0.0,0.0,0.0,0.0,0.6889,0.7373,0.0,0.0,0.0,0.0,0.0,0.0,0.0,0.0,0.0,0.0,0.0,0.0,0.0,0.0,0.0,0.0,0.0,0.0,0.0,0.0,0.0,0.0,0.0,0.0,0.0,0.0,0.0,0.0,0.0,0.0,0.0,0.0,0.0,0.0,0.0,0.0,0.0,0.0,0.0,0.0,0.0,0.0,0.0,0.0,0.0,0.0,0.0,0.0,0.0,0.0,0.0,0.0,0.0,0.0,0.0,0.0,0.0,0.0,0.0,0.0,0.0,0.0,0.0,0.0,0.0,0.0,0.0,0.0,0.0,0.0,0.0,0.0,0.0,0.0,0.0,0.0,0.0,0.0,0.0,0.0,0.0,0.0,0.0,0.0,0.0,0.0,0.0,0.0,0.0,0.0,0.0,0.0,0.0,0.0,0.0,0.0,0.0,0.0,0.0,0.0,0.0,0.0,0.0,0.0,0.0,0.0,0.0,0.0,0.0,0.0,0.0,0.0,0.0,0.0,0.6083,0.6708,0.0,0.0,0.0,0.0,0.0,0.0,0.0,0.0,0.0,0.0,0.0,0.0,0.0,0.0,0.0,0.0,0.0,0.0,0.0,0.0,0.0,0.0,0.0,0.0,0.0,0.0,0.0,0.0,0.0,0.0,0.0,0.0,0.0,0.0,0.0,0.0,0.0,0.0,0.0,0.0,0.0,0.0,0.0,0.0,0.0,0.0,0.0,0.0,0.0,0.0,0.0,0.0,0.0,0.0,0.0,0.0,0.0,0.0,0.0,0.0,0.0,0.0,0.0,0.0,0.0,0.0,0.0,0.0,0.0,0.0,0.0,0.0,0.0,0.0,0.0,0.0,0.0,0.0,0.0,0.0,0.0,0.0,0.0,0.0,0.0,0.0,0.0,0.0,0.0,0.0,0.0,0.0,0.0,0.0,0.0,0.0,0.0,0.0,0.0,0.0,0.0,0.0,0.0,0.0,0.0,0.0,0.0,0.0,0.3331,0.3479,0.349,0.3754,0.3922,0.4011,0.5073,0.586,0.6435,0.679,0.0,0.0,0.0,0.0,0.0,0.0,0.0,0.0,0.0,0.0,0.0,0.0,0.0,0.0,0.0,0.0,0.0,0.0,0.0,0.0,0.0,0.0,0.0,0.0,0.0,0.0,0.0,0.0,0.0,0.0,0.0,0.0,0.0,0.0,0.0,0.0,0.0,0.0,-1.6136,-1.6069,-1.6356,-1.6918,-1.5889,0.0,0.0,0.0,0.0,0.0,0.0,0.0,0.0,0.0,0.0,0.0,0.0,0.0,0.0,0.0,0.0,0.0,0.0,0.0,0.0,0.0,0.0,0.0,0.0,0.0,0.0,0.0,0.0,0.0,0.0,0.0,0.0,0.0,0.0,0.0,0.0,0.0,0.0,0.0,0.0,0.0,0.0,0.0,-1.1132,-1.038,0.0,0.0,0.0,0.0,0.0,0.0,0.0,0.0,0.0,0.0,0.0,0.0,0.0,-0.0223,0.0268,0.0624,0.1024,0.1514,0.1781,0.2001,0.226,0.2526,0.2758,0.2995,0.3449,0.0,0.5679,0.6068,0.0,0.0,0.0,0.0,0.0,0.0,0.0,0.0,0.0,0.0,0.0,0.0,0.0,0.0,0.0,0.0,0.0,0.0,0.0,0.0,0.0,0.0,0.0,0.0,0.0,0.0,0.0,0.0,0.0,0.0,0.0,0.0,0.0,0.0,0.0,0.0,-1.6631,-1.6749,-1.703,-1.6958,-1.7349,-1.806,-1.7442,-1.7417,-1.779,-1.7488,0.0,0.0,0.0,0.0,0.0,0.0,0.0,0.0,0.0,0.0,0.0,0.0,0.0,0.0,0.0,0.0,0.0,0.0,0.0,0.0,0.0,0.0,0.0,0.0,0.0,0.0,0.0,0.0,0.0,0.0,0.0,0.0,0.0,0.0,0.0,0.0,0.0,0.0,0.0,-1.2187,-1.1394,-1.0764,-1.0108,-0.9439,0.0,0.0,0.0,0.0,0.0,0.0,0.0,0.0,0.0,-0.2887,-0.2399,-0.1868,-0.1425,-0.0978,-0.0578,-0.0089,0.0261,0.0582,0.0935,0.1211,0.1542,0.1935,0.2329,0.3078,0.405,0.5023,0.5813,0.6435,0.0,0.0,0.0,0.0,0.9251,0.9777,0.0,0.0,0.0,0.0,0.0,0.0,0.0,0.0,0.0,0.0,0.0,0.0,0.0,0.0,0.0,-1.6829,0.0,0.0,0.0,0.0,0.0,0.0,0.0,0.0,0.0,0.0,0.0,0.0,-1.7733,-1.7773,-1.7933,-1.7858,-1.826,-1.9025,-1.8831,-1.8586,-1.8286,-1.8031,-1.8128,0.0,0.0,0.0,0.0,0.0,0.0,0.0,0.0,0.0,0.0,0.0,0.0,0.0,0.0,0.0,0.0,0.0,0.0,0.0,0.0,0.0,0.0,0.0,0.0,0.0,0.0,0.0,0.0,0.0,0.0,0.0,0.0,0.0,0.0,0.0,0.0,0.0,0.0,-1.2282,-1.1763,-1.1132,-1.0611,-0.9991,0.0,0.0,0.0,0.0,0.0,0.0,-0.5979,-0.5411,-0.4894,-0.4382,-0.3986,-0.3544,-0.3105,-0.2659,-0.2218,-0.1777,-0.1319,-0.0895,-0.0506,-0.0148,0.0316,0.0801,0.1233,0.1795,0.2521,0.3963,0.4966,0.5626,0.6206,0.6841,0.7492,0.8125,0.8739,0.9357,0.0,0.0,0.0,0.0,0.0,0.0,0.0,0.0,0.0,0.0,0.0,0.0,0.0,0.0,-1.6856,-1.7674,-1.7806,-1.7859,0.0,0.0,0.0,0.0,0.0,0.0,0.0,0.0,0.0,-1.7805,-1.7734,-1.8095,-1.8838,-1.8771,-1.9164,-1.9931,-1.979,-1.96,-1.9401,-1.9191,-1.8981,-1.8753,0.0,0.0,0.0,0.0,0.0,0.0,0.0,0.0,0.0,0.0,0.0,0.0,0.0,0.0,0.0,0.0,0.0,0.0,0.0,0.0,0.0,0.0,0.0,0.0,0.0,0.0,0.0,0.0,0.0,0.0,0.0,0.0,0.0,0.0,0.0,0.0,0.0,0.0,0.0,-1.1605,-1.1057,0.0,0.0,0.0,0.0,-0.8675,-0.8185,-0.7682,-0.7133,-0.6784,-0.6313,-0.5717,-0.5508,-0.5158,-0.4669,-0.4409,-0.4022,-0.3548,-0.3013,-0.2558,-0.2171,-0.1513,-0.0912,-0.0401,0.0,0.06,0.1403,0.3016,0.406,0.4732,0.5401,0.6075,0.6734,0.7462,0.8135,0.8739,0.0,0.0,0.0,0.0,0.0,0.0,0.0,0.0,0.0,0.0,0.0,0.0,0.0,-1.6983,-1.7676,-1.855,-1.867,-1.8913,-1.9466,0.0,0.0,0.0,0.0,0.0,0.0,0.0,-1.94,-1.9406,-1.9384,-1.9527,-1.9807,-1.9741,-1.9849,-2.0117,-2.0029,-1.9926,-1.98,-1.9513,-1.9292,-1.9097,-1.8964,-1.8807,0.0,0.0,0.0,0.0,0.0,0.0,0.0,0.0,0.0,0.0,0.0,0.0,0.0,0.0,0.0,0.0,0.0,0.0,0.0,0.0,0.0,0.0,0.0,0.0,0.0,0.0,0.0,0.0,0.0,0.0,0.0,0.0,0.0,0.0,0.0,0.0,0.0,-1.1957,-1.1542,0.0,-1.0649,-1.0341,-0.9942,-0.943,-0.9151,-0.8788,-0.8366,-0.8098,-0.7762,-0.7397,-0.7148,-0.6848,-0.6542,-0.6156,-0.5655,-0.5122,-0.4665,-0.4074,-0.3372,-0.286,-0.2329,-0.1762,-0.1265,-0.07,0.0,0.103,0.2347,0.3769,0.4547,0.5237,0.5906,0.6652,0.7404,0.8107,0.0,0.0,0.0,0.0,0.0,0.0,0.0,0.0,0.0,0.0,0.0,-1.6603,-1.7238,-1.7811,-1.8512,-1.9419,-1.9503,-1.9754,-2.0328,0.0,0.0,0.0,0.0,0.0,0.0,-2.0308,-2.0302,-2.0308,-2.0292,-2.0296,-2.0289,-2.0241,-2.0235,-2.0235,-2.0162,-2.0117,-2.005,-1.9804,-1.9604,-1.9423,-1.9286,-1.9178,-1.9048,0.0,0.0,0.0,0.0,0.0,0.0,0.0,0.0,0.0,0.0,0.0,0.0,0.0,0.0,0.0,0.0,0.0,0.0,0.0,0.0,0.0,0.0,0.0,0.0,0.0,0.0,0.0,0.0,0.0,0.0,0.0,0.0,0.0,0.0,-1.3173,-1.2791,-1.2401,-1.2066,-1.1689,-1.1292,-1.1105,-1.0791,-1.036,-1.0167,-0.9933,-0.963,-0.9415,-0.9178,-0.8956,-0.8706,-0.8399,-0.7999,-0.7624,-0.713,-0.6467,-0.5993,-0.5404,-0.4774,-0.4269,-0.375,-0.3167,-0.2616,-0.1991,-0.1363,-0.0632,0.0563,0.2115,0.333,0.4274,0.501,0.576,0.6523,0.7316,0.0,0.0,0.0,0.0,0.0,0.0,0.0,0.0,0.0,0.0,-1.633,-1.6984,-1.8701,-1.8985,-1.9369,-2.0215,-2.0311,-2.0294,-2.0294,-2.0295,0.0,0.0,0.0,0.0,-2.0399,-2.0334,-2.0308,-2.0308,-2.0308,-2.0301,-2.0294,-2.0299,-2.0304,-2.0304,-2.0235,-2.0219,-2.0192,-2.0134,-1.995,-1.9707,-1.9572,-1.9476,-1.9394,0.0,0.0,0.0,0.0,0.0,0.0,0.0,0.0,0.0,0.0,0.0,0.0,0.0,0.0,0.0,0.0,0.0,0.0,0.0,0.0,0.0,0.0,0.0,0.0,0.0,0.0,0.0,0.0,0.0,0.0,0.0,0.0,0.0,-1.3664,-1.3429,-1.3076,-1.2789,-1.2543,-1.2247,-1.19,-1.1839,-1.1645,-1.1302,-1.1239,-1.1079,-1.0802,-1.0737,-1.0558,-1.0214,-1.0214,-0.982,-0.9041,-0.8839,-0.8378,-0.7643,-0.7048,-0.6614,-0.6341,-0.5663,-0.511,-0.4638,-0.4039,-0.3358,-0.2609,-0.1958,-0.1195,-0.0265,0.1749,0.3106,0.4028,0.4783,0.5536,0.6372,0.0,0.0,0.0,0.0,0.0,0.0,0.0,0.0,0.0,0.0,-1.6785,-1.76,-1.8769,-1.9437,-1.9912,-2.0192,-2.0273,-2.0296,-2.0292,0.0,0.0,0.0,0.0,0.0,-2.0399,-2.0379,-2.0379,-2.0379,-2.0373,-2.0366,-2.0366,-2.0366,-2.036,-2.036,-2.0353,-2.0327,-2.0275,-2.026,-2.0172,-2.006,-1.9858,-1.9762,-1.967,0.0,0.0,0.0,0.0,0.0,0.0,0.0,0.0,0.0,0.0,0.0,0.0,0.0,0.0,0.0,0.0,0.0,0.0,0.0,0.0,0.0,0.0,0.0,0.0,0.0,0.0,0.0,0.0,0.0,0.0,0.0,-1.2586,-1.2493,-1.27,-1.2524,-1.2281,-1.2027,-1.1902,-1.1712,-1.1411,-1.1379,-1.1281,-1.1041,-1.1008,-1.0931,-1.083,-1.0731,-1.0676,-1.0576,-1.0354,-1.0177,-0.9938,-0.9728,-0.9387,-0.889,-0.8529,-0.8055,-0.7517,-0.708,-0.661,-0.6089,-0.5531,-0.4872,-0.4146,-0.3474,-0.2697,-0.1716,0.0462,0.1852,0.2714,0.3492,0.4638,0.5876,0.0,0.0,0.0,0.0,0.0,0.0,0.0,0.0,0.0,0.0,-1.7454,-1.8355,-1.9259,-1.9793,-2.0135,-2.0197,-2.0241,-2.0265,-2.0262,0.0,0.0,0.0,0.0,-2.0334,-2.0399,-2.0405,-2.0392,-2.0392,-2.0398,-2.041,-2.0396,-2.0396,-2.0421,-2.0446,-2.0446,-2.0421,-2.0377,-2.0352,-2.0328,-2.0269,-2.0156,-2.0041,-1.9931,-1.9843,-1.9797,-1.9762,-1.9695,-1.9649,-1.9609,-1.9541,0.0,0.0,0.0,0.0,0.0,0.0,0.0,0.0,0.0,0.0,0.0,0.0,0.0,0.0,0.0,0.0,0.0,0.0,0.0,0.0,0.0,0.0,0.0,0.0,-1.2135,-1.2014,-1.1969,-1.217,-1.2226,-1.2007,-1.1936,-1.1818,-1.1593,-1.1593,-1.1563,-1.143,-1.143,-1.1417,-1.1405,-1.1362,-1.1332,-1.1332,-1.1192,-1.0997,-1.0753,-1.0635,-1.0295,-0.9805,-0.9587,-0.9202,-0.8727,-0.8398,-0.7978,-0.7463,-0.694,-0.6307,-0.564,-0.4934,-0.4146,-0.3208,0.0,0.0,0.0,0.0,0.3671,0.479,0.0,0.0,0.0,0.0,0.0,0.0,0.0,0.0,0.0,0.0,0.0,-1.9037,-1.9896,-2.006,-2.0117,-2.0183,-2.0197,-2.0203,0.0,0.0,0.0,-2.0302,-2.0302,-2.0328,-2.0399,-2.0398,-2.041,-2.041,-2.0408,-2.0404,-2.042,-2.0405,-2.0434,-2.0502,-2.0506,-2.0506,-2.0506,-2.0434,-2.041,-2.0405,-2.0418,-2.0308,-2.0114,-2.0069,-2.0041,-2.0002,-1.995,-1.9873,-1.9823,-1.9825,0.0,0.0,0.0,0.0,0.0,0.0,0.0,0.0,0.0,0.0,0.0,0.0,0.0,0.0,0.0,0.0,0.0,0.0,0.0,0.0,0.0,0.0,0.0,0.0,-1.1768,-1.1652,-1.1578,-1.2127,-1.2471,-1.2306,-1.2224,-1.214,-1.2027,-1.2055,-1.2083,-1.2027,-1.2083,-1.2111,-1.2139,-1.2127,0.0,0.0,0.0,-1.1926,-1.1448,-1.1397,-1.11,-1.0562,-1.0365,-1.0169,-0.9982,-0.9651,-0.9248,-0.8765,-0.8265,-0.7682,-0.7057,-0.6332,-0.5562,-0.4583,-0.2303,-0.0896,0.0033,0.1582,0.2567,0.3248,0.0,0.0,0.0,0.0,0.0,0.0,0.0,0.0,0.0,-1.7211,-1.8122,-1.9025,-1.989,-2.0,-2.006,-2.0117,-2.0173,-2.0208,0.0,0.0,-2.0296,-2.0301,-2.0301,-2.0334,-2.0399,-2.0398,-2.041,-2.041,-2.0443,-2.0483,-2.0488,-2.048,-2.0496,-2.0496,-2.0506,-2.051,-2.051,-2.0487,-2.048,-2.0472,-2.0488,-2.0395,-2.0262,-2.0246,-2.0208,-2.0148,-2.0086,-2.005,-2.003,-1.9977,-1.9904,-1.9828,-1.9757,0.0,0.0,0.0,0.0,0.0,0.0,0.0,0.0,0.0,0.0,0.0,0.0,0.0,0.0,0.0,0.0,0.0,0.0,0.0,0.0,-1.2241,-1.2096,-1.1991,-1.1985,-1.2051,-1.1976,-1.157,-1.1546,-1.1532,-1.146,-1.147,-1.1504,-1.1528,-1.1551,-1.1622,-1.18,-1.1786,-1.1817,-1.1894,-1.1894,-1.1866,-1.1792,-1.1792,-1.1711,-1.1534,-1.1388,0.0,-1.1079,-1.081,-1.0438,-1.0033,-0.9601,-0.9027,-0.8404,-0.7808,-0.6771,-0.5284,-0.2945,-0.1584,-0.0858,0.0099,0.0924,0.1646,0.0,0.0,0.0,0.0,0.0,0.0,0.0,0.0,0.0,0.0,-1.8448,-1.9435,-1.9945,-1.9996,-2.0029,-2.0089,-2.0174,0.0,0.0,-2.0238,-2.0262,-2.0299,-2.0294,-2.0327,-2.0354,-2.0385,-2.0408,-2.0394,-2.0464,-2.0506,-2.0508,-2.0503,-2.0494,-2.05,-2.0503,-2.0525,-2.0547,-2.0547,-2.0545,-2.0542,-2.0542,-2.0483,-2.0405,-2.0355,-2.0326,-2.0283,-2.0229,-2.0196,-2.0195,-2.0115,-2.005,-1.9981,-1.9955,-1.9889,-1.9693,0.0,0.0,0.0,0.0,0.0,0.0,0.0,0.0,0.0,0.0,0.0,0.0,0.0,0.0,-1.2942,-1.2778,0.0,-1.2581,-1.2506,-1.2392,-1.2291,-1.2291,-1.2287,-1.2102,-1.1652,-1.1689,-1.1733,-1.1652,-1.1725,-1.1775,-1.1796,-1.1852,-1.1957,-1.2097,-1.2159,-1.2256,-1.236,-1.2345,-1.2404,-1.2508,-1.2508,-1.2473,-1.2415,-1.2286,-1.2147,-1.1994,-1.1749,-1.1468,-1.1133,-1.0725,-1.023,-0.964,-0.877,-0.7759,-0.6597,-0.5124,-0.3661,-0.227,-0.1517,-0.0856,-0.0197,0.0,0.0,0.0,0.0,0.0,0.0,0.0,0.0,0.0,0.0,-1.876,-1.9842,-1.9971,-1.9982,-2.0026,0.0,0.0,0.0,0.0,-2.0211,-2.0227,-2.0304,-2.0306,-2.0308,-2.0308,-2.0371,-2.0404,-2.04,-2.0463,-2.0511,-2.05,-2.05,-2.0506,-2.0514,-2.0521,-2.0545,-2.0605,-2.0605,-2.0605,-2.0605,-2.0605,-2.0566,-2.0506,-2.0451,-2.0426,-2.0409,-2.0355,-2.0334,-2.0302,-2.0253,-2.0192,-2.0143,-2.0126,-2.003,-1.9755,-1.8806,-1.7865,0.0,0.0,0.0,0.0,0.0,0.0,0.0,0.0,-1.3639,-1.3495,-1.3362,-1.3244,-1.3105,-1.2998,-1.2906,-1.2848,-1.2794,-1.2668,-1.2575,-1.2594,-1.2607,-1.2471,-1.2185,-1.2164,-1.2179,-1.2123,-1.2231,-1.2332,-1.2352,-1.2478,-1.2578,-1.2654,-1.2764,-1.2909,-1.3035,-1.3035,-1.3107,-1.3244,-1.3244,-1.3211,-1.3143,-1.3109,-1.2987,-1.2789,-1.2603,-1.2356,-1.2077,-1.1614,-1.1148,-1.062,-0.9563,-0.8747,-0.8077,-0.7511,-0.6087,-0.4288,-0.3341,-0.2658,-0.2128,0.0,0.0,0.0,0.0,0.0,0.0,0.0,0.0,0.0,0.0,0.0,0.0,0.0,0.0,0.0,0.0,0.0,0.0,-2.0197,-2.0203,-2.0227,-2.0304,-2.0306,-2.0308,-2.0308,-2.0371,-2.0404,-2.04,-2.0472,-2.0499,-2.05,-2.0506,-2.0533,-2.0582,-2.0582,-2.0585,-2.0605,-2.0605,-2.0605,-2.0605,-2.0605,-2.0605,-2.0585,-2.0583,-2.0549,-2.049,-2.0484,-2.0443,-2.0381,-2.0371,-2.0334,-2.0275,-2.02,-2.0143,-1.9879,-1.8961,-1.8006,-1.7082,-1.6212,-1.5251,-1.4453,-1.4306,-1.4195,-1.404,0.0,-1.3774,-1.3636,-1.3509,-1.3429,-1.3346,-1.3261,-1.3156,-1.3066,-1.3066,-1.2942,-1.2871,-1.2942,-1.2942,-1.2959,-1.2959,-1.2722,-1.2533,-1.2533,-1.2649,-1.2781,-1.2906,-1.2982,-1.3089,-1.3193,-1.3278,-1.3376,-1.3523,-1.3588,-1.3648,-1.3716,-1.3716,-1.3716,-1.3716,-1.3704,-1.363,-1.349,-1.3277,-1.3075,-1.2826,-1.2137,-1.1571,-1.1079,-1.0548,-0.9957,-0.9355,-0.8786,-0.8171,-0.7367,-0.5503,-0.4483,-0.3939,0.0,0.0,0.0,0.0,0.0,0.0,0.0,0.0,0.0,0.0,0.0,0.0,0.0,0.0,0.0,0.0,0.0,0.0,-2.0209,-2.0197,-2.0203,-2.0235,-2.0272,-2.0301,-2.0308,-2.0365,-2.0424,-2.0468,-2.0484,-2.051,-2.0492,-2.0536,-2.0568,-2.0601,-2.0605,-2.0604,-2.0596,-2.0596,-2.0596,-2.0596,-2.0596,-2.0596,-2.0596,-2.0603,-2.0586,-2.0544,-2.0501,-2.048,0.0,0.0,-2.041,-2.0352,-2.0334,-2.0242,-1.9873,-1.8458,-1.7738,-1.7092,-1.5637,-1.4945,-1.4585,-1.4441,-1.4319,-1.419,-1.406,-1.3949,-1.3836,-1.3748,-1.3653,-1.3557,-1.3477,-1.3396,-1.3329,-1.3329,-1.3295,-1.3261,-1.3295,-1.3295,-1.3295,-1.3329,-1.3295,-1.3159,-1.2982,-1.3105,-1.3227,-1.3295,-1.3428,-1.3556,-1.363,-1.3751,-1.3867,-1.4001,-1.402,-1.4069,-1.4147,-1.4185,-1.4197,-1.4197,-1.4178,-1.41,-1.4006,-1.3849,-1.3565,-1.3211,-1.2736,-1.2317,-1.1927,-1.1446,-1.0982,-1.0473,-0.9982,-0.9511,-0.892,-0.7068,-0.6104,-0.5694,0.0,0.0,0.0,0.0,0.0,0.0,0.0,0.0,0.0,0.0,0.0,0.0,0.0,0.0,0.0,0.0,0.0,0.0,0.0,-2.0162,-2.0169,-2.0211,-2.0258,-2.0306,-2.0294,-2.0379,-2.0424,-2.0473,-2.0484,-2.0494,-2.0494,-2.0577,-2.0594,-2.0605,-2.0604,-2.0597,-2.0597,-2.0577,-2.0575,-2.0572,-2.0572,-2.0572,-2.0575,-2.0568,-2.0575,-2.058,-2.0542,-2.0527,0.0,0.0,-2.0469,-2.0415,-2.0408,-2.0173,-1.9596,-1.8068,-1.7246,-1.6506,-1.5123,-1.4737,-1.4695,-1.4567,-1.4453,-1.4307,-1.4201,-1.4132,-1.4054,-1.397,-1.3865,-1.3789,-1.3713,-1.3652,-1.3605,-1.3606,-1.3591,-1.3591,-1.3624,-1.3636,-1.365,-1.3632,-1.3756,-1.3741,-1.3508,-1.3575,-1.3638,-1.3665,-1.3833,-1.3963,-1.4038,-1.4157,-1.4289,-1.4411,-1.4426,-1.4464,-1.4537,-1.4598,-1.4608,-1.4608,-1.4558,-1.4493,-1.4414,-1.4246,-1.3965,-1.355,-1.3294,-1.3003,-1.2673,-1.2234,-1.1828,-1.1424,-1.0996,-1.062,-1.0131,-0.8763,-0.7891,-0.7299,0.0,0.0,0.0,0.0,0.0,0.0,0.0,0.0,0.0,0.0,0.0,0.0,0.0,0.0,0.0,0.0,0.0,0.0,0.0,-2.0098,-2.0134,-2.0211,-2.0265,-2.0289,-2.0294,-2.0366,-2.0408,-2.04,-2.0472,-2.0503,-2.0506,-2.0572,-2.0593,-2.0605,-2.0591,-2.0599,-2.0601,-2.0538,-2.0494,-2.0506,-2.0506,-2.0506,-2.0506,-2.0506,-2.0494,-2.051,-2.0566,0.0,0.0,0.0,-2.0492,-2.049,-2.0413,-1.9817,-1.8943,-1.7979,-1.6455,-1.5041,-1.4921,-1.485,-1.4776,-1.4714,-1.4592,-1.4485,-1.4411,-1.4344,-1.425,-1.4123,-1.4091,-1.4072,-1.3998,-1.3938,-1.3891,-1.3891,-1.3827,-1.3813,-1.3891,-1.3938,-1.398,-1.3977,-1.4087,-1.4172,-1.4172,-1.4068,-1.4012,-1.4086,-1.4203,-1.4313,-1.4374,-1.4519,-1.4624,-1.4697,-1.4757,-1.4813,-1.4867,-1.4894,-1.4902,-1.4902,-1.4885,-1.4813,-1.469,-1.4471,-1.4246,-1.3975,-1.3768,-1.3491,-1.3159,-1.2822,-1.2485,-1.2137,-1.1806,-1.1505,-1.1216,-1.0833,-0.9906,-0.8777,0.0,0.0,0.0,0.0,0.0,0.0,0.0,0.0,0.0,0.0,0.0,0.0,0.0,0.0,0.0,0.0,0.0,0.0,0.0,-2.0079,-2.0107,-2.0134,-2.0233,-2.0292,-2.0289,-2.0379,-2.041,-2.0404,-2.0467,-2.0503,-2.0506,-2.0562,-2.0598,-2.0605,-2.0591,-2.0577,-2.0538,-2.0509,-2.05,-2.049,-2.0503,-2.0503,-2.0503,-2.051,-2.05,-2.0492,0.0,0.0,0.0,0.0,-2.0531,-2.0501,-2.0474,-1.9869,-1.8862,-1.7298,-1.601,-1.5054,-1.4973,-1.4944,-1.4913,-1.4794,-1.4688,-1.4616,-1.4556,-1.4488,-1.4417,-1.4314,-1.4257,-1.4229,-1.4203,-1.4145,-1.4105,-1.4105,-1.4069,-1.4065,-1.4096,-1.4149,-1.4219,-1.4257,-1.4338,-1.4417,-1.4458,-1.4338,-1.4288,-1.4356,-1.4439,-1.4545,-1.466,-1.4738,-1.483,-1.4892,-1.4962,-1.5007,-1.504,-1.508,-1.5087,-1.5042,-1.4989,-1.4928,-1.4822,-1.467,-1.4501,-1.432,-1.4123,-1.3885,-1.3632,-1.3295,-1.302,-1.2769,-1.2482,-1.2209,-1.1932,-1.1687,-1.1261,-1.0715,0.0,0.0,0.0,0.0,0.0,0.0,0.0,0.0,0.0,0.0,0.0,0.0,0.0,0.0,0.0,0.0,0.0,-1.9966,0.0,0.0,-2.0069,-2.0098,-2.0182,-2.0233,-2.0265,-2.0325,-2.0373,-2.0396,-2.0449,-2.0488,-2.05,-2.054,-2.0579,-2.0605,-2.0594,-2.0562,-2.0497,-2.0506,-2.049,-2.0496,-2.0504,-2.05,-2.05,-2.0508,-2.0503,0.0,0.0,0.0,0.0,-2.0586,-2.0563,-2.0477,-2.0168,-1.9241,-1.7974,-1.6458,-1.5592,-1.5127,-1.5054,-1.5049,-1.5014,-1.4894,-1.4822,-1.4747,-1.4656,-1.4603,-1.456,-1.4485,-1.4446,-1.4399,-1.4417,-1.4362,-1.4338,-1.4338,-1.4332,-1.4344,-1.4344,-1.4404,-1.4451,-1.4511,-1.456,-1.4624,-1.4677,-1.4645,-1.4614,-1.4614,-1.467,-1.4748,-1.4873,-1.4935,-1.4995,-1.5068,-1.5133,-1.5168,-1.5174,-1.521,-1.521,-1.5143,-1.5088,-1.503,-1.4971,-1.4867,-1.4718,-1.456,-1.4374,-1.4201,-1.3973,-1.3678,-1.3459,-1.3295,-1.3034,-1.2781,-1.2524,-1.234,-1.2195,-1.193,0.0,0.0,0.0,0.0,0.0,0.0,0.0,0.0,0.0,0.0,0.0,0.0,0.0,0.0,0.0,0.0,0.0,0.0,0.0,0.0,0.0,-2.0097,-2.0089,-2.0125,-2.0184,-2.0262,-2.0325,-2.0399,-2.0394,-2.0424,-2.0503,-2.0509,-2.0534,-2.0605,-2.0599,-2.0568,-2.0497,-2.0506,-2.0506,-2.0508,-2.0495,-2.0506,-2.0506,-2.0506,0.0,0.0,0.0,0.0,0.0,-2.0578,-2.0566,-2.0384,-1.95,-1.803,-1.6433,-1.5554,-1.5241,-1.5199,-1.5114,-1.5101,-1.5083,-1.5022,-1.4947,-1.4867,-1.4747,-1.4709,-1.468,-1.4616,-1.4614,-1.4614,-1.4611,-1.4611,-1.4611,-1.4611,-1.4611,-1.4611,-1.4611,-1.4672,-1.4722,-1.4703,-1.4766,-1.4803,-1.4821,-1.4928,-1.4955,-1.484,-1.4881,-1.4935,-1.5021,-1.5069,-1.5138,-1.519,-1.5275,-1.5317,-1.5306,-1.5311,-1.5278,-1.5202,-1.5218,-1.5165,-1.5099,-1.5019,-1.4894,-1.4699,-1.4566,-1.4398,-1.4188,-1.391,-1.3771,-1.3686,-1.3412,-1.3192,-1.3,-1.2869,-1.2741,-1.2533,0.0,0.0,0.0,0.0,0.0,0.0,0.0,0.0,0.0,0.0,0.0,0.0,0.0,0.0,0.0,0.0,0.0,0.0,0.0,0.0,0.0,0.0,0.0,0.0,0.0,0.0,0.0,0.0,0.0,-2.043,-2.0492,-2.0509,-2.0531,-2.0602,-2.0604,-2.0554,-2.0501,-2.0506,-2.0506,-2.0508,0.0,-2.0502,-2.0493,0.0,0.0,0.0,0.0,0.0,-2.0519,-2.0573,-2.0176,-1.9483,-1.8618,-1.7523,-1.6435,-1.5567,-1.5283,-1.5265,-1.518,-1.5158,-1.5152,-1.509,-1.5027,-1.4952,-1.4867,-1.485,-1.4832,-1.4766,-1.4737,-1.4746,-1.4746,-1.4707,-1.4678,-1.4678,-1.4717,-1.4755,-1.4747,-1.4813,-1.4869,-1.4923,-1.493,-1.4971,-1.5015,-1.5047,-1.5082,-1.5108,-1.5069,-1.5082,-1.5143,-1.5206,-1.5269,-1.5261,-1.5345,-1.5378,-1.5365,-1.5362,-1.5329,-1.5268,-1.5265,-1.5248,-1.5172,-1.5047,-1.4942,-1.4841,-1.4705,-1.4537,-1.4326,-1.4105,-1.3959,-1.3818,-1.3605,-1.3462,-1.3346,-1.3158,-1.3052,-1.2926,0.0,0.0,0.0,0.0,0.0,0.0,0.0,0.0,0.0,0.0,0.0,0.0,0.0,0.0,0.0,0.0,0.0,0.0,0.0,0.0,0.0,0.0,0.0,0.0,0.0,0.0,0.0,0.0,0.0,0.0,0.0,-2.049,-2.0521,-2.0558,-2.0586,-2.0583,-2.0531,-2.0514,0.0,0.0,0.0,0.0,0.0,0.0,0.0,0.0,0.0,0.0,-2.0558,-2.059,-1.9764,-1.8647,-1.815,-1.7101,-1.5988,-1.5491,-1.533,-1.5283,-1.5246,-1.5229,-1.5183,-1.5152,-1.5092,-1.503,-1.496,-1.4936,-1.4928,-1.4904,-1.4886,-1.4896,-1.4896,-1.4868,-1.4822,-1.4822,-1.485,-1.4886,-1.4894,-1.4911,-1.4971,-1.5046,-1.5049,-1.5066,-1.5133,-1.5145,-1.516,-1.5246,-1.5201,-1.5206,-1.5245,-1.5319,-1.5345,-1.5339,-1.5374,-1.5407,-1.5399,-1.5392,-1.5379,-1.5339,-1.5319,-1.5265,-1.5195,-1.5088,-1.4989,-1.4895,-1.4765,-1.4595,-1.4421,-1.4227,-1.4087,-1.3966,-1.3791,-1.3671,-1.356,-1.3429,-1.3295,-1.3209,0.0,0.0,0.0,0.0,0.0,0.0,0.0,0.0,0.0,0.0,0.0,0.0,0.0,0.0,0.0,0.0,0.0,0.0,0.0,0.0,0.0,0.0,0.0,0.0,0.0,0.0,0.0,0.0,0.0,0.0,0.0,0.0,0.0,0.0,0.0,0.0,0.0,0.0,0.0,0.0,0.0,0.0,0.0,0.0,0.0,0.0,0.0,0.0,-2.0599,-2.0591,-1.9431,-1.8007,-1.7997,-1.6797,-1.5399,-1.541,-1.5349,-1.5292,-1.5298,-1.5265,-1.5204,-1.5189,-1.5153,-1.5094,-1.5038,-1.5004,-1.5015,-1.5003,-1.5014,-1.5014,-1.5014,-1.5014,-1.5014,-1.5014,-1.5014,-1.5003,-1.5,-1.5015,-1.5045,-1.5106,-1.5108,-1.5145,-1.5215,-1.5217,-1.5245,-1.5319,-1.5315,-1.5299,-1.5319,-1.5365,-1.5399,-1.5402,-1.5392,-1.5405,-1.5395,-1.5409,-1.5397,-1.5396,-1.5338,-1.5269,-1.5204,-1.5133,-1.5038,-1.4883,-1.4748,-1.4629,-1.4489,-1.4289,-1.4172,-1.4086,-1.3962,-1.3811,-1.3686,-1.3626,-1.3513,-1.3396,0.0,0.0,0.0,0.0,0.0,0.0,0.0,0.0,0.0,0.0,-1.8555,-1.9512,0.0,0.0,0.0,0.0,0.0,0.0,0.0,0.0,0.0,0.0,0.0,0.0,0.0,-1.9926,-1.9991,-2.0116,-2.0184,0.0,0.0,0.0,0.0,0.0,0.0,0.0,0.0,0.0,0.0,0.0,0.0,0.0,0.0,0.0,0.0,0.0,0.0,-2.0536,0.0,0.0,-1.9433,-1.8005,-1.8001,-1.6802,-1.5401,-1.5404,-1.5345,-1.5299,-1.5306,-1.5289,-1.527,-1.521,-1.5195,-1.5171,-1.5101,-1.5075,-1.5073,-1.5078,-1.5078,-1.5078,-1.5078,-1.5078,-1.5078,-1.5078,-1.5078,-1.5085,-1.5088,-1.5076,-1.5114,-1.5163,-1.518,-1.5206,-1.5284,-1.5272,-1.5319,-1.5384,-1.5384,-1.5384,-1.5381,-1.5399,-1.5399,-1.5397,-1.5402,-1.5404,-1.5404,-1.5397,-1.5405,-1.5407,-1.5339,-1.5252,-1.5196,-1.5139,-1.5033,-1.4883,-1.4748,-1.4629,-1.4489,-1.435,-1.4216,-1.4086,-1.3962,-1.3826,-1.3682,-1.3609,-1.3546,-1.3479,0.0,0.0,0.0,0.0,0.0,0.0,0.0,-1.5154,-1.5991,-1.6798,-1.7968,-1.8915,-1.9383,-1.9453,-1.9435,0.0,0.0,0.0,0.0,0.0,0.0,0.0,0.0,0.0,0.0,-1.9823,-1.9896,-1.9991,0.0,-2.0203,-2.0306,-2.0359,-2.0425,-2.0453,-2.0489,-2.0511,-2.0544,0.0,0.0,0.0,-2.0519,-2.0509,0.0,0.0,0.0,0.0,0.0,0.0,0.0,0.0,-1.9434,-1.8004,-1.7998,-1.68,-1.5403,-1.5404,-1.5371,-1.5336,-1.5307,-1.5306,-1.5289,-1.5265,-1.524,-1.5193,-1.5164,-1.5146,-1.5133,-1.5107,-1.5107,-1.5107,-1.5107,-1.5107,-1.5107,-1.5107,-1.5133,-1.5146,-1.5152,-1.5145,-1.5168,-1.5236,-1.5241,-1.5265,-1.5303,-1.5326,-1.5365,-1.5402,-1.5392,-1.5394,-1.5407,-1.5392,-1.5404,-1.5408,-1.5409,-1.5409,-1.5407,-1.5398,-1.5405,-1.5409,-1.5339,-1.5252,-1.5201,-1.512,-1.503,-1.4885,-1.4756,-1.4595,-1.4433,-1.4301,-1.4177,-1.4044,-1.3947,-1.3811,-1.3636,-1.3606,-1.3544,-1.3446,0.0,0.0,0.0,0.0,0.0,0.0,0.0,-1.4934,-1.5686,-1.6656,-1.7326,-1.8121,-1.9204,-1.9344,-1.9344,0.0,0.0,0.0,0.0,0.0,0.0,0.0,0.0,0.0,0.0,0.0,0.0,-1.9873,-2.001,0.0,0.0,0.0,0.0,0.0,-2.0453,-2.0486,-2.0492,-2.0563,0.0,0.0,0.0,-2.0525,0.0,0.0,0.0,0.0,0.0,-2.0603,-2.0591,-2.0605,-1.957,-1.8255,-1.8051,-1.6797,-1.5405,-1.5404,-1.5396,-1.539,-1.5326,-1.5299,-1.5302,-1.5293,-1.5265,-1.522,-1.5207,-1.5201,-1.5195,-1.5127,-1.512,-1.512,-1.512,-1.512,-1.5127,-1.5114,-1.5177,-1.5209,-1.5226,-1.5224,-1.5231,-1.5284,-1.5298,-1.5315,-1.5326,-1.5368,-1.5402,-1.5392,-1.5392,-1.5398,-1.5394,-1.5409,-1.539,-1.539,-1.539,-1.5391,-1.5409,-1.5398,-1.5403,-1.5409,-1.5333,-1.5259,-1.521,-1.5114,-1.5011,-1.4868,-1.4744,-1.4567,-1.4368,-1.4237,-1.4096,-1.3973,-1.3903,-1.3748,-1.3606,-1.3557,-1.3477,-1.3396,0.0,0.0,0.0,0.0,0.0,0.0,0.0,-1.4472,-1.503,-1.6519,-1.6773,-1.7379,-1.8872,-1.9153,-1.9219,0.0,0.0,0.0,0.0,0.0,0.0,0.0,0.0,0.0,0.0,0.0,0.0,-1.982,-1.9881,0.0,0.0,0.0,0.0,0.0,0.0,-2.043,-2.0506,-2.051,0.0,0.0,0.0,0.0,0.0,0.0,0.0,0.0,0.0,-2.0594,-2.0605,-2.0605,-1.9977,-1.9042,-1.8256,-1.6793,-1.5407,-1.5407,-1.5399,-1.539,-1.5326,-1.5303,-1.5311,-1.5302,-1.5299,-1.5274,-1.5201,-1.519,-1.5199,-1.5195,-1.5189,-1.5189,-1.5189,-1.5189,-1.5195,-1.5199,-1.5199,-1.5229,-1.5289,-1.5289,-1.5284,-1.5298,-1.5303,-1.5326,-1.5375,-1.5396,-1.5392,-1.5401,-1.5405,-1.539,-1.539,-1.5408,-1.5403,-1.5403,-1.5403,-1.5408,-1.5409,-1.5398,-1.5401,-1.5402,-1.5322,-1.526,-1.5195,-1.5066,-1.4936,-1.4794,-1.4664,-1.4499,-1.4306,-1.4163,-1.403,-1.3903,-1.3781,-1.3672,-1.3594,-1.3462,-1.3413,-1.3396,0.0,0.0,0.0,0.0,0.0,0.0,-1.4349,-1.4337,-1.4886,-1.645,-1.6634,-1.7232,-1.8768,-1.9,-1.9017,-1.9017,0.0,0.0,0.0,0.0,0.0,0.0,0.0,0.0,0.0,0.0,-1.9541,-1.9668,-1.9782,0.0,0.0,0.0,0.0,0.0,0.0,-2.042,-2.0449,-2.0483,0.0,0.0,0.0,0.0,0.0,0.0,0.0,0.0,0.0,0.0,-2.0605,-2.0599,-2.0024,-1.9151,-1.8267,-1.7153,-1.6079,-1.5557,-1.539,-1.5401,-1.5322,-1.5303,-1.5291,-1.5302,-1.5299,-1.5274,-1.5226,-1.5196,-1.5199,-1.5195,-1.5189,-1.5189,-1.5189,-1.5189,-1.5201,-1.5204,-1.519,-1.522,-1.5294,-1.5299,-1.5298,-1.5306,-1.5292,-1.5333,-1.5387,-1.5407,-1.5407,-1.54,-1.5409,-1.539,-1.5407,-1.5404,-1.5402,-1.5402,-1.5402,-1.5407,-1.539,-1.5395,-1.5373,-1.5338,-1.5307,-1.5236,-1.5146,-1.4996,-1.484,-1.4668,-1.4537,-1.4381,-1.4163,-1.403,-1.3886,-1.3717,-1.3608,-1.3511,-1.3396,-1.3362,-1.3312,-1.3278,0.0,0.0,0.0,0.0,0.0,-1.4268,-1.4273,-1.426,-1.4734,-1.6055,-1.6402,-1.7032,-1.8341,-1.8681,-1.8807,-1.8807,-1.8878,0.0,0.0,0.0,0.0,0.0,0.0,0.0,0.0,0.0,-1.9423,-1.9541,-1.9686,-1.9782,0.0,0.0,-2.0079,-2.0175,0.0,0.0,0.0,0.0,0.0,0.0,0.0,0.0,0.0,0.0,0.0,0.0,0.0,0.0,0.0,0.0,0.0,-1.9495,-1.8629,0.0,0.0,-1.5721,-1.5381,-1.5352,-1.5319,-1.5303,-1.5306,-1.5298,-1.5299,-1.5274,-1.522,-1.519,-1.5199,-1.5195,-1.5189,-1.5189,-1.5189,-1.5189,-1.5201,-1.5204,-1.5196,-1.5226,-1.5294,-1.5303,-1.5306,-1.5291,-1.5319,-1.5342,-1.5393,-1.5394,-1.5394,-1.5406,-1.541,-1.541,-1.5403,-1.5402,-1.5402,-1.5402,-1.5405,-1.5408,-1.539,-1.5409,-1.5379,-1.5303,-1.5278,-1.5193,-1.5068,-1.4917,-1.4729,-1.4534,-1.438,-1.4198,-1.3998,-1.3856,-1.3686,-1.3493,-1.3429,-1.3346,-1.3243,-1.3226,-1.3192,-1.3139,0.0,0.0,0.0,0.0,0.0,0.0,-1.4198,-1.4198,-1.4459,-1.521,-1.5951,-1.6687,-1.7435,-1.8162,-1.8604,-1.8604,-1.8789,0.0,0.0,0.0,0.0,0.0,0.0,0.0,0.0,0.0,-1.9335,-1.9409,-1.9541,-1.9662,-1.98,-1.9873,-1.9971,-2.0098,0.0,0.0,0.0,0.0,0.0,0.0,0.0,0.0,0.0,0.0,0.0,0.0,0.0,0.0,0.0,0.0,0.0,0.0,0.0,0.0,0.0,0.0,-1.5352,-1.5306,-1.5299,-1.5299,-1.5298,-1.5308,-1.5294,-1.5269,-1.521,-1.5204,-1.5199,-1.5195,-1.5189,-1.5189,-1.5189,-1.5189,-1.5201,-1.5204,-1.5196,-1.5226,-1.5294,-1.5289,-1.5291,-1.5291,-1.5352,-1.5393,-1.5393,-1.5397,-1.5395,-1.5406,-1.541,-1.541,-1.5403,-1.5402,-1.5402,-1.5402,-1.5409,-1.539,-1.5409,-1.5401,-1.5362,-1.5295,-1.5226,-1.5133,-1.4984,-1.4785,-1.4598,-1.4386,-1.4201,-1.3991,-1.3793,-1.3591,-1.3412,-1.3295,-1.3227,-1.3157,-1.3084,-1.3031,-1.3013,-1.2979,0.0,0.0,0.0,0.0,0.0,0.0,0.0,-1.4199,-1.4441,-1.5134,-1.5904,-1.6689,-1.7418,-1.8144,-1.8585,-1.8585,-1.866,0.0,0.0,0.0,0.0,0.0,0.0,0.0,0.0,0.0,-1.9214,-1.9335,-1.9423,-1.9555,-1.9719,-1.9842,-1.9936,-2.0031,-2.0152,-2.0246,0.0,0.0,0.0,0.0,0.0,0.0,-2.0536,0.0,0.0,0.0,0.0,0.0,0.0,0.0,0.0,0.0,0.0,0.0,0.0,-1.7374,-1.6211,-1.5299,-1.5306,-1.5298,-1.5284,-1.5241,-1.5226,-1.5234,-1.521,-1.5207,-1.5209,-1.5203,-1.5152,-1.5152,-1.5197,-1.5197,-1.5209,-1.5199,-1.521,-1.5215,-1.5294,-1.5299,-1.5298,-1.5291,-1.5352,-1.5402,-1.5394,-1.5407,-1.5398,-1.5406,-1.541,-1.5663,-1.6262,-1.5714,-1.5402,-1.5402,-1.5409,-1.5408,-1.5409,-1.5404,-1.5349,-1.5225,-1.5155,-1.5047,-1.4856,-1.4661,-1.4448,-1.4252,-1.4011,-1.3783,-1.3572,-1.3378,-1.3226,-1.3103,-1.3031,-1.2959,-1.2885,-1.2885,-1.285,-1.285,0.0,0.0,0.0,0.0,0.0,0.0,0.0,-1.4114,-1.4367,-1.5074,-1.5841,-1.6622,-1.7365,-1.8124,-1.8565,-1.8565,-1.8565,0.0,0.0,0.0,0.0,0.0,0.0,0.0,0.0,-1.907,-1.9135,-1.9261,-1.932,-1.9456,-1.9665,-1.9763,-1.9866,-1.9969,-2.0079,-2.018,0.0,0.0,0.0,0.0,0.0,0.0,-2.0494,0.0,0.0,0.0,0.0,0.0,0.0,0.0,0.0,0.0,0.0,0.0,0.0,0.0,-1.7305,-1.6145,-1.5835,-1.5502,-1.5246,-1.521,-1.5199,-1.5193,-1.5163,-1.5164,-1.5165,-1.5165,-1.512,-1.5114,-1.5146,-1.5165,-1.5177,-1.5201,-1.5193,-1.5199,-1.5264,-1.5289,-1.5298,-1.5303,-1.5355,-1.554,-1.5869,-1.5896,-1.6023,-1.6362,-1.6386,-1.6621,-1.7165,-1.6674,-1.6381,-1.6384,-1.5742,-1.5405,-1.5392,-1.5371,-1.5311,-1.5202,-1.5101,-1.4946,-1.471,-1.4526,-1.4308,-1.4069,-1.3813,-1.3553,0.0,-1.3158,-1.298,-1.2834,-1.2808,-1.2751,-1.2678,-1.2678,-1.2678,-1.2678,0.0,0.0,0.0,0.0,0.0,0.0,0.0,-1.3991,-1.4261,-1.5013,-1.5742,-1.6501,-1.7311,-1.8067,-1.8485,-1.8485,0.0,0.0,0.0,0.0,0.0,0.0,0.0,0.0,0.0,-1.9019,-1.912,-1.9184,-1.9261,-1.9402,-1.9583,-1.9647,-1.9763,-1.9896,-1.9969,-2.006,0.0,0.0,0.0,0.0,0.0,0.0,0.0,0.0,0.0,0.0,0.0,0.0,0.0,0.0,0.0,0.0,0.0,0.0,0.0,0.0,0.0,0.0,0.0,-1.5992,-1.5268,-1.5214,-1.5189,-1.5183,-1.512,-1.5095,0.0,-1.5108,-1.5108,-1.5089,-1.5108,-1.5089,-1.5114,-1.5184,-1.5203,-1.5201,-1.5199,-1.526,-1.5302,-1.5299,-1.5401,-1.581,-1.6627,-1.6754,-1.7134,-1.7942,-1.8007,-1.8027,-1.8086,-1.8025,-1.8026,-1.8086,-1.6463,-1.5557,-1.5487,-1.544,-1.5326,-1.5199,-1.5059,-1.4849,-1.4587,-1.4368,-1.4149,-1.3877,-1.3586,-1.3328,-1.3072,-1.294,-1.2773,-1.2572,-1.2577,-1.2534,-1.2495,-1.2495,-1.2495,-1.2495,0.0,0.0,0.0,0.0,0.0,0.0,0.0,0.0,0.0,0.0,-1.5744,-1.6501,-1.7239,-1.8029,-1.8485,0.0,0.0,0.0,0.0,0.0,0.0,0.0,0.0,0.0,0.0,-1.8896,-1.9,-1.912,-1.9251,-1.9341,-1.9456,-1.9614,-1.9763,-1.9896,-1.9966,0.0,0.0,0.0,0.0,0.0,0.0,0.0,0.0,0.0,0.0,0.0,-2.043,-2.041,0.0,0.0,0.0,0.0,0.0,0.0,0.0,0.0,-1.9388,-1.8643,-1.8398,0.0,-1.5965,-1.528,-1.5127,-1.5114,0.0,0.0,0.0,0.0,0.0,0.0,-1.5085,-1.5099,-1.5113,-1.5127,-1.5178,-1.5203,-1.5195,-1.525,-1.5293,-1.5299,-1.5893,-1.6422,-1.6673,-1.7294,-1.7776,-1.7979,-1.8004,-1.8281,-1.8965,-1.8357,-1.8314,-1.8977,-1.7948,-1.707,-1.6405,-1.6332,-1.5893,-1.5121,-1.4946,-1.4719,-1.4504,-1.4263,-1.3995,-1.3731,-1.3412,-1.3123,-1.2855,-1.2678,-1.2503,-1.2368,-1.2318,-1.2293,-1.2272,-1.2272,-1.2272,-1.2272,0.0,0.0,0.0,0.0,0.0,0.0,0.0,0.0,0.0,0.0,0.0,0.0,0.0,0.0,0.0,0.0,0.0,0.0,0.0,0.0,0.0,0.0,0.0,0.0,-1.8752,-1.8861,-1.8948,-1.9053,-1.9186,-1.9295,-1.9398,-1.9546,-1.9681,-1.9818,-1.9936,0.0,0.0,0.0,0.0,0.0,-2.0347,0.0,0.0,0.0,0.0,0.0,-2.0363,-2.0346,0.0,-2.0347,-2.0334,-2.0294,0.0,0.0,0.0,0.0,-1.9901,-1.9405,-1.8978,-1.7914,-1.6742,-1.5873,-1.5649,-1.5558,-1.5155,0.0,0.0,0.0,0.0,0.0,-1.5049,-1.5057,-1.5052,-1.5099,-1.5127,-1.5153,-1.5209,-1.5587,-1.5865,-1.5888,-1.6662,-1.7368,-1.7796,-1.8306,-1.8769,-1.9168,-1.9193,-1.9392,-1.9862,-1.9448,-1.9402,-1.9842,-1.9386,-1.8546,-1.7267,-1.7152,-1.6592,-1.5594,-1.5394,-1.4982,-1.4393,-1.4087,-1.3803,-1.3493,-1.3176,-1.2908,-1.2642,-1.2407,-1.2262,-1.2159,-1.2054,-1.2012,-1.2012,-1.2012,-1.2012,-1.2012,0.0,0.0,0.0,0.0,0.0,0.0,0.0,0.0,0.0,0.0,0.0,0.0,0.0,0.0,0.0,0.0,0.0,0.0,0.0,0.0,0.0,0.0,0.0,-1.8641,-1.8679,-1.8825,-1.8931,-1.8984,-1.9119,-1.9266,-1.9375,-1.946,-1.9582,-1.972,-1.9907,-2.004,0.0,0.0,-2.0277,-2.0292,-2.0294,0.0,0.0,0.0,0.0,0.0,0.0,0.0,0.0,-2.0292,-2.0277,-2.0262,-2.0211,0.0,0.0,0.0,0.0,0.0,-1.9173,-1.8496,-1.7731,-1.6739,-1.6391,-1.6108,-1.5342,0.0,0.0,0.0,0.0,0.0,-1.4992,-1.4992,-1.5015,-1.5071,-1.5085,-1.5177,-1.5376,-1.6039,-1.656,-1.6755,-1.7551,-1.8399,-1.9137,-1.9375,-1.9782,-2.0533,-2.0596,-2.0599,-2.0601,-2.0599,-2.0573,-2.0492,-2.0499,-1.9787,-1.827,-1.8009,-1.7366,-1.6369,-1.6153,-1.5551,-1.4616,-1.4253,-1.3916,-1.3563,-1.3291,-1.3002,-1.2717,-1.2385,-1.217,-1.2063,-1.185,-1.1762,-1.1762,-1.1762,-1.1762,-1.1762,0.0,0.0,0.0,0.0,0.0,0.0,0.0,0.0,0.0,0.0,0.0,0.0,0.0,0.0,0.0,0.0,0.0,0.0,0.0,0.0,0.0,0.0,-1.8601,-1.8604,-1.8622,-1.8807,-1.8913,-1.8913,-1.9119,-1.9235,-1.9332,-1.9446,-1.9596,-1.9788,-1.9941,-2.0047,-2.0098,-2.0117,-2.0152,-2.0219,-2.0273,0.0,0.0,0.0,0.0,0.0,0.0,0.0,0.0,-2.0219,-2.0222,-2.0205,-2.0199,0.0,0.0,0.0,0.0,0.0,-1.9859,-1.9734,-1.9266,-1.7709,-1.6804,-1.6255,-1.6058,0.0,0.0,0.0,0.0,-1.4921,-1.4921,-1.4955,-1.5006,-1.5014,-1.5057,-1.5388,-1.6189,-1.6412,-1.6775,-1.7534,-1.8445,-1.904,-1.9184,-1.987,-2.0377,-2.0504,-2.0572,-2.0594,-2.0594,-2.0609,-2.0579,-2.0503,-2.0511,-2.0323,-1.9941,-1.9114,-1.8168,-1.714,-1.6866,-1.6506,-1.6061,-1.5662,-1.5284,-1.4887,-1.4551,-1.4198,-1.379,-1.3077,-1.2666,-1.245,-1.1866,-1.1615,-1.1556,-1.1556,-1.1578,-1.1623,0.0,0.0,0.0,0.0,0.0,0.0,0.0,0.0,0.0,0.0,0.0,0.0,0.0,0.0,0.0,0.0,0.0,0.0,0.0,0.0,0.0,0.0,-1.8622,-1.8642,-1.8642,-1.8825,-1.8895,-1.8895,-1.9084,-1.9235,-1.9298,-1.9475,-1.9623,-1.9751,-1.9896,-1.9974,-2.0047,-2.0079,-2.0116,-2.0152,0.0,0.0,0.0,0.0,0.0,0.0,0.0,0.0,0.0,0.0,-2.0153,-2.0145,-2.0108,0.0,0.0,0.0,0.0,0.0,-1.9966,-1.9952,-1.9647,-1.84,-1.7492,-1.6753,-1.6271,0.0,0.0,0.0,-1.4904,-1.4904,-1.4904,-1.4921,-1.4965,-1.4998,-1.5068,-1.5419,-1.6323,-1.6843,-1.7484,-1.8388,-1.9298,-1.9857,-1.9893,-2.0253,-2.0506,-2.0494,-2.0521,-2.0547,-2.0547,-2.0558,-2.0525,-2.0503,-2.0463,-2.0377,-2.0246,-1.9704,-1.8923,-1.7892,-1.7546,-1.698,-1.6217,-1.583,-1.5406,-1.4968,-1.4629,-1.4279,-1.3909,-1.3386,-1.3094,-1.2929,-1.2549,-1.2384,-1.233,-1.201,-1.1687,-1.1444,0.0,0.0,0.0,0.0,0.0,0.0,0.0,0.0,0.0,0.0,0.0,0.0,0.0,0.0,0.0,0.0,0.0,0.0,0.0,0.0,-1.8619,-1.8641,-1.8697,-1.8715,-1.8715,-1.8843,-1.8913,-1.8948,-1.9119,-1.9251,-1.9347,-1.9518,-1.9636,-1.9713,-1.9842,-1.993,-1.9993,-2.0049,-2.0069,-2.0079,0.0,0.0,0.0,0.0,0.0,0.0,0.0,0.0,0.0,0.0,0.0,0.0,0.0,0.0,0.0,-1.9982,-1.9971,-1.996,-1.9908,-1.9752,-1.9439,-1.8768,-1.8006,-1.7177,0.0,0.0,0.0,-1.4868,-1.4868,-1.4868,-1.4877,-1.4886,-1.4913,-1.499,-1.5205,-1.5696,-1.6548,-1.7449,-1.8351,-1.9272,-1.9978,-2.0424,-2.0482,-2.0496,-2.0497,-2.0503,-2.0494,-2.0497,-2.0494,-2.0506,-2.049,-2.048,-2.041,-2.0302,-2.0186,-1.996,-1.9449,-1.8634,-1.8228,-1.7521,-1.6551,-1.6149,-1.5692,-1.5229,-1.4867,-1.4511,-1.4162,-1.3777,-1.3532,-1.341,-1.3145,-1.3034,-1.2965,-1.2536,-1.1978,-1.1475,0.0,0.0,0.0,0.0,0.0,0.0,0.0,0.0,0.0,0.0,0.0,0.0,0.0,0.0,0.0,0.0,0.0,0.0,0.0,0.0,-1.8677,-1.8788,-1.8788,-1.8788,-1.8788,-1.8861,-1.8966,-1.9087,-1.917,-1.9298,-1.9501,-1.956,-1.9636,-1.9713,-1.983,-1.9938,-1.9993,-2.0007,-2.0,-2.0011,-2.0069,0.0,0.0,0.0,0.0,0.0,0.0,0.0,0.0,0.0,0.0,0.0,0.0,0.0,-1.99,-1.9908,-1.9915,-1.9915,-1.9896,-1.9303,-1.8674,-1.8617,-1.7993,0.0,-1.6298,-1.5433,-1.4813,-1.4822,-1.4812,-1.4812,-1.4813,-1.486,-1.4923,-1.499,-1.5679,-1.6519,-1.7385,-1.831,-1.9234,-2.012,-2.0321,-2.0427,-2.0488,-2.0504,-2.051,-2.05,-2.0492,-2.0494,-2.0506,-2.0494,-2.0472,-2.0405,-2.034,-2.0242,-2.0107,-1.9839,-1.958,-1.9331,-1.8924,-1.8462,-1.7956,-1.7473,-1.7003,-1.6537,-1.6146,-1.5747,-1.533,-1.4542,-1.4084,-1.3783,-1.315,-1.283,-1.2733,-1.2829,-1.2462,-1.1967,0.0,0.0,0.0,0.0,0.0,0.0,0.0,0.0,0.0,0.0,0.0,0.0,0.0,0.0,0.0,0.0,0.0,0.0,0.0,0.0,-1.8769,-1.886,-1.8861,-1.8914,-1.8984,-1.9001,-1.9035,-1.9087,-1.9216,-1.9341,-1.9501,-1.9578,-1.9641,-1.9694,-1.9794,-1.9884,-1.9949,-1.9993,-2.0007,-2.0,-2.002,-2.003,0.0,0.0,0.0,0.0,0.0,0.0,0.0,0.0,-1.9945,-1.9941,-1.9949,-1.9919,-1.9896,-1.9856,-1.9468,-1.9073,-1.9037,-1.8395,-1.7603,-1.7116,-1.6753,0.0,0.0,-1.5402,-1.4794,-1.4803,-1.4803,-1.4803,-1.4803,-1.4813,-1.4859,-1.4921,-1.5247,-1.5988,-1.7388,-1.7941,-1.8724,-2.0135,-2.0327,-2.0359,-2.0424,-2.0473,-2.05,-2.0499,-2.0506,-2.0503,-2.0492,-2.0456,-2.043,-2.0402,-2.0287,-2.0152,-1.9971,-1.9713,-1.9415,-1.9093,-1.8771,-1.8356,-1.7888,-1.7439,-1.6926,-1.6421,-1.6037,-1.5682,-1.5344,-1.4814,-1.4548,-1.4429,-1.4042,-1.3633,-1.3284,-1.3329,-1.2955,-1.2387,0.0,0.0,0.0,0.0,0.0,0.0,0.0,0.0,0.0,0.0,0.0,0.0,0.0,0.0,0.0,0.0,0.0,0.0,0.0,-1.8807,-1.8878,-1.8967,-1.8966,-1.9018,-1.912,-1.9153,-1.9153,-1.9153,-1.9295,-1.9402,-1.9512,-1.9606,-1.966,-1.9699,-1.977,-1.983,-1.9873,-1.9949,-1.9982,-1.9966,-1.9969,-1.9969,0.0,0.0,0.0,0.0,0.0,0.0,0.0,0.0,-1.9896,-1.9873,-1.9861,-1.9691,-1.9442,-1.9401,-1.8807,-1.8151,-1.8104,-1.7475,-1.6698,-1.6145,0.0,0.0,-1.5583,-1.5165,-1.4764,-1.4773,-1.4764,-1.4774,-1.4765,-1.4794,-1.4823,-1.4868,-1.5156,-1.5888,-1.7363,-1.7852,-1.8608,-2.0084,-2.0292,-2.0328,-2.0396,-2.0443,-2.0468,-2.0472,-2.0495,-2.0491,-2.0473,-2.0429,-2.0371,-2.0327,-2.0214,-2.0031,-1.9832,-1.9567,-1.9219,-1.8824,-1.8494,-1.8128,-1.7704,-1.7224,-1.6747,-1.6231,-1.5839,-1.5507,-1.5253,-1.4932,-1.4746,-1.4651,-1.4497,-1.4186,-1.3813,-1.3843,-1.3459,-1.2897,0.0,0.0,0.0,0.0,0.0,0.0,0.0,0.0,0.0,0.0,0.0,0.0,0.0,0.0,0.0,0.0,0.0,0.0,0.0,-1.8896,-1.8966,-1.9087,-1.9087,-1.9119,-1.9184,-1.9266,-1.9282,-1.9301,-1.9424,-1.9512,-1.9499,-1.9647,-1.9699,-1.9699,-1.977,-1.98,-1.98,-1.9873,-1.9896,-1.9896,-1.9896,-1.9896,-1.9896,0.0,0.0,0.0,0.0,0.0,0.0,0.0,-1.9842,-1.9788,-1.977,-1.9176,-1.8495,-1.8497,-1.7868,-1.7195,-1.7195,-1.6593,-1.5993,-1.5993,-1.5346,-1.4701,-1.4701,-1.4695,-1.4697,-1.4693,-1.4695,-1.4707,-1.4707,-1.4747,-1.4794,-1.4794,-1.5583,-1.6487,-1.7357,-1.8306,-1.9216,-2.0088,-2.0242,-2.0325,-2.0392,-2.0396,-2.0399,-2.0395,-2.0449,-2.0464,-2.0394,-2.0398,-2.0346,-2.0188,-2.006,-1.9899,-1.9701,-1.9419,-1.9099,-1.8697,-1.8214,-1.7849,-1.7589,-1.7043,-1.6581,-1.6176,-1.5711,-1.5374,-1.5192,-1.4902,-1.4651,-1.4397,-1.4332,-1.43,-1.43,-1.4365,-1.4014,-1.3509,0.0,0.0,0.0,0.0,0.0,0.0,0.0,0.0,0.0,0.0,0.0,0.0,0.0,0.0,0.0,0.0,0.0,0.0,0.0,-1.9001,-1.907,-1.9087,-1.8608,-1.8362,-1.8419,-1.8493,-1.8801,-1.936,-1.9464,-1.9522,-1.9583,-1.9647,-1.9712,-1.9701,-1.9776,-1.9794,-1.98,-1.983,-1.9873,-1.9896,-1.9896,-1.9896,-1.9896,0.0,0.0,0.0,0.0,0.0,0.0,0.0,0.0,0.0,-1.8165,-1.7798,-1.758,-1.7583,-1.6993,-1.6358,-1.6295,-1.5659,-1.5025,-1.5014,-1.4818,-1.464,-1.464,-1.4672,-1.4703,-1.4712,-1.4693,-1.4695,-1.4707,-1.4746,-1.4803,-1.4794,-1.5066,-1.5581,-1.6467,-1.7392,-1.8302,-1.9177,-1.9896,-2.0315,-2.0325,-2.0328,-2.0353,-2.0404,-2.0429,-2.0398,-2.0328,-2.0287,-2.0227,-2.0125,-1.9941,-1.9762,-1.955,-1.924,-1.8877,-1.8473,-1.8107,-1.771,-1.7313,-1.6866,-1.6409,-1.5955,-1.5595,-1.5299,-1.5013,-1.4704,-1.4497,-1.4332,-1.43,-1.43,-1.43,-1.4332,-1.4224,-1.4006,0.0,0.0,0.0,0.0,0.0,0.0,0.0,0.0,0.0,0.0,0.0,0.0,0.0,0.0,0.0,0.0,0.0,0.0,0.0,0.0,-1.8504,-1.8242,-1.7811,-1.7595,-1.7647,-1.7734,-1.8167,-1.8966,-1.9323,-1.9532,-1.9592,-1.966,-1.9694,-1.9695,-1.9776,-1.9788,-1.9794,-1.9794,-1.9825,-1.9868,-1.9868,-1.9642,-1.9341,0.0,0.0,0.0,0.0,0.0,0.0,0.0,0.0,0.0,-1.737,0.0,-1.6676,-1.6667,-1.6098,-1.5436,-1.5392,-1.501,-1.4592,-1.46,-1.46,-1.46,-1.46,-1.464,-1.4661,-1.4672,-1.4654,-1.4664,-1.4695,-1.4726,-1.4774,-1.4794,-1.4841,-1.5178,-1.6062,-1.6996,-1.7896,-1.8799,-1.9673,-2.0233,-2.0262,-2.0265,-2.0287,-2.0359,-2.0332,-2.0299,-2.025,-2.0203,-2.0125,-2.001,-1.9821,-1.9606,-1.938,-1.9046,-1.8681,-1.8333,-1.7915,-1.7526,-1.7052,-1.6712,-1.6328,-1.5871,-1.5418,-1.5074,-1.4783,-1.4596,-1.442,-1.43,-1.43,-1.43,-1.43,-1.43,-1.43,-1.4246,0.0,0.0,0.0,0.0,0.0,0.0,0.0,0.0,0.0,0.0,0.0,0.0,0.0,0.0,0.0,0.0,0.0,0.0,0.0,0.0,-1.753,-1.6922,-1.6835,-1.682,-1.6903,-1.6954,-1.7399,-1.8191,-1.9012,-1.9467,-1.9596,-1.9655,-1.9694,-1.9713,-1.9776,-1.9807,-1.9788,-1.9732,-1.9682,-1.9682,-1.9588,-1.9082,-1.8369,-1.8376,0.0,0.0,0.0,0.0,0.0,0.0,0.0,0.0,-1.7,-1.6406,-1.577,-1.5774,-1.5232,-1.46,-1.4589,-1.4589,-1.4589,-1.4589,-1.4589,-1.4589,-1.4589,-1.4589,-1.46,-1.4603,-1.4603,-1.4614,-1.4683,-1.4695,-1.4717,-1.4793,-1.4794,-1.5095,-1.5959,-1.6829,-1.7728,-1.8667,-1.9497,-2.004,-2.0175,-2.0203,-2.0222,-2.0277,-2.023,-2.0186,-2.018,-2.0108,-2.0,-1.9881,-1.9676,-1.9444,-1.9178,-1.8842,-1.8513,-1.8166,-1.7715,-1.7272,-1.686,-1.6591,-1.6246,-1.5814,-1.5269,-1.4814,-1.4501,-1.4501,-1.442,-1.43,-1.43,-1.43,-1.43,-1.43,-1.43,-1.43,0.0,0.0,0.0,0.0,0.0,0.0,0.0,0.0,0.0,0.0,0.0,0.0,0.0,0.0,0.0,0.0,0.0,0.0,0.0,0.0,-1.7036,-1.6913,-1.6343,-1.6072,-1.6139,-1.6142,-1.6585,-1.7442,-1.8242,-1.8994,-1.9688,-1.9688,-1.9732,-1.9776,-1.9795,-1.9807,-1.977,-1.9075,-1.8782,-1.8713,-1.8095,-1.7678,-1.748,-1.748,-1.7375,0.0,0.0,0.0,0.0,0.0,0.0,0.0,-1.5373,-1.5029,-1.4881,-1.4888,-1.4748,-1.4589,-1.4537,-1.4526,-1.4515,-1.4522,-1.4511,-1.4511,-1.4511,-1.4511,-1.4533,-1.4589,-1.4603,-1.4595,-1.4614,-1.4666,-1.4717,-1.4793,-1.4794,-1.4888,-1.5131,-1.593,-1.6809,-1.7709,-1.8554,-1.9354,-2.005,-2.0126,-2.0116,-2.0144,-2.0126,-2.0098,-2.0049,-1.9928,-1.9797,-1.9662,-1.9532,-1.9292,-1.8982,-1.868,-1.8356,-1.7971,-1.7595,-1.7175,-1.6747,-1.6474,-1.5996,-1.5418,-1.5118,-1.4814,-1.4501,-1.4501,-1.442,-1.43,-1.43,-1.43,-1.43,-1.43,-1.43,-1.43,0.0,0.0,0.0,0.0,0.0,0.0,0.0,0.0,0.0,0.0,0.0,0.0,0.0,0.0,0.0,0.0,0.0,0.0,0.0,0.0,0.0,0.0,-1.5432,-1.5255,-1.5325,-1.532,-1.5743,-1.6623,-1.7053,-1.7711,-1.857,-1.8952,-1.8945,-1.8613,-1.9019,-1.8962,-1.8575,-1.8125,-1.7926,-1.7896,-1.7435,-1.7001,-1.6634,-1.6623,-1.6358,-1.5993,-1.5964,0.0,0.0,0.0,0.0,0.0,0.0,0.0,-1.4549,-1.4549,-1.4545,-1.454,-1.4517,-1.4488,-1.4446,-1.4453,-1.4483,-1.4494,-1.4494,-1.4506,-1.4499,-1.4545,-1.4578,-1.4603,-1.4603,-1.4645,-1.4705,-1.4754,-1.4775,-1.4804,-1.4841,-1.5602,-1.6328,-1.6829,-1.7995,-1.8935,-1.9401,-1.9801,-2.0039,-2.001,-2.0009,-1.9966,-1.9919,-1.9788,-1.9643,-1.9504,-1.9308,-1.9066,-1.8753,-1.8454,-1.8111,-1.7749,-1.7384,-1.6901,-1.6367,-1.6163,-1.5784,-1.5283,-1.5088,-1.4814,-1.4501,-1.4501,-1.442,-1.43,-1.43,-1.43,-1.43,-1.43,-1.43,-1.43,0.0,0.0,0.0,0.0,0.0,0.0,0.0,0.0,0.0,0.0,0.0,0.0,0.0,0.0,0.0,0.0,0.0,0.0,0.0,0.0,0.0,0.0,-1.4614,-1.4645,-1.4707,-1.4707,-1.5073,-1.5797,-1.5797,0.0,0.0,0.0,0.0,-1.7337,0.0,-1.7918,-1.7299,-1.7146,-1.7079,-1.7049,-1.684,-1.638,-1.5762,-1.5759,-1.5309,-1.4672,-1.4614,-1.4592,-1.46,-1.4589,0.0,0.0,0.0,0.0,-1.4492,-1.4492,-1.4476,-1.4489,-1.4489,-1.4429,-1.4399,-1.4399,-1.4429,-1.4489,-1.4489,-1.4483,-1.4506,-1.4506,-1.4545,-1.4589,-1.4603,-1.4643,-1.4693,-1.4697,-1.4746,-1.4784,-1.4804,-1.5424,-1.5942,-1.6139,-1.7405,-1.8361,-1.8646,-1.9317,-1.9779,-1.9851,-1.9835,-1.9794,-1.9738,-1.9601,-1.9456,-1.9311,-1.9066,-1.8807,-1.8528,-1.8232,-1.7893,-1.7526,-1.7117,-1.6581,-1.5996,-1.5841,-1.5595,-1.5268,-1.5088,-1.4814,-1.4501,-1.4501,-1.442,-1.43,-1.43,-1.43,-1.43,-1.43,-1.43,-1.43,0.0,0.0,0.0,0.0,0.0,0.0,0.0,0.0,0.0,0.0,0.0,0.0,0.0,0.0,0.0,0.0,0.0,0.0,0.0,0.0,0.0,0.0,-1.4672,-1.4685,-1.4707,-1.4764,-1.484,-1.4963,-1.4954,0.0,0.0,0.0,0.0,-1.7299,0.0,-1.7401,-1.7259,-1.649,-1.6159,-1.6116,-1.5351,-1.4976,-1.486,-1.482,-1.4717,-1.4614,-1.4611,-1.46,-1.4589,-1.4526,-1.4515,0.0,0.0,0.0,-1.4483,-1.4441,-1.4411,-1.4399,-1.4399,-1.4417,-1.4399,-1.4399,-1.4417,-1.4399,-1.4399,-1.4459,-1.4501,-1.4501,-1.4499,-1.4526,-1.4589,-1.4622,-1.4635,-1.4697,-1.4707,-1.4717,-1.4784,-1.4907,-1.5245,-1.593,-1.6288,-1.6993,-1.8384,-1.8636,-1.8981,-1.9663,-1.9612,-1.9518,-1.9452,-1.9323,-1.9184,-1.8965,-1.8771,-1.8528,-1.8249,-1.8057,-1.7732,-1.7344,-1.6763,-1.6301,-1.5996,-1.5755,-1.5477,-1.5222,-1.5058,-1.4814,-1.4501,-1.4501,-1.442,-1.43,-1.43,-1.43,-1.43,-1.43,-1.43,-1.43,0.0,0.0,0.0,0.0,0.0,0.0,0.0,0.0,0.0,0.0,0.0,0.0,0.0,0.0,0.0,0.0,0.0,0.0,0.0,0.0,0.0,-1.4643,-1.4683,-1.4714,-1.4764,-1.4774,-1.4794,-1.4804,0.0,0.0,0.0,-1.5554,-1.5911,0.0,0.0,0.0,0.0,-1.5448,-1.5268,-1.5229,-1.4815,-1.4645,-1.4643,-1.4603,-1.4571,-1.453,-1.4537,-1.4545,-1.4533,-1.4517,-1.4506,-1.4476,-1.4459,0.0,0.0,0.0,-1.4393,-1.4387,-1.4356,-1.4325,-1.4325,-1.4325,-1.4368,-1.4399,-1.4399,-1.4423,-1.4459,-1.4489,-1.4494,-1.4499,-1.4545,-1.4571,-1.4603,-1.4645,-1.4685,-1.4705,-1.4736,-1.4784,-1.4925,-1.5233,-1.57,-1.626,-1.6971,-1.7869,-1.8521,-1.8835,-1.9193,-1.935,-1.9248,-1.9101,-1.893,-1.8734,-1.8508,-1.827,-1.8018,-1.7755,-1.7344,-1.685,-1.6421,-1.6067,-1.5784,-1.5595,-1.5403,-1.5178,-1.5058,-1.4859,-1.4624,-1.4533,-1.442,-1.4365,-1.43,-1.43,-1.43,-1.43,-1.43,-1.43,0.0,0.0,0.0,0.0,0.0,0.0,0.0,0.0,0.0,0.0,0.0,0.0,0.0,0.0,0.0,0.0,0.0,0.0,0.0,0.0,0.0,-1.4701,-1.4701,-1.4732,-1.4803,-1.4803,-1.4803,0.0,0.0,0.0,-1.4794,-1.4794,-1.4794,0.0,-1.5422,-1.5356,0.0,-1.4717,-1.4697,-1.4687,-1.4635,-1.4595,-1.4603,-1.4571,-1.4537,-1.4504,-1.4492,-1.4499,-1.4494,-1.4471,-1.4471,-1.4459,-1.4423,-1.4393,0.0,0.0,0.0,-1.4342,-1.4281,-1.4281,-1.4281,-1.4281,-1.4324,-1.4367,-1.4367,-1.4387,-1.4405,-1.4465,-1.4477,-1.4483,-1.4499,-1.4545,-1.4589,-1.4592,-1.4632,-1.4683,-1.4666,-1.4724,-1.4716,-1.4666,-1.5187,-1.5622,-1.5841,-1.6923,-1.7757,-1.8092,-1.8587,-1.8915,-1.8984,-1.8843,-1.8679,-1.8487,-1.8229,-1.7975,-1.7772,-1.7384,-1.6942,-1.6448,-1.6163,-1.5898,-1.561,-1.5492,-1.5344,-1.5133,-1.5043,-1.4904,-1.47,-1.4578,-1.4483,-1.4401,-1.4383,-1.4351,-1.4332,-1.4332,-1.4332,-1.4332,0.0,0.0,0.0,0.0,0.0,0.0,0.0,0.0,0.0,0.0,0.0,0.0,0.0,0.0,-1.4397,-1.446,0.0,0.0,0.0,0.0,0.0,-1.4701,-1.4701,0.0,-1.4803,-1.4803,0.0,0.0,0.0,0.0,-1.4794,-1.4804,-1.4794,-1.4794,-1.485,-1.4803,-1.4688,-1.4707,-1.4705,-1.4683,-1.4624,-1.4595,-1.4585,-1.4537,-1.4504,-1.4504,-1.4494,-1.4501,-1.4489,-1.4429,-1.4417,-1.4405,-1.4405,-1.4411,-1.4398,0.0,0.0,0.0,-1.4216,-1.4216,-1.4216,-1.4216,-1.426,-1.4304,-1.4304,-1.4342,-1.4411,-1.4411,-1.4411,-1.4429,-1.4489,-1.4499,-1.4526,-1.4589,-1.46,-1.46,-1.46,-1.4611,-1.46,-1.4512,-1.4549,-1.4869,-1.5643,-1.5733,-1.6356,-1.7803,-1.7828,-1.8038,-1.8587,-1.8487,-1.8325,-1.8117,-1.7922,-1.7681,-1.7432,-1.6917,-1.6543,-1.6301,-1.6055,-1.5799,-1.558,-1.5388,-1.5193,-1.5013,-1.5013,-1.4904,-1.4714,-1.47,-1.4624,-1.4501,-1.4501,-1.4452,-1.4397,-1.4397,-1.4397,-1.4397,0.0,0.0,0.0,0.0,0.0,0.0,0.0,0.0,0.0,0.0,0.0,0.0,0.0,-1.4441,-1.4324,-1.4387,-1.4441,0.0,0.0,0.0,0.0,-1.4701,-1.4701,-1.4714,-1.4736,-1.4736,0.0,0.0,0.0,-1.4803,-1.4803,-1.4794,-1.4784,-1.4727,-1.4727,-1.4717,-1.4707,-1.4695,-1.4674,-1.4624,-1.4622,-1.4571,-1.4537,-1.4522,-1.4499,-1.4494,-1.4501,-1.4471,-1.4429,-1.4399,-1.4405,-1.4392,-1.4342,-1.4348,-1.4317,-1.426,-1.4229,-1.4198,-1.4198,-1.4198,-1.4198,-1.4198,-1.4216,-1.4229,-1.4229,-1.4286,-1.433,-1.4337,-1.4362,-1.4399,-1.4429,-1.4483,-1.4517,-1.4526,-1.4537,-1.4537,-1.453,-1.453,-1.4508,-1.4433,-1.4439,-1.4544,-1.4842,-1.5238,-1.5695,-1.6196,-1.7023,-1.7541,-1.7636,-1.7962,-1.8031,-1.7772,-1.7526,-1.7224,-1.6825,-1.6517,-1.6234,-1.6055,-1.5755,-1.5551,-1.5388,-1.5283,-1.5117,-1.4949,-1.4949,-1.4856,-1.4777,-1.4714,-1.4669,-1.4624,-1.4533,-1.4483,-1.4452,-1.4452,-1.4452,-1.4452,0.0,0.0,0.0,0.0,0.0,0.0,0.0,0.0,0.0,0.0,0.0,0.0,0.0,0.0,-1.4337,-1.4387,-1.4464,-1.4522,-1.4589,-1.46,-1.464,-1.4701,-1.4701,-1.4703,-1.4707,0.0,0.0,0.0,0.0,0.0,0.0,-1.4774,-1.4746,-1.4707,-1.4697,-1.4705,-1.4705,-1.4693,-1.4643,-1.4603,-1.4589,-1.4537,-1.4504,-1.4488,-1.4513,-1.4489,-1.4465,-1.4441,-1.4399,-1.4362,-1.4367,-1.4373,-1.4317,-1.4278,-1.4252,-1.4177,-1.4145,-1.4132,-1.4132,-1.4119,-1.4119,-1.4119,-1.4163,-1.4177,-1.4177,-1.4216,-1.4273,-1.4268,-1.4312,-1.4337,-1.4368,-1.4393,-1.4447,-1.4458,-1.4469,-1.4469,-1.4474,-1.4481,-1.4446,-1.4368,-1.435,-1.4331,-1.4299,-1.4675,-1.5002,-1.518,-1.6237,-1.688,-1.6964,-1.7535,-1.7681,-1.7337,-1.7076,-1.6773,-1.6367,-1.6179,-1.5998,-1.577,-1.5522,-1.5388,-1.5253,-1.5147,-1.5025,-1.4902,-1.4871,-1.4839,-1.4808,-1.4746,-1.4746,-1.4732,-1.4624,-1.4578,-1.4578,-1.4578,-1.4578,-1.4578,0.0,0.0,0.0,0.0,0.0,0.0,0.0,0.0,0.0,0.0,0.0,0.0,0.0,0.0,0.0,-1.4387,-1.4464,-1.4522,-1.4589,-1.46,-1.464,-1.4701,0.0,0.0,0.0,0.0,0.0,0.0,0.0,0.0,0.0,0.0,-1.4707,-1.4707,-1.4703,-1.4701,-1.4683,-1.4624,-1.4603,-1.4585,-1.4537,-1.4504,-1.4504,-1.4494,-1.4489,-1.4489,-1.4423,-1.4398,-1.4398,-1.4324,-1.4299,-1.4304,-1.4291,-1.4257,-1.419,-1.4114,-1.4037,-1.4009,0.0,0.0,0.0,-1.3998,-1.4058,-1.41,-1.41,-1.415,-1.4185,-1.4198,-1.4198,-1.4229,-1.4281,-1.4293,-1.4319,-1.4375,-1.4387,-1.4399,-1.4399,-1.4387,-1.4367,-1.4293,-1.4224,-1.4172,-1.4105,-1.4023,-1.4256,-1.4904,-1.5453,-1.6008,-1.6631,-1.7177,-1.7272,-1.6789,-1.6607,-1.6367,-1.6067,-1.5942,-1.5741,-1.5477,-1.5358,-1.5253,-1.5192,-1.4994,-1.4902,-1.4902,-1.4839,-1.4808,-1.4808,-1.4808,-1.4808,-1.4808,-1.4808,-1.4777,-1.4714,-1.4714,-1.4714,-1.4714,0.0,0.0,0.0,0.0,0.0,0.0,0.0,0.0,0.0,0.0,0.0,0.0,0.0,0.0,-1.4405,-1.4459,-1.4494,-1.4522,-1.4589,-1.46,-1.464,-1.4701,-1.4701,-1.4693,0.0,0.0,0.0,0.0,0.0,0.0,0.0,0.0,0.0,0.0,-1.4654,-1.4624,-1.4643,-1.4614,-1.4563,-1.4537,-1.4515,-1.4511,-1.4494,-1.4501,-1.4465,-1.4435,-1.4411,-1.4367,-1.4324,-1.4317,-1.4304,-1.4291,-1.4244,-1.4141,-1.4037,-1.4037,-1.4009,-1.3998,-1.3998,0.0,0.0,0.0,0.0,0.0,-1.4044,-1.4037,-1.4078,-1.4123,-1.4136,-1.4145,-1.4229,-1.4242,-1.4224,-1.425,-1.4337,-1.4374,-1.4331,-1.4324,-1.4273,-1.4159,-1.4105,-1.405,-1.404,-1.388,-1.3831,-1.3978,-1.4538,-1.5086,-1.5587,-1.6386,-1.6686,-1.6371,-1.6219,-1.5996,-1.5653,-1.5566,-1.5389,-1.5134,-1.5011,-1.4902,-1.4839,-1.4686,-1.4655,-1.4746,-1.4746,-1.4777,-1.4808,-1.4808,-1.4808,-1.4808,-1.4808,-1.4808,-1.4777,-1.4777,-1.4808,-1.4839,0.0,0.0,0.0,0.0,0.0,0.0,-1.3891,-1.3952,0.0,0.0,0.0,0.0,0.0,0.0,-1.4429,-1.4489,-1.4494,-1.4511,-1.4567,-1.4589,-1.4611,-1.4672,-1.4701,-1.4701,-1.4701,0.0,0.0,0.0,0.0,0.0,0.0,0.0,0.0,0.0,0.0,0.0,-1.4571,-1.4571,-1.4549,-1.4504,-1.4499,-1.4506,-1.4489,-1.4465,-1.4417,-1.4398,-1.4367,-1.4324,-1.4299,-1.4304,-1.4278,-1.4239,-1.4159,-1.4068,-1.3991,-1.3963,-1.3966,-1.3952,-1.3927,-1.3912,-1.3912,-1.388,0.0,0.0,-1.3959,-1.3984,-1.4009,-1.404,-1.4068,-1.4064,-1.4119,-1.4119,-1.4132,-1.4163,-1.419,-1.4216,-1.4229,-1.4221,-1.4181,-1.4064,-1.4012,-1.3941,-1.388,-1.3731,-1.3606,-1.3476,-1.4038,-1.4662,-1.533,-1.6048,-1.6301,-1.5996,-1.5854,-1.5624,-1.5285,-1.5255,-1.5104,-1.4873,-1.4794,-1.47,-1.4624,-1.4547,-1.4547,-1.4624,-1.4669,-1.4714,-1.4777,-1.4808,-1.4808,-1.4808,-1.4839,-1.4839,-1.4839,-1.4887,-1.4904,-1.4949,0.0,0.0,0.0,-1.3698,-1.3761,-1.3838,-1.3891,-1.3952,-1.4012,0.0,0.0,0.0,0.0,0.0,0.0,0.0,-1.4494,-1.4499,-1.4504,-1.4549,-1.4611,-1.4603,-1.4654,-1.4701,-1.4701,-1.4701,0.0,0.0,0.0,0.0,0.0,0.0,0.0,0.0,0.0,0.0,-1.4504,-1.4504,-1.4504,-1.4492,-1.4494,-1.4489,-1.4477,-1.4423,-1.4398,-1.4367,-1.4324,-1.4299,-1.4304,-1.4291,-1.4239,-1.4159,-1.4037,-1.3991,-1.3977,-1.392,-1.3891,-1.3862,-1.3824,-1.3793,-1.3761,-1.3713,-1.3793,0.0,-1.3888,-1.393,-1.397,-1.397,-1.397,-1.3984,-1.3977,-1.3991,-1.4023,-1.4068,-1.4023,-1.4005,-1.4091,-1.4078,-1.4072,-1.4002,-1.3915,-1.3826,-1.3698,-1.3608,-1.3496,-1.3278,-1.3868,-1.4567,-1.5406,-1.5898,-1.5996,-1.5667,-1.5536,-1.5285,-1.4937,-1.4937,-1.4828,-1.4651,-1.4651,-1.456,-1.4438,-1.447,-1.447,-1.4483,-1.4624,-1.4683,-1.4714,-1.4777,-1.4808,-1.4839,-1.4871,-1.4887,-1.4918,-1.4982,-1.5013,-1.5013,0.0,0.0,-1.3702,-1.3698,-1.3761,-1.3838,-1.397,-1.3984,0.0,0.0,0.0,0.0,0.0,0.0,0.0,0.0,-1.4506,-1.4499,-1.4504,-1.4549,-1.4611,-1.4603,-1.4654,-1.4701,-1.4701,-1.4701,0.0,0.0,0.0,0.0,0.0,0.0,0.0,0.0,0.0,0.0,-1.4504,-1.4506,-1.4513,-1.4513,-1.4501,-1.4484,-1.4423,-1.4411,-1.4367,-1.4324,-1.4299,-1.4304,-1.4291,-1.4244,-1.4141,-1.4037,-1.4005,-1.3963,-1.3906,-1.3915,-1.3853,-1.3791,-1.3728,-1.3713,-1.3713,-1.3713,-1.3713,0.0,-1.3746,-1.3743,-1.3759,-1.3838,-1.3886,-1.3915,-1.392,-1.3966,-1.3998,-1.4012,-1.3966,-1.3949,-1.4005,-1.3963,-1.3923,-1.3933,-1.3811,-1.3719,-1.3642,-1.3463,-1.3295,-1.3138,-1.3953,-1.4419,-1.4402,-1.53,-1.5682,-1.5388,-1.5209,-1.4937,-1.4596,-1.4596,-1.4483,-1.43,-1.43,-1.4222,-1.4084,-1.4208,-1.4287,-1.4351,-1.4483,-1.4592,-1.4714,-1.4839,-1.4871,-1.4871,-1.4902,-1.4935,-1.4982,-1.5013,-1.5058,-1.5178,0.0,-1.3652,-1.37,-1.3698,-1.3776,-1.3886,-1.3984,-1.3998,0.0,0.0,0.0,0.0,0.0,0.0,-1.4441,0.0,0.0,0.0,-1.4511,-1.4526,-1.4578,-1.4592,-1.4632,-1.4643,-1.4643,-1.4643,-1.4643,0.0,0.0,0.0,0.0,0.0,0.0,0.0,0.0,0.0,-1.4506,-1.4453,-1.4447,-1.446,-1.446,-1.4435,-1.4398,-1.4367,-1.4324,-1.4299,-1.4304,-1.4278,-1.4244,-1.4172,-1.4082,-1.3991,-1.3995,-1.3949,-1.3891,-1.3853,-1.3841,-1.3793,-1.3715,-1.37,-1.37,-1.3667,-1.3684,0.0,0.0,-1.3698,-1.3713,-1.3746,-1.3793,-1.3791,-1.3803,-1.3818,-1.3851,-1.3851,-1.3818,-1.3818,-1.3848,-1.3848,-1.3821,-1.3763,-1.3688,-1.3609,-1.3513,-1.3312,-1.3086,-1.2813,-1.3769,-1.4216,-1.3924,-1.4911,-1.5374,-1.5117,-1.4859,-1.4641,-1.4401,-1.4369,-1.4273,-1.4111,-1.4111,-1.4078,-1.4,-1.4157,-1.4235,-1.4268,-1.442,-1.4547,-1.4624,-1.4825,-1.4918,-1.498,-1.5011,-1.5086,-1.5102,-1.5165,-1.5239,-1.5284,-1.362,-1.3667,-1.3713,-1.3713,-1.3824,-1.3915,-1.3984,-1.3998,0.0,0.0,0.0,0.0,-1.4387,-1.4399,-1.4441,-1.4506,-1.4488,-1.4488,-1.4488,-1.4492,-1.4526,-1.4578,-1.4592,-1.4603,-1.4603,-1.4603,-1.4592,-1.46,0.0,0.0,0.0,0.0,0.0,0.0,0.0,0.0,-1.4489,-1.4417,-1.4399,-1.4398,-1.4386,-1.4386,-1.4367,-1.4324,-1.4299,-1.4291,-1.4278,-1.4244,-1.4177,-1.41,-1.4037,-1.4009,-1.398,-1.3938,-1.3862,-1.3791,-1.3778,-1.3763,-1.3702,-1.3686,-1.3671,-1.3606,-1.3622,-1.3655,0.0,0.0,0.0,-1.3652,-1.3667,-1.3684,-1.3684,-1.3682,-1.3682,-1.3682,-1.3682,-1.3684,-1.3684,-1.37,-1.3684,-1.3605,-1.3593,-1.3513,-1.3362,-1.3139,-1.2852,-1.2487,-1.3503,-1.4014,-1.3689,-1.4673,-1.5117,-1.4825,-1.4578,-1.4369,-1.4203,-1.4138,-1.4059,-1.3901,-1.3901,-1.3901,-1.3934,-1.4059,-1.4138,-1.4157,-1.4388,-1.4501,-1.4533,-1.4811,-1.4935,-1.5013,-1.5147,-1.5222,-1.5268,-1.5359,-1.5418,-1.5418,-1.3686,-1.3682,-1.3713,-1.3793,-1.3851,-1.3923,-1.3984,-1.3995,0.0,0.0,0.0,-1.4392,-1.4405,-1.4459,-1.4483,-1.4506,-1.4488,-1.4488,-1.4488,-1.4492,-1.4504,-1.4515,-1.4578,-1.46,-1.46,-1.46,-1.46,-1.46,0.0,0.0,0.0,0.0,0.0,0.0,-1.4429,-1.4417,-1.4417,-1.4405,-1.4411,-1.4398,-1.4348,-1.4299,-1.4306,-1.4299,-1.4304,-1.4291,-1.423,-1.4159,-1.41,-1.4037,-1.4009,-1.3998,-1.3938,-1.3865,-1.3809,-1.3728,-1.3715,-1.3702,-1.362,-1.3608,-1.361,-1.3594,-1.3561,-1.3511,-1.3511,0.0,-1.3511,-1.3511,0.0,-1.361,-1.361,0.0,0.0,-1.362,-1.3608,-1.361,-1.361,-1.3511,-1.3477,-1.3589,-1.3495,-1.3379,-1.3227,-1.2873,-1.2553,-1.2327,-1.3321,-1.3815,-1.3524,-1.4486,-1.489,-1.4578,-1.4401,-1.417,-1.3854,-1.3854,-1.3741,-1.3547,-1.3547,-1.3581,-1.3648,-1.3775,-1.3894,-1.4032,-1.4319,-1.4433,-1.4533,-1.4845,-1.4982,-1.5013,-1.5147,-1.5254,-1.5389,-1.5389,-1.5448,-1.5507,-1.3702,-1.3715,-1.3761,-1.3793,-1.3865,-1.392,-1.3984,-1.4082,0.0,0.0,0.0,-1.4405,-1.4405,-1.4459,-1.4501,-1.4506,-1.4488,-1.4488,-1.4488,-1.4499,-1.4492,-1.4504,-1.4526,-1.4537,-1.4537,-1.4537,-1.4545,-1.4533,-1.4511,0.0,0.0,0.0,0.0,0.0,-1.4411,-1.4399,-1.4405,-1.4355,-1.433,-1.433,-1.4273,-1.4242,-1.4242,-1.4242,-1.4234,-1.4226,-1.4172,-1.4114,-1.4082,-1.4023,-1.3995,-1.3984,-1.392,-1.3851,-1.3793,-1.3713,-1.37,-1.3686,-1.362,-1.3592,-1.3611,-1.3611,-1.3562,-1.3512,-1.3512,-1.3512,-1.3512,-1.3512,0.0,0.0,0.0,0.0,0.0,0.0,-1.3511,-1.3479,-1.3479,-1.3413,-1.3379,-1.3479,-1.3346,-1.3139,-1.2944,-1.27,-1.2443,-1.22,-1.3127,-1.3602,-1.3274,-1.4166,-1.461,-1.4401,-1.4124,-1.3941,-1.3788,-1.3674,-1.3594,-1.348,-1.348,-1.3547,-1.3615,-1.3741,-1.3861,-1.4032,-1.4287,-1.4433,-1.4533,-1.4845,-1.5058,-1.5133,-1.5254,-1.5359,-1.5418,-1.5477,-1.558,-1.5668,-1.3733,0.0,-1.3809,-1.3821,-1.388,-1.3952,-1.4044,-1.4136,-1.4229,-1.4286,-1.4367,-1.4417,-1.4429,-1.4471,-1.4494,-1.4506,-1.4488,-1.4488,-1.4488,-1.4488,-1.4499,-1.4492,-1.4492,-1.4492,-1.4492,-1.4492,-1.4511,-1.4488,0.0,0.0,0.0,0.0,0.0,0.0,-1.438,-1.4373,-1.4373,-1.4304,-1.4273,-1.426,-1.4221,-1.419,-1.4159,-1.419,-1.4181,-1.4177,-1.4114,-1.41,-1.41,-1.4023,-1.3995,-1.3984,-1.3909,-1.3851,-1.3793,-1.3713,-1.37,-1.3686,-1.362,-1.3592,-1.3562,-1.3562,-1.3512,-1.3479,-1.3479,-1.3479,-1.3479,-1.3479,-1.3479,0.0,0.0,0.0,-1.3429,-1.3429,0.0,-1.3346,-1.3346,-1.3295,-1.3278,-1.3329,-1.3173,-1.2961,-1.2703,-1.2526,-1.2338,-1.2091,-1.2999,-1.342,-1.3115,-1.4002,-1.442,-1.4222,-1.3941,-1.3754,-1.3674,-1.356,-1.3459,-1.3425,-1.3425,-1.3459,-1.3581,-1.3674,-1.3828,-1.4032,-1.4254,-1.4433,-1.4578,-1.489,-1.5088,-1.5238,-1.5374,-1.5448,-1.5522,-1.561,-1.5741,-1.5827,-1.3793,-1.3793,-1.3806,-1.3877,-1.3952,-1.4044,-1.4177,-1.4195,-1.4211,-1.4293,-1.4368,-1.4429,-1.4489,-1.4494,-1.4488,-1.4488,-1.4488,-1.4488,-1.4488,-1.4488,-1.4488,-1.4488,-1.4488,-1.4488,-1.4488,-1.4488,-1.4488,-1.4488,-1.4513,0.0,0.0,0.0,0.0,0.0,-1.433,-1.4304,-1.4304,-1.4229,-1.4198,-1.4198,-1.4199,-1.4159,-1.4114,-1.419,-1.4159,-1.41,-1.41,-1.41,-1.41,-1.4012,-1.3998,-1.4002,-1.3933,-1.3856,-1.3793,-1.3713,-1.37,-1.3686,-1.362,-1.3543,-1.3512,-1.3512,-1.3446,-1.3396,-1.3396,-1.3396,-1.3396,-1.3396,-1.3396,-1.3379,-1.3329,-1.3312,-1.3278,-1.3227,-1.321,0.0,0.0,-1.3154,-1.3121,-1.3192,-1.3015,-1.2829,-1.261,-1.2412,-1.2221,-1.2012,-1.2936,-1.3394,-1.3115,-1.4002,-1.4342,-1.4019,-1.3861,-1.3674,-1.3425,-1.3425,-1.3323,-1.3198,-1.3198,-1.3288,-1.348,-1.3514,-1.3682,-1.4032,-1.4222,-1.4461,-1.47,-1.4921,-1.5118,-1.5313,-1.5433,-1.561,-1.5799,-1.5799,-1.5827,-1.5928,-1.3865,-1.388,-1.3862,-1.3891,-1.3966,-1.4037,-1.4177,-1.4234,-1.4286,-1.4355,-1.4399,-1.4429,-1.4489,-1.4494,-1.4499,-1.4492,-1.4492,-1.4522,-1.4556,-1.4515,-1.4492,-1.4492,-1.4499,-1.4488,-1.4488,-1.4488,-1.4506,-1.4513,-1.4501,0.0,0.0,0.0,0.0,0.0,-1.4304,-1.4291,-1.4229,-1.4208,-1.4199,-1.4199,-1.4159,-1.4114,-1.41,-1.4131,-1.4114,-1.41,-1.41,-1.41,-1.41,-1.4023,-1.3995,-1.3984,-1.3909,-1.3836,-1.3793,-1.3713,-1.37,-1.3686,-1.362,-1.3543,-1.3512,-1.3512,-1.3446,-1.3396,-1.3396,-1.3396,-1.3379,-1.3346,-1.3329,-1.3312,-1.3261,-1.3227,-1.3226,-1.3208,-1.3156,-1.3121,0.0,-1.2959,-1.2869,-1.2818,-1.2754,-1.2616,-1.2427,-1.2226,-1.1997,-1.1747,-1.2677,-1.3129,-1.2844,-1.3758,-1.4157,-1.3874,-1.3695,-1.3493,-1.3267,-1.3232,-1.3163,-1.3141,-1.3141,-1.3267,-1.348,-1.348,-1.3682,-1.4032,-1.4222,-1.4461,-1.4714,-1.4921,-1.5134,-1.5374,-1.5522,-1.5697,-1.5871,-1.5871,-1.597,-1.6139,-1.3938,-1.3934,-1.3934,-1.3934,-1.4009,-1.4109,-1.4185,-1.4273,-1.4312,-1.4405,-1.4423,-1.4459,-1.4501,-1.4506,-1.4511,-1.4504,-1.4526,-1.4549,-1.46,-1.4567,-1.4655,-1.4956,-1.4658,-1.4628,-1.4921,-1.4664,-1.4494,-1.4501,-1.4489,-1.4441,0.0,0.0,0.0,0.0,-1.4283,-1.4239,-1.4208,-1.4172,-1.4159,-1.4159,-1.4114,-1.41,-1.41,-1.41,-1.41,-1.41,-1.41,-1.41,-1.4082,-1.4023,-1.3995,-1.3984,-1.392,-1.3865,-1.3809,-1.3761,-1.3715,-1.3684,-1.3653,-1.3592,-1.3528,-1.3512,-1.3463,-1.3413,-1.3396,-1.3379,-1.3346,-1.3312,-1.3278,-1.3244,-1.3174,-1.3157,-1.3139,-1.3102,-1.3048,-1.3012,0.0,-1.2792,-1.2659,-1.253,-1.2522,-1.2459,-1.2266,-1.2081,-1.1869,-1.1615,-1.2528,-1.2994,-1.2719,-1.3618,-1.3993,-1.3741,-1.3493,-1.3323,-1.3163,-1.3141,-1.3107,-1.3107,-1.3141,-1.3267,-1.348,-1.3514,-1.3702,-1.4032,-1.4254,-1.4493,-1.4732,-1.498,-1.5209,-1.5448,-1.561,-1.5784,-1.597,-1.6013,-1.6166,-1.634,-1.3998,-1.4009,-1.4005,-1.4005,-1.4114,-1.4199,-1.4185,-1.4268,-1.4331,-1.4405,-1.4459,-1.4501,-1.4488,-1.4492,-1.4504,-1.4497,-1.4585,-1.4655,-1.4655,-1.4692,-1.5058,-1.5833,-1.5067,-1.4982,-1.576,-1.5013,-1.4604,-1.4544,-1.4484,-1.4447,0.0,0.0,0.0,0.0,-1.423,-1.419,-1.419,-1.4131,-1.41,-1.41,-1.41,-1.41,-1.41,-1.41,-1.41,-1.41,-1.41,-1.41,-1.4082,-1.4037,-1.3995,-1.3984,-1.3938,-1.3912,-1.3888,-1.3809,-1.3761,-1.3698,-1.3702,-1.3641,-1.3578,-1.3512,-1.3462,-1.3396,-1.3396,-1.3346,-1.3295,-1.3312,-1.3227,-1.3158,-1.3119,-1.3084,-1.3048,-1.2924,-1.2885,-1.2829,-1.2719,-1.2581,-1.2459,-1.2399,-1.2363,-1.2323,-1.2205,-1.1997,-1.1805,-1.1638,-1.2542,-1.2981,-1.2733,-1.3512,-1.3868,-1.3615,-1.3323,-1.3163,-1.3094,-1.3107,-1.3107,-1.3094,-1.3163,-1.3288,-1.348,-1.3581,-1.3749,-1.4019,-1.4287,-1.4556,-1.4839,-1.5086,-1.5328,-1.5551,-1.5741,-1.5926,-1.6123,-1.6194,-1.6371,-1.6502,-1.4009,-1.4068,-1.4145,-1.4145,-1.4181,-1.4216,-1.4268,-1.4324,-1.4405,-1.4477,-1.4489,-1.4494,-1.4492,-1.4504,-1.4526,-1.4581,-1.5177,-1.5577,-1.5581,-1.6133,-1.6546,-1.6756,-1.6503,-1.6459,-1.6649,-1.6421,-1.5966,-1.5329,-1.5298,-1.495,-1.4324,0.0,0.0,0.0,-1.4199,-1.4159,-1.4114,-1.4114,-1.41,-1.41,-1.41,-1.41,-1.41,-1.41,-1.41,-1.41,-1.41,-1.41,-1.41,-1.4082,-1.4037,-1.3995,-1.3966,-1.3938,-1.388,-1.3824,-1.3793,-1.3761,-1.3717,-1.3655,-1.3608,-1.3578,-1.3496,-1.3396,-1.3396,-1.3346,-1.3278,-1.3227,-1.3174,-1.3103,-1.3031,-1.2979,-1.2924,-1.2832,-1.2751,-1.2652,-1.2558,-1.2443,-1.2323,-1.2257,-1.2117,-1.2018,-1.1976,-1.179,-1.1777,-1.2024,-1.2557,-1.2927,-1.306,-1.3627,-1.3795,-1.3514,-1.3425,-1.322,-1.2943,-1.306,-1.306,-1.2943,-1.3129,-1.3288,-1.3527,-1.3674,-1.3894,-1.4157,-1.4388,-1.4624,-1.4902,-1.5147,-1.5388,-1.561,-1.5854,-1.6163,-1.6463,-1.649,-1.6543,-1.6528,-1.41,-1.4154,-1.4213,-1.4239,-1.4229,-1.4268,-1.4293,-1.4362,-1.4423,-1.4483,-1.4506,-1.4511,-1.4537,-1.4549,-1.4718,-1.5132,-1.5625,-1.6045,-1.6409,-1.6842,-1.7256,-1.7609,-1.7211,-1.7154,-1.7522,-1.7119,-1.6648,-1.6123,-1.5772,-1.5332,-1.4818,0.0,0.0,0.0,-1.4168,-1.4145,-1.41,-1.41,-1.41,-1.41,-1.41,-1.41,0.0,-1.41,-1.41,-1.41,-1.41,-1.41,-1.41,-1.41,-1.4068,-1.3991,-1.3995,-1.3966,-1.3938,-1.3865,-1.3838,-1.3826,-1.3763,-1.3684,-1.3638,-1.3608,-1.3528,-1.3446,-1.3412,-1.3329,-1.3261,-1.321,-1.3122,-1.3048,-1.2959,-1.2887,-1.2813,-1.2697,-1.2558,-1.2439,-1.2383,-1.2282,-1.2179,-1.2075,-1.2177,-1.2231,-1.2126,-1.2035,-1.2018,-1.216,-1.2774,-1.3156,-1.3199,-1.3565,-1.3695,-1.3527,-1.3357,-1.3185,-1.2978,-1.306,-1.306,-1.2978,-1.3185,-1.3391,-1.3547,-1.3741,-1.3974,-1.4268,-1.4497,-1.4718,-1.498,-1.5254,-1.5507,-1.5726,-1.6067,-1.6355,-1.6575,-1.6419,-1.6333,-1.6262,-1.4204,-1.4208,-1.4224,-1.4293,-1.4306,-1.4319,-1.4319,-1.4381,-1.4422,-1.4488,-1.4522,-1.4593,-1.4748,-1.477,-1.5114,-1.5977,-1.6156,-1.6502,-1.7207,-1.7356,-1.7733,-1.8443,-1.7736,-1.766,-1.8365,-1.7629,-1.7137,-1.6976,-1.6265,-1.5787,0.0,0.0,0.0,0.0,-1.4154,-1.4114,-1.41,-1.41,-1.41,-1.41,-1.41,-1.41,-1.41,-1.4114,-1.4114,-1.4114,-1.4096,-1.4114,-1.4114,-1.41,-1.4068,-1.4023,-1.4005,-1.3995,-1.3998,-1.392,-1.3912,-1.3903,-1.3841,-1.3763,-1.3702,-1.3638,-1.356,-1.3479,-1.3429,-1.3295,-1.321,-1.3192,-1.3086,-1.2977,-1.2901,-1.2811,-1.2697,-1.2499,-1.2363,-1.2293,-1.2293,-1.2219,-1.2158,-1.2125,-1.2528,0.0,-1.2491,-1.2491,-1.242,-1.2328,-1.3094,-1.3492,-1.3302,-1.3507,-1.3581,-1.348,-1.3267,-1.3107,-1.3107,-1.3107,-1.3107,-1.3141,-1.3323,-1.3493,-1.3615,-1.3841,-1.4072,-1.4351,-1.462,-1.4856,-1.5074,-1.5389,-1.5668,-1.5913,-1.6274,-1.6517,-1.6622,-1.6144,-1.5973,-1.5801,-1.4203,-1.4242,-1.4293,-1.4293,-1.4356,-1.4405,-1.4453,-1.4464,-1.4488,-1.4492,-1.4556,-1.4859,-1.5595,-1.567,-1.5996,-1.6824,-1.7504,-1.795,-1.8079,-1.8766,-1.9212,-1.9379,-1.9166,-1.9124,-1.928,-1.9055,-1.8607,-1.7874,-1.768,-1.6889,0.0,0.0,0.0,0.0,-1.4186,-1.4145,-1.41,-1.41,-1.41,-1.41,-1.41,-1.41,-1.4114,-1.4159,-1.419,-1.4172,-1.4177,-1.4181,-1.4159,-1.4114,-1.4145,-1.4145,-1.4037,-1.3991,-1.4009,-1.3998,-1.3938,-1.3894,-1.3886,-1.3793,-1.3698,-1.3702,-1.3592,-1.3496,-1.3496,-1.3346,-1.3192,-1.319,-1.3049,-1.2906,-1.2829,-1.2659,-1.2499,-1.2363,-1.2277,-1.2338,-1.272,-1.2712,-1.2829,-1.3178,-1.3213,-1.3116,-1.2917,-1.2891,-1.3036,-1.3401,-1.3446,-1.3547,-1.3845,-1.3683,-1.3581,-1.348,-1.3301,-1.3163,-1.3107,-1.3129,-1.3163,-1.3163,-1.3391,-1.3594,-1.3775,-1.404,-1.4254,-1.4483,-1.4763,-1.5025,-1.5268,-1.5492,-1.5854,-1.6301,-1.649,-1.6743,-1.6935,-1.6241,-1.5729,-1.5232,-1.4299,-1.4319,-1.4368,-1.4399,-1.4429,-1.4464,-1.4499,-1.4526,-1.4549,-1.456,-1.497,-1.5447,-1.5912,-1.6321,-1.6909,-1.7752,-1.818,-1.8571,-1.9,-1.9383,-1.9606,-1.9606,-1.9532,-1.9489,-1.9501,-1.9438,-1.9176,-1.873,-1.8246,-1.7599,-1.6809,-1.5853,-1.5198,-1.481,-1.4347,-1.4127,-1.41,-1.41,-1.41,-1.41,-1.41,-1.4114,-1.4159,-1.419,-1.4186,-1.4195,-1.4203,-1.4221,-1.4239,-1.4163,-1.4163,-1.4195,-1.4119,-1.4091,-1.41,-1.4054,-1.3995,-1.3934,-1.3912,-1.3853,-1.3793,-1.3715,-1.3622,-1.3527,-1.3512,-1.3362,-1.3244,-1.3207,-1.303,-1.2848,-1.2694,-1.2483,-1.2432,-1.2669,-1.2595,-1.272,-1.3275,-1.3218,-1.3187,-1.335,-1.3509,-1.3572,-1.3431,-1.3611,-1.3688,-1.3555,-1.3703,-1.3861,-1.3934,-1.3682,-1.3514,-1.348,-1.3301,-1.3163,-1.3129,-1.3267,-1.3301,-1.3288,-1.3527,-1.3708,-1.3854,-1.4138,-1.4383,-1.4624,-1.4842,-1.5118,-1.5433,-1.5784,-1.6151,-1.6517,-1.6633,-1.6632,-1.6467,-1.585,-1.5279,-1.4741,-1.4392,-1.4411,-1.4441,-1.4501,-1.4646,-1.4779,-1.4802,-1.4988,-1.5069,-1.4902,-1.5488,-1.6068,-1.6489,-1.7105,-1.7825,-1.869,-1.8765,-1.9027,-1.9662,-1.9641,-1.9614,-1.9614,-1.9541,-1.9504,-1.9497,-1.9453,-1.9393,-1.9332,-1.8627,-1.8179,-1.7969,-1.6606,-1.5753,-1.5368,-1.4494,-1.4114,-1.41,-1.41,-1.4114,-1.4114,-1.4114,-1.4159,-1.4186,-1.4217,-1.4226,-1.4229,-1.4242,-1.4273,-1.4317,-1.4268,-1.4224,-1.4229,-1.4198,-1.4208,-1.4186,-1.4141,-1.4064,-1.4023,-1.3966,-1.3912,-1.3873,-1.3761,-1.3667,-1.3573,-1.3511,-1.3396,-1.3278,-1.3189,-1.301,-1.2751,-1.2499,-1.2411,-1.2528,-1.2977,-1.3006,-1.3183,-1.3812,-1.3718,-1.3575,-1.3624,-1.3899,-1.405,-1.3931,-1.419,-1.4128,-1.356,-1.3933,-1.4092,-1.3921,-1.3661,-1.3514,-1.3514,-1.3357,-1.3267,-1.3267,-1.3357,-1.3459,-1.3493,-1.3721,-1.3854,-1.3974,-1.4222,-1.4511,-1.4763,-1.4996,-1.5255,-1.5624,-1.6067,-1.6398,-1.6644,-1.663,-1.6403,-1.6014,-1.5354,-1.4833,-1.4425,-1.4405,-1.4453,-1.4488,-1.4506,-1.5152,-1.5709,-1.5751,-1.639,-1.6599,-1.5874,-1.5897,-1.6582,-1.8111,-1.8335,-1.8709,-1.9531,-1.9587,-1.9625,-1.9699,-1.9686,-1.9673,-1.9596,-1.9582,-1.9555,-1.9504,-1.9479,-1.9453,-1.939,-1.924,-1.8773,-1.7997,-1.7842,-1.6914,-1.5368,-1.4558,-1.4159,-1.41,-1.41,-1.4145,-1.419,-1.419,-1.4181,-1.4216,-1.4278,-1.4291,-1.4304,-1.4355,-1.4386,-1.438,-1.4381,-1.4331,-1.4273,-1.4229,-1.4198,-1.4203,-1.4185,-1.415,-1.4082,-1.4068,-1.3987,-1.3888,-1.3809,-1.37,-1.3573,-1.3511,-1.3396,-1.326,-1.3137,-1.2862,-1.2574,-1.2363,-1.27,-1.2977,-1.2854,-1.3213,-1.3694,-1.4193,-1.4183,-1.4241,-1.4631,-1.4682,-1.4617,-1.4365,-1.4324,-1.4195,-1.3952,-1.4006,-1.398,-1.3908,-1.3695,-1.3581,-1.3581,-1.3514,-1.3459,-1.3459,-1.3493,-1.3594,-1.3754,-1.3788,-1.3941,-1.4268,-1.442,-1.4658,-1.4982,-1.5163,-1.5522,-1.5968,-1.6246,-1.6543,-1.6725,-1.6257,-1.6177,-1.621,-1.495,-1.4528,-1.4502,-1.4464,-1.4896,-1.5274,-1.5274,-1.5998,-1.6583,-1.6613,-1.692,-1.7228,-1.7438,-1.7482,-1.7756,-1.8427,-1.8933,-1.9364,-1.9732,-1.977,-1.977,-1.977,-1.9719,-1.9675,-1.9662,-1.9623,-1.9587,-1.955,-1.9522,-1.9464,-1.939,-1.9326,-1.9115,-1.8773,-1.824,-1.7074,-1.5364,-1.4563,-1.4195,-1.4163,-1.4163,-1.4177,-1.4208,-1.4208,-1.4221,-1.426,-1.4286,-1.4312,-1.4355,-1.4387,-1.4411,-1.4411,-1.4405,-1.4393,-1.4356,-1.4325,-1.4319,-1.4312,-1.4268,-1.4229,-1.4195,-1.4127,-1.4058,-1.3987,-1.3886,-1.3793,-1.3684,-1.3577,-1.3446,-1.3311,-1.3137,-1.2843,-1.2641,-1.2811,-1.2915,-1.3189,-1.384,-1.4,-1.4235,-1.4819,-1.47,-1.4619,-1.478,-1.4651,-1.4493,-1.4365,-1.4268,-1.417,-1.396,-1.3927,-1.3894,-1.3854,-1.3695,-1.3615,-1.3615,-1.3514,-1.3514,-1.3547,-1.3628,-1.3741,-1.3854,-1.4007,-1.4203,-1.4365,-1.456,-1.4904,-1.5329,-1.561,-1.5926,-1.6246,-1.6474,-1.6722,-1.6937,-1.6383,-1.6061,-1.5737,-1.4853,-1.4315,-1.4037,-1.4871,-1.5586,-1.6188,-1.6188,-1.6922,-1.751,-1.751,-1.7763,-1.8184,-1.8807,-1.8901,-1.8901,-1.8887,-1.9413,-1.9782,-1.9832,-1.9801,-1.9801,-1.9801,-1.9757,-1.9713,-1.9695,-1.9662,-1.9614,-1.9611,-1.955,-1.9508,-1.9435,-1.9353,-1.9326,-1.928,-1.8419,-1.7216,-1.5749,-1.4927,-1.4414,-1.4198,-1.4198,-1.4216,-1.4229,-1.4229,-1.4273,-1.433,-1.4319,-1.4356,-1.4399,-1.4417,-1.4422,-1.4416,-1.4446,-1.4446,-1.4446,-1.4411,-1.4393,-1.4405,-1.4344,-1.4324,-1.4273,-1.4177,-1.4141,-1.4072,-1.3962,-1.3871,-1.3763,-1.3626,-1.3496,-1.3329,-1.3066,-1.277,-1.27,-1.3087,-1.3176,-1.3485,-1.4451,-1.4584,-1.4703,-1.509,-1.4932,-1.4746,-1.4651,-1.4493,-1.4319,-1.4222,-1.417,-1.404,-1.3921,-1.3888,-1.3854,-1.3788,-1.3695,-1.3661,-1.3695,-1.3628,-1.3648,-1.3702,-1.3841,-1.3941,-1.4007,-1.4254,-1.4415,-1.4525,-1.4856,-1.5224,-1.5639,-1.594,-1.6219,-1.6463,-1.6712,-1.6813,-1.6823,-1.627,-1.5733,-1.5155,-1.4555,-1.4087,-1.3776,-1.5783,-1.649,-1.7083,-1.7083,-1.7869,-1.8485,-1.8485,-1.9207,-1.9757,-1.9776,-1.9849,-1.9854,-1.9781,-1.9854,-1.9896,-1.9896,-1.9842,-1.98,-1.98,-1.9801,-1.9776,-1.9695,-1.9695,-1.9675,-1.9596,-1.9611,-1.9569,-1.9485,-1.9416,-1.9357,-1.9271,-1.8416,-1.7539,-1.6657,-1.5767,-1.4932,-1.4198,-1.4198,-1.4229,-1.4304,-1.4312,-1.4337,-1.4411,-1.4393,-1.4411,-1.4416,-1.4476,-1.4504,-1.4501,-1.4589,-1.46,-1.4578,-1.4434,-1.4399,-1.4399,-1.4399,-1.4356,-1.4293,-1.4293,-1.419,-1.4068,-1.403,-1.3897,-1.3763,-1.3626,-1.3496,-1.3294,-1.2904,-1.2639,-1.2623,-1.3043,-1.347,-1.3923,-1.4348,-1.4834,-1.5117,-1.4839,-1.4746,-1.462,-1.4332,-1.43,-1.4222,-1.4019,-1.3927,-1.3921,-1.3921,-1.3854,-1.3788,-1.3788,-1.3788,-1.3821,-1.3874,-1.3921,-1.3927,-1.4,-1.4124,-1.4235,-1.43,-1.442,-1.461,-1.4808,-1.5269,-1.5639,-1.5928,-1.6163,-1.6409,-1.6623,-1.6892,-1.6734,-1.6254,-1.5716,-1.5138,-1.4538,-1.3932,-1.3776,-1.392,-1.6583,-1.738,-1.7994,-1.8037,-1.8759,-1.9326,-1.9376,-1.9619,-1.9825,-1.9849,-1.9884,-1.9889,-1.9877,-1.9896,-1.9896,-1.9896,-1.9884,-1.9873,-1.9873,-1.9818,-1.9794,-1.9775,-1.9707,-1.9688,-1.9673,-1.9614,-1.956,-1.9499,-1.9489,-1.9398,-1.9271,-1.8441,-1.7902,-1.753,-1.6151,-1.5392,-1.5124,-1.4574,-1.4356,-1.4368,-1.4381,-1.4381,-1.4393,-1.4453,-1.4476,-1.4488,-1.4545,-1.456,-1.4574,-1.4592,-1.4632,-1.4661,-1.4618,-1.4567,-1.4533,-1.4485,-1.4458,-1.4429,-1.4393,-1.4306,-1.4216,-1.4101,-1.4009,-1.3897,-1.37,-1.3429,-1.3122,-1.2904,-1.2675,-1.2764,-1.3621,-1.3748,-1.402,-1.4935,-1.5034,-1.4963,-1.4839,-1.4588,-1.4397,-1.43,-1.4176,-1.4046,-1.3927,-1.3908,-1.3888,-1.3854,-1.3854,-1.3888,-1.3888,-1.3888,-1.3908,-1.398,-1.398,-1.4046,-1.4208,-1.4254,-1.4365,-1.4588,-1.47,-1.4949,-1.5269,-1.561,-1.5885,-1.6111,-1.6382,-1.6633,-1.6892,-1.7101,-1.6931,-1.6457,-1.5863,-1.527,-1.4675,-1.4055,-1.3923,-1.4054,-1.7528,-1.8317,-1.8902,-1.8977,-1.9407,-1.9751,-1.9844,-1.9849,-1.9854,-1.9896,-1.9919,-1.9941,-1.9941,-1.9949,-1.9938,-1.9938,-1.9908,-1.9908,-1.9908,-1.9854,-1.983,-1.98,-1.9763,-1.9726,-1.9694,-1.9655,-1.9601,-1.9546,-1.9499,-1.9442,-1.9338,-1.8812,-1.8364,-1.7972,-1.6648,-1.5868,-1.5554,-1.4733,-1.4399,-1.4399,-1.4441,-1.4441,-1.4434,-1.4511,-1.4545,-1.4585,-1.4629,-1.4643,-1.4685,-1.4685,-1.4705,-1.4734,-1.4744,-1.4705,-1.4656,-1.4563,-1.4537,-1.4522,-1.4464,-1.4393,-1.4301,-1.4162,-1.4091,-1.397,-1.3682,-1.3379,-1.3104,-1.2922,-1.271,-1.2864,-1.3898,-1.3875,-1.4053,-1.5184,-1.5102,-1.4856,-1.4732,-1.4447,-1.4254,-1.4189,-1.4046,-1.3927,-1.3888,-1.3854,-1.3854,-1.3788,-1.3854,-1.3908,-1.3927,-1.3927,-1.398,-1.4111,-1.4098,-1.4208,-1.4461,-1.4493,-1.4606,-1.4825,-1.5041,-1.5314,-1.5668,-1.5913,-1.6139,-1.6371,-1.6633,-1.6892,-1.7167,-1.7408,-1.7015,-1.6282,-1.5923,-1.5262,-1.4457,-1.41,-1.405,-1.419,-1.8559,-1.9183,-1.9726,-1.9776,-1.9794,-1.983,-1.9884,-1.9908,-1.99,-1.99,-1.9952,-1.9993,-1.9993,-1.9993,-1.9993,-1.9993,-1.9941,-1.99,-1.99,-1.9908,-1.9873,-1.98,-1.98,-1.9775,-1.9713,-1.9694,-1.9673,-1.9614,-1.9546,-1.9475,-1.9405,-1.9338,-1.8904,-1.8159,-1.7296,-1.6447,-1.564,-1.4849,-1.4465,-1.4411,-1.4476,-1.4499,-1.4511,-1.4578,-1.4651,-1.4693,-1.4712,-1.4753,-1.4812,-1.4813,-1.4823,-1.4804,-1.4804,-1.4813,-1.4785,-1.4637,-1.4603,-1.4589,-1.4522,-1.4464,-1.4387,-1.4257,-1.4159,-1.3998,-1.3605,-1.3362,-1.3158,-1.294,-1.2748,-1.2905,-1.3922,-1.39,-1.4068,-1.5125,-1.5056,-1.4794,-1.4533,-1.4369,-1.4222,-1.4032,-1.3927,-1.3888,-1.3821,-1.3788,-1.3788,-1.3821,-1.3888,-1.3927,-1.4032,-1.4032,-1.4098,-1.43,-1.4332,-1.4461,-1.4714,-1.4777,-1.4873,-1.5043,-1.5389,-1.5668,-1.5913,-1.6139,-1.6371,-1.6649,-1.6917,-1.7191,-1.7432,-1.7653,-1.6969,-1.583,-1.5904,-1.5135,-1.4012,-1.4082,-1.4203,-1.4331,-1.9276,-1.9613,-1.9788,-1.9794,-1.983,-1.9884,-1.9908,-1.99,-1.9922,-1.9966,-1.9988,-1.9998,-2.0,-2.0,-1.999,-2.0007,-1.9993,-1.9982,-1.9982,-1.993,-1.9889,-1.9877,-1.9842,-1.9794,-1.9776,-1.9732,-1.9662,-1.9614,-1.9578,-1.9536,-1.9475,-1.9464,-1.9343,-1.914,-1.8264,-1.7435,-1.6625,-1.5809,-1.5109,-1.4556,-1.4567,-1.4578,-1.4581,-1.4651,-1.4685,-1.4717,-1.4755,-1.4823,-1.4869,-1.4868,-1.4886,-1.4885,-1.4938,-1.4947,-1.4921,-1.4794,-1.4717,-1.4668,-1.4661,-1.4578,-1.4462,-1.4368,-1.4185,-1.397,-1.3713,-1.346,-1.3244,-1.3067,-1.2813,-1.2919,-1.3992,-1.3964,-1.412,-1.5125,-1.5025,-1.4763,-1.4533,-1.4246,-1.4065,-1.4,-1.3894,-1.3821,-1.3788,-1.3788,-1.3821,-1.3888,-1.396,-1.4046,-1.4222,-1.4287,-1.4319,-1.4351,-1.4525,-1.4651,-1.4777,-1.4904,-1.5104,-1.5448,-1.574,-1.5996,-1.6219,-1.6409,-1.6633,-1.6917,-1.7191,-1.7455,-1.767,-1.7288,-1.6686,-1.5975,-1.5503,-1.4801,-1.4083,-1.4201,-1.435,-1.4464,-1.9645,-1.9782,-1.9806,-1.9842,-1.9877,-1.9919,-1.9934,-1.9945,-1.9966,-1.999,-2.0,-2.001,-2.0001,-2.0001,-2.0001,-2.0,-1.9988,-2.0004,-1.9993,-1.9971,-1.993,-1.99,-1.9866,-1.983,-1.9813,-1.9757,-1.9707,-1.966,-1.9652,-1.9625,-1.955,-1.9541,-1.953,-1.9464,-1.8596,-1.7955,-1.7475,-1.6331,-1.5603,-1.5158,-1.4791,-1.4656,-1.4648,-1.4716,-1.4765,-1.4794,-1.4832,-1.4868,-1.4904,-1.4938,-1.4955,-1.4944,-1.4995,-1.5003,-1.4987,-1.4913,-1.4841,-1.4785,-1.4707,-1.4656,-1.4563,-1.4434,-1.4206,-1.4009,-1.3821,-1.3573,-1.3345,-1.3138,-1.2887,-1.2923,-1.3695,-1.3824,-1.4068,-1.4775,-1.4871,-1.4811,-1.4533,-1.4259,-1.4078,-1.4,-1.3894,-1.3788,-1.3788,-1.3788,-1.3821,-1.3888,-1.3947,-1.4098,-1.43,-1.4461,-1.4556,-1.4588,-1.4714,-1.4871,-1.5025,-1.5269,-1.5536,-1.5784,-1.6052,-1.6274,-1.6436,-1.6686,-1.6917,-1.7191,-1.7472,-1.7541,-1.742,-1.7173,-1.6533,-1.5655,-1.5358,-1.4845,-1.4252,-1.4392,-1.4497,-1.4622,-1.9788,-1.98,-1.9823,-1.9889,-1.9911,-1.9934,-1.9988,-1.9998,-2.0,-2.0001,-2.003,-2.0011,-2.0011,-2.0011,-2.0011,-2.003,-2.0029,-2.0017,-2.0004,-2.0004,-1.9963,-1.9911,-1.99,-1.9877,-1.9811,-1.9813,-1.9782,-1.9731,-1.9731,-1.9692,-1.9629,-1.9629,-1.9583,-1.9508,-1.8754,-1.8365,-1.8162,-1.6849,-1.6149,-1.5852,-1.5163,-1.483,-1.4738,-1.4794,-1.486,-1.4914,-1.4913,-1.4911,-1.4936,-1.5003,-1.5019,-1.5027,-1.5023,-1.503,-1.5023,-1.5027,-1.496,-1.4894,-1.4766,-1.4708,-1.4656,-1.4458,-1.427,-1.4101,-1.3959,-1.3717,-1.3461,-1.3192,-1.2979,-1.2945,-1.3335,-1.369,-1.404,-1.4348,-1.4746,-1.4876,-1.4564,-1.4351,-1.4157,-1.4032,-1.3894,-1.3821,-1.3788,-1.3821,-1.3841,-1.3908,-1.398,-1.4144,-1.4365,-1.462,-1.4777,-1.4871,-1.4932,-1.5086,-1.5403,-1.5756,-1.5998,-1.608,-1.6328,-1.6543,-1.6686,-1.6942,-1.7216,-1.7479,-1.7609,-1.7437,-1.7043,-1.699,-1.6287,-1.522,-1.526,-1.4925,-1.4451,-1.4571,-1.4666,-1.4747,-1.98,-1.9854,-1.9889,-1.99,-1.9945,-1.9988,-1.9998,-2.0,-2.002,-2.0078,-2.0088,-2.0079,-2.0079,-2.0079,-2.0069,-2.0088,-2.0078,-2.0049,-1.9991,-2.0009,-2.0007,-1.9988,-1.9934,-1.99,-1.9889,-1.9884,-1.9837,-1.9782,-1.9782,-1.9757,-1.9673,-1.9673,-1.9692,-1.966,-1.9529,-1.9082,-1.8441,-1.8199,-1.7288,-1.5982,-1.5851,-1.5442,-1.4878,-1.4877,-1.494,-1.4982,-1.4979,-1.5019,-1.5076,-1.5071,-1.5085,-1.508,-1.5088,-1.5076,-1.5069,-1.5087,-1.5085,-1.5042,-1.4921,-1.4785,-1.4661,-1.4511,-1.4381,-1.4211,-1.4037,-1.3818,-1.3588,-1.3328,-1.3105,-1.3078,-1.3421,-1.3798,-1.4157,-1.4446,-1.4775,-1.4921,-1.47,-1.4461,-1.4222,-1.4032,-1.3927,-1.3854,-1.3821,-1.3854,-1.3894,-1.3967,-1.4144,-1.4351,-1.462,-1.4777,-1.4994,-1.5222,-1.5222,-1.5418,-1.5799,-1.6026,-1.6234,-1.6421,-1.6633,-1.6841,-1.7027,-1.7224,-1.7479,-1.7715,-1.7304,-1.7164,-1.7166,-1.6005,-1.5467,-1.532,-1.483,-1.4602,-1.4592,-1.4726,-1.4804,-1.4887,-1.9854,-1.9877,-1.9911,-1.9945,-1.9977,-2.0009,-2.0048,-2.0049,-2.0069,-2.0108,-2.0089,-2.0098,-2.0088,-2.0088,-2.0108,-2.0098,-2.0089,-2.0089,-2.006,-2.003,-2.0,-2.0,-1.9979,-1.9947,-1.9952,-1.9908,-1.9873,-1.9837,-1.9837,-1.9813,-1.9757,-1.9757,-1.9745,-1.9738,-1.9738,-1.9551,-1.917,-1.8744,-1.811,-1.7323,-1.6449,-1.5923,-1.5599,-1.5134,-1.4995,-1.5053,-1.5057,-1.5066,-1.5101,-1.5133,-1.5146,-1.5159,-1.5152,-1.5152,-1.5152,-1.514,-1.5094,-1.5023,-1.4928,-1.4822,-1.4736,-1.464,-1.4488,-1.4307,-1.4159,-1.3949,-1.3726,-1.346,-1.3244,-1.3114,-1.3115,-1.3439,-1.3796,-1.4035,-1.4425,-1.4701,-1.4752,-1.4525,-1.4319,-1.4176,-1.4007,-1.3908,-1.3927,-1.3908,-1.3974,-1.4144,-1.4254,-1.4429,-1.4746,-1.4873,-1.5088,-1.5418,-1.5536,-1.5799,-1.6123,-1.6301,-1.6517,-1.6722,-1.6952,-1.7175,-1.7368,-1.7154,-1.7185,-1.7398,-1.6822,-1.6431,-1.6111,-1.5538,-1.5153,-1.4897,-1.4681,-1.4654,-1.4728,-1.4859,-1.4938,-1.4957,-1.9851,-1.9911,-1.9934,-1.9988,-2.0009,-2.0048,-2.0078,-2.0117,-2.0117,-2.0117,-2.0126,-2.0116,-2.0116,-2.0116,-2.0116,-2.0116,-2.0116,-2.0116,-2.0116,-2.0079,-2.0031,-2.0011,-2.0011,-2.0,-1.9996,-1.9952,-1.9911,-1.9919,-1.9919,-1.9908,-1.9854,-1.9854,-1.9849,-1.9844,-1.9844,-1.9844,-1.9818,-1.9194,-1.882,-1.8539,-1.7302,-1.66,-1.6217,-1.5575,-1.5224,-1.5099,-1.512,-1.5127,-1.5133,-1.5183,-1.5214,-1.5226,-1.5226,-1.5226,-1.5226,-1.5226,-1.5146,-1.5038,-1.496,-1.4902,-1.4832,-1.4736,-1.4581,-1.4416,-1.4275,-1.4091,-1.3862,-1.3605,-1.3362,-1.314,-1.2869,-1.3154,-1.3503,-1.374,-1.4136,-1.4515,-1.4803,-1.4637,-1.4429,-1.43,-1.4105,-1.3974,-1.4,-1.3993,-1.4072,-1.4268,-1.4365,-1.4543,-1.4825,-1.5027,-1.5285,-1.5682,-1.587,-1.6123,-1.6382,-1.6397,-1.655,-1.6759,-1.6821,-1.6947,-1.7143,-1.6782,-1.6723,-1.6862,-1.6238,-1.5731,-1.5264,-1.5234,-1.494,-1.4567,-1.4685,-1.4794,-1.4857,-1.4979,-1.503,-1.5049,-1.9749,-1.9945,-1.9988,-1.9998,-2.0058,-2.0088,-2.0107,-2.0155,-2.0192,-2.0192,-2.019,-2.0188,-2.0188,-2.0188,-2.0188,-2.0188,-2.0188,-2.0188,-2.0188,-2.0188,-2.0173,-2.0088,-2.003,-2.0001,-2.0001,-1.9991,-2.0,-1.9988,-1.9988,-1.9996,-1.9982,-1.9982,-2.0001,-2.0001,-2.0001,-2.0001,-1.9982,-1.9926,-1.9473,-1.8783,-1.866,-1.7669,-1.6303,-1.6292,-1.5804,-1.5108,-1.5165,-1.5189,-1.518,-1.5204,-1.5234,-1.5294,-1.5294,-1.5294,-1.5294,-1.5294,-1.5243,-1.5165,-1.5105,-1.5038,-1.4947,-1.4822,-1.4688,-1.4541,-1.4422,-1.4242,-1.4012,-1.3743,-1.3476,-1.321,-1.2944,-1.3235,-1.3608,-1.3922,-1.4281,-1.4601,-1.4957,-1.4811,-1.4588,-1.4332,-1.4235,-1.4124,-1.4032,-1.4144,-1.4268,-1.43,-1.4588,-1.4825,-1.4982,-1.5285,-1.5711,-1.6203,-1.6274,-1.6382,-1.657,-1.6166,-1.607,-1.6324,-1.5804,-1.5637,-1.585,-1.6003,-1.6133,-1.6236,-1.5633,-1.5404,-1.5433,-1.4896,-1.468,-1.4708,-1.4832,-1.493,-1.4984,-1.5078,-1.5133,-1.5197,-1.9804,-1.9977,-2.0009,-2.0058,-2.0078,-2.0098,-2.0155,-2.0183,-2.0201,-2.0199,-2.0208,-2.0197,-2.0197,-2.0197,-2.0197,-2.0197,-2.0197,-2.0197,-2.0197,-2.0197,-2.0199,-2.0173,-2.0145,-2.0117,-2.0117,-2.0079,-2.006,-2.005,-2.005,-2.0069,-2.0049,-2.0049,-2.0049,-2.0049,-2.0049,-2.0049,-2.0049,-2.0049,-1.9898,-1.963,-1.9075,-1.8508,-1.7926,-1.7444,-1.7061,-1.6708,-1.6187,-1.6036,-1.5999,-1.5444,-1.5284,-1.5293,-1.5293,-1.5293,-1.5289,-1.5299,-1.5284,-1.5259,-1.519,-1.5085,-1.4968,-1.4885,-1.4766,-1.4616,-1.4497,-1.4307,-1.4101,-1.3877,-1.3634,-1.3395,-1.3069,-1.3057,-1.3304,-1.4014,-1.4066,-1.4286,-1.5139,-1.498,-1.4714,-1.4588,-1.4397,-1.4254,-1.4254,-1.4287,-1.4397,-1.4588,-1.4777,-1.498,-1.5225,-1.5251,-1.5411,-1.578,-1.5557,-1.5663,-1.6143,-1.5704,-1.5566,-1.58,-1.5699,-1.5755,-1.5939,-1.5642,-1.5577,-1.5678,-1.5008,-1.4824,-1.4933,-1.4736,-1.4718,-1.4841,-1.4928,-1.4996,-1.5068,-1.5146,-1.5199,-1.526,-1.9437,-1.9838,-2.0058,-2.0098,-2.0127,-2.0155,-2.0201,-2.019,-2.0208,-2.0205,-2.0214,-2.0222,-2.0222,-2.023,-2.0238,-2.0238,-2.0238,-2.0238,-2.0238,-2.0238,-2.0222,-2.0197,-2.0199,-2.0209,-2.0209,-2.0144,-2.0135,-2.0135,-2.0135,-2.0135,-2.0135,-2.0125,-2.0134,-2.0134,-2.0153,-2.0153,-2.0153,-2.0153,-2.019,-2.0188,-1.9572,-1.9193,-1.8934,-1.841,-1.8043,-1.7746,-1.7145,-1.6967,-1.6924,-1.6318,-1.6114,-1.6064,-1.5792,-1.5521,-1.5299,-1.5302,-1.5289,-1.5294,-1.5248,-1.5153,-1.5038,-1.4944,-1.4841,-1.4727,-1.4585,-1.4416,-1.4206,-1.3991,-1.3789,-1.3542,-1.3209,-1.2961,-1.3131,-1.4132,-1.4004,-1.4139,-1.5257,-1.5088,-1.4825,-1.4746,-1.4511,-1.4383,-1.4433,-1.4447,-1.4556,-1.4808,-1.498,-1.5224,-1.5624,-1.5369,-1.5364,-1.5638,-1.502,-1.4934,-1.5452,-1.5143,-1.509,-1.5282,-1.5262,-1.533,-1.5494,-1.5131,-1.5022,-1.5124,-1.4678,-1.4563,-1.4695,-1.4776,-1.4867,-1.4979,-1.5038,-1.5088,-1.5138,-1.5201,-1.5265,-1.5303,-1.8631,-1.9506,-2.0098,-2.0108,-2.0155,-2.0201,-2.0208,-2.0195,-2.0192,-2.0192,-2.0262,-2.0304,-2.0304,-2.0306,-2.0294,-2.0294,-2.0294,-2.0294,-2.0294,-2.0294,-2.0265,-2.0197,-2.0197,-2.0197,-2.0197,-2.0197,-2.0197,-2.0197,-2.0197,-2.0197,-2.0197,-2.0203,-2.0192,-2.0192,-2.0265,-2.0312,-2.0312,-2.0312,-2.0312,-2.0292,-2.0296,-1.9778,-1.9027,-1.9085,-1.8612,-1.7917,-1.7922,-1.7912,-1.7907,-1.7896,-1.7905,-1.7742,-1.6875,-1.6013,-1.5303,-1.5319,-1.5302,-1.5303,-1.5304,-1.5257,-1.5172,-1.5038,-1.4955,-1.486,-1.4724,-1.4545,-1.4338,-1.4136,-1.3894,-1.3619,-1.3345,-1.3035,-1.3174,-1.4309,-1.4151,-1.4281,-1.5344,-1.5225,-1.4951,-1.4825,-1.461,-1.4501,-1.4501,-1.4686,-1.4839,-1.4902,-1.5224,-1.5624,-1.6151,-1.5739,-1.5646,-1.5996,-1.4825,-1.4297,-1.4483,-1.4483,-1.4589,-1.4778,-1.4267,-1.4068,-1.4198,-1.4338,-1.4469,-1.46,-1.4677,-1.4785,-1.4905,-1.4974,-1.5046,-1.5099,-1.5171,-1.5199,-1.5202,-1.5278,-1.5292,-1.532,-1.8526,-1.9049,-1.9448,-2.0059,-2.0182,-2.0216,-2.0269,-2.0277,-2.0273,-2.0265,-2.028,-2.0306,-2.0306,-2.0294,-2.0294,-2.0294,-2.0294,-2.0294,-2.0294,-2.0308,-2.0288,-2.0268,-2.0272,-2.0265,-2.0265,-2.0265,-2.0265,-2.0265,-2.0265,-2.0265,-2.0265,-2.0272,-2.026,-2.0275,-2.0301,-2.032,-2.0372,-2.0372,-2.0372,-2.0372,-2.0373,-2.0211,-1.9985,-1.9995,-1.9856,-1.9575,-1.9012,-1.8807,-1.8714,-1.8104,-1.7897,-1.7858,-1.7589,-1.6947,-1.6279,-1.6239,-1.5781,-1.5303,-1.5308,-1.525,-1.5182,-1.508,-1.4976,-1.4886,-1.4794,-1.4611,-1.4399,-1.4206,-1.3995,-1.3748,-1.3428,-1.3174,-1.3198,-1.3781,-1.3969,-1.4258,-1.4932,-1.514,-1.5133,-1.4951,-1.4842,-1.4794,-1.4794,-1.4873,-1.4996,-1.5178,-1.5639,-1.5854,-1.5708,-1.5312,-1.4962,-1.4743,-1.4067,-1.3802,-1.4015,-1.3949,-1.4045,-1.4232,-1.4175,-1.4211,-1.4338,-1.4488,-1.4592,-1.4678,-1.4794,-1.4885,-1.4987,-1.503,-1.5107,-1.5176,-1.5245,-1.5269,-1.5284,-1.5354,-1.5378,-1.5365,-1.76,-1.8398,-1.9063,-1.9632,-2.0014,-2.0249,-2.0289,-2.0296,-2.0311,-2.0301,-2.0314,-2.034,-2.0347,-2.0334,-2.0341,-2.0341,-2.0341,-2.0341,-2.0341,-2.0347,-2.0334,-2.0334,-2.0347,-2.0328,-2.0334,-2.0334,-2.0334,-2.0334,-2.0334,-2.0334,-2.0334,-2.034,-2.0334,-2.0347,-2.0334,-2.0359,-2.0396,-2.0396,-2.0416,-2.0446,-2.0432,-2.0438,-2.0443,-2.0444,-2.0434,-2.0381,-1.9893,-1.9702,-1.9628,-1.9114,-1.8692,-1.84,-1.8416,-1.7852,-1.7148,-1.6746,-1.6249,-1.573,-1.5396,-1.5269,-1.5226,-1.5158,-1.5052,-1.4919,-1.4822,-1.4685,-1.4511,-1.4288,-1.4109,-1.3886,-1.3543,-1.3295,-1.3345,-1.3967,-1.4131,-1.4439,-1.517,-1.5329,-1.5314,-1.5149,-1.4996,-1.4949,-1.5025,-1.5072,-1.5254,-1.5595,-1.6024,-1.6071,-1.5694,-1.5269,-1.4846,-1.4333,-1.3853,-1.3728,-1.3906,-1.3931,-1.4005,-1.4123,-1.425,-1.4393,-1.4522,-1.4624,-1.4737,-1.4813,-1.49,-1.5,-1.5073,-1.5127,-1.5188,-1.5241,-1.5283,-1.5315,-1.5336,-1.5393,-1.5394,-1.5395,-1.6296,-1.7597,-1.8747,-1.8965,-1.9665,-2.0212,-2.0294,-2.0301,-2.0308,-2.0308,-2.036,-2.0392,-2.041,-2.0402,-2.0394,-2.0394,-2.0394,-2.0399,-2.0418,-2.0418,-2.0418,-2.0418,-2.0399,-2.0408,-2.0417,-2.0411,-2.0405,-2.0405,-2.0405,-2.0411,-2.0411,-2.041,-2.0416,-2.0416,-2.0413,-2.041,-2.0405,-2.0405,-2.043,-2.0502,-2.0502,-2.0506,-2.0495,-2.0495,-2.05,-2.0492,-2.0492,-2.0492,-2.0496,-2.0503,-1.9968,-1.9311,-1.9322,-1.8754,-1.7936,-1.7054,-1.6707,-1.6421,-1.5543,-1.5299,-1.5279,-1.5211,-1.5108,-1.4973,-1.4849,-1.4765,-1.4629,-1.4368,-1.419,-1.3998,-1.3667,-1.3378,-1.3536,-1.4551,-1.4505,-1.4696,-1.575,-1.5681,-1.5463,-1.5328,-1.5149,-1.5074,-1.5208,-1.5313,-1.5566,-1.6095,-1.632,-1.6247,-1.5861,-1.5451,-1.5003,-1.4451,-1.4031,-1.392,-1.4123,-1.4264,-1.4332,-1.4331,-1.4453,-1.4596,-1.4714,-1.4794,-1.4894,-1.5014,-1.5018,-1.5082,-1.5209,-1.5215,-1.5255,-1.5311,-1.5306,-1.5345,-1.5396,-1.5409,-1.5404,-1.539,-1.6237,-1.6713,-1.7439,-1.878,-1.9167,-1.9522,-2.027,-2.0373,-2.0386,-2.0377,-2.0383,-2.0402,-2.0408,-2.0394,-2.0394,-2.0394,-2.0404,-2.042,-2.0468,-2.0473,-2.0478,-2.0478,-2.0487,-2.0472,-2.0487,-2.0424,-2.0408,-2.0404,-2.0404,-2.0429,-2.0478,-2.0483,-2.0488,-2.0473,-2.0478,-2.0487,-2.0476,-2.0476,-2.0484,-2.0496,-2.0496,-2.0499,-2.049,-2.0494,-2.0497,-2.05,-2.0506,-2.0509,-2.0509,-2.0492,-2.0372,-2.021,-2.023,-1.9623,-1.8763,-1.7897,-1.7187,-1.6477,-1.5546,-1.5303,-1.5289,-1.5211,-1.5151,-1.5061,-1.4979,-1.4813,-1.4651,-1.4488,-1.4268,-1.4012,-1.3728,-1.346,-1.3459,-1.4003,-1.4295,-1.4638,-1.5148,-1.5523,-1.5683,-1.5492,-1.5418,-1.5389,-1.5433,-1.5654,-1.597,-1.6367,-1.606,-1.5751,-1.5451,-1.4953,-1.4451,-1.3978,-1.4008,-1.411,-1.4264,-1.4439,-1.4526,-1.4533,-1.4616,-1.4737,-1.4859,-1.4938,-1.5,-1.5073,-1.5127,-1.5207,-1.5289,-1.5283,-1.5319,-1.5381,-1.5387,-1.5392,-1.5397,-1.5407,-1.5391,-1.5406,-1.5741,-1.6182,-1.679,-1.7709,-1.8519,-1.9213,-1.9701,-2.0119,-2.0408,-2.0448,-2.0459,-2.0444,-2.0449,-2.0454,-2.0454,-2.0454,-2.0458,-2.0467,-2.0491,-2.0495,-2.05,-2.05,-2.0504,-2.0511,-2.0496,-2.0476,-2.0443,-2.0443,-2.0443,-2.0472,-2.0504,-2.0504,-2.0508,-2.0496,-2.0496,-2.0499,-2.0506,-2.0506,-2.0494,-2.0503,-2.0503,-2.0506,-2.0509,-2.0492,-2.0492,-2.0492,-2.0497,-2.0497,-2.0497,-2.0497,-2.0494,-2.0492,-2.0492,-2.0197,-1.9665,-1.8802,-1.7958,-1.707,-1.6201,-1.5636,-1.5295,-1.526,-1.5204,-1.5127,-1.5019,-1.4877,-1.4697,-1.4537,-1.4338,-1.4109,-1.3853,-1.3575,-1.3649,-1.439,-1.4561,-1.4845,-1.5567,-1.5811,-1.5841,-1.5668,-1.558,-1.561,-1.5711,-1.5955,-1.6246,-1.6607,-1.6184,-1.5756,-1.5452,-1.4944,-1.4432,-1.3962,-1.4114,-1.4289,-1.4444,-1.4614,-1.4726,-1.4794,-1.4794,-1.4859,-1.4944,-1.5023,-1.5075,-1.5152,-1.5224,-1.5275,-1.5299,-1.5322,-1.5365,-1.5404,-1.5401,-1.5398,-1.5408,-1.541,-1.5402,-1.5403,-1.5201,-1.5799,-1.6352,-1.6561,-1.7752,-1.8769,-1.9075,-1.9736,-2.0269,-2.0478,-2.0506,-2.05,-2.0492,-2.0492,-2.0492,-2.0496,-2.0496,-2.0496,-2.0496,-2.0499,-2.0499,-2.0499,-2.0499,-2.0503,-2.049,-2.049,-2.0506,-2.0496,-2.0496,-2.0499,-2.049,-2.049,-2.0497,-2.0503,-2.0503,-2.0503,-2.0506,-2.0509,-2.0511,-2.0516,-2.0516,-2.0519,-2.0521,-2.0521,-2.0521,-2.0521,-2.0521,-2.0521,-2.0521,-2.0521,-2.0521,-2.0519,-2.0519,-2.0514,-2.0333,-1.9534,-1.8649,-1.7741,-1.6917,-1.6004,-1.5299,-1.5291,-1.5255,-1.5171,-1.5045,-1.49,-1.4766,-1.4574,-1.4404,-1.4229,-1.3959,-1.3704,-1.3888,-1.5006,-1.4935,-1.5114,-1.6222,-1.6207,-1.5983,-1.5856,-1.5755,-1.5769,-1.6024,-1.6246,-1.6517,-1.6841,-1.6305,-1.5884,-1.5673,-1.5038,-1.45,-1.4141,-1.4282,-1.4444,-1.4627,-1.4775,-1.4895,-1.5011,-1.496,-1.4984,-1.5045,-1.5082,-1.5143,-1.5211,-1.5274,-1.5307,-1.5313,-1.5371,-1.5409,-1.5405,-1.5403,-1.541,-1.5409,-1.5381,-1.5379,-1.5362,-1.5289,-1.5371,-1.5704,-1.6464,-1.6788,-1.7446,-1.8962,-1.9297,-1.9636,-2.0398,-2.0499,-2.0503,-2.0494,-2.0497,-2.0497,-2.05,-2.05,-2.0506,-2.0492,-2.0492,-2.0492,-2.0492,-2.0492,-2.0494,-2.0494,-2.0494,-2.0489,-2.05,-2.05,-2.0506,-2.0494,-2.0494,-2.0494,-2.0494,-2.0492,-2.0492,-2.0492,-2.0553,-2.0594,-2.0597,-2.0597,-2.0584,-2.0591,-2.0591,-2.0591,-2.0591,-2.0591,-2.0591,-2.0591,-2.0591,-2.059,-2.0584,-2.0584,-2.054,-2.0338,-1.9534,-1.8671,-1.7808,-1.6923,-1.6007,-1.5303,-1.5299,-1.5255,-1.518,-1.5095,-1.4992,-1.4851,-1.4703,-1.4462,-1.4245,-1.4026,-1.3761,-1.3939,-1.5027,-1.4962,-1.5145,-1.6249,-1.6262,-1.6123,-1.5983,-1.6011,-1.6095,-1.6246,-1.6436,-1.6712,-1.7117,-1.6083,-1.5563,-1.5936,-1.4765,-1.4167,-1.4264,-1.4456,-1.4637,-1.4776,-1.4911,-1.5015,-1.5095,-1.5133,-1.5164,-1.5171,-1.5185,-1.5217,-1.5284,-1.5303,-1.5339,-1.5393,-1.5409,-1.5404,-1.541,-1.5391,-1.5407,-1.5395,-1.5326,-1.5306,-1.5306,-1.5289,-1.5291,-1.5427,-1.587,-1.6327,-1.7076,-1.8332,-1.8903,-1.9513,-2.0399,-2.05,-2.0506,-2.0509,-2.0489,-2.0492,-2.0492,-2.0492,-2.0494,-2.0497,-2.0497,-2.0494,-2.0494,-2.0536,-2.0555,-2.0555,-2.0555,-2.0558,-2.0564,-2.0514,-2.0511,-2.0555,-2.0555,-2.056,-2.0566,-2.0566,-2.0568,-2.0552,-2.0593,-2.0593,-2.0593,-2.0593,-2.0596,-2.0598,-2.0598,-2.0597,-2.0593,-2.0593,-2.0593,-2.0593,-2.0593,-2.0593,-2.059,-2.059,-2.0586,-2.0387,-1.9543,-1.8678,-1.7813,-1.6948,-1.6038,-1.5359,-1.5311,-1.525,-1.5196,-1.5158,-1.5045,-1.4913,-1.4737,-1.456,-1.435,-1.4096,-1.4169,-1.4504,-1.5255,-1.5495,-1.5821,-1.6533,-1.649,-1.6328,-1.6191,-1.6234,-1.6328,-1.6501,-1.6712,-1.6993,-1.7384,-1.6239,-1.5697,-1.6081,-1.4843,-1.4214,-1.4451,-1.4624,-1.4776,-1.4919,-1.5008,-1.5101,-1.5168,-1.5217,-1.5251,-1.5255,-1.5255,-1.5284,-1.5365,-1.5368,-1.537,-1.5409,-1.5405,-1.5391,-1.5407,-1.5395,-1.5377,-1.5335,-1.5319,-1.5278,-1.5236]}]]